     2              OBSERVATION DATA    GPS                 RINEX VERSION / TYPE
ASHTORIN MIT 12 - NOV - 96 15:10                            PGM / RUN BY / DATE
                                                            COMMENT
China Lake 1996 EXPT #2 Ashtech Z12 P-Code                  COMMENT
Original Marker Name: GS20                                  COMMENT
Campaign Name: China Lake Nov 1996                          COMMENT
4-Character Station Name: GS20                              COMMENT
6-Character Antenna Code: ASHP12                            COMMENT
Vertical Measurement Point: TGP                             COMMENT
Vertical Offset to Rinex Ref. Point: 0.0640                 COMMENT
Radial Measurement Point: RRP                               COMMENT
Radial Offset to Rinex Ref. Point: 0.0000                   COMMENT
Antenna Height from Field Measurement: 0.2080 m             COMMENT
Additional Antenna Identification Info.:                    COMMENT
Ashtech L1/L2 Revision B (700228DE)                         COMMENT
Original XYZ: -2418325.5500 -4604955.2200 3681171.4000      COMMENT
New XYZ position is based on association with SCEC monument COMMENT
E1F4F6M9+0011. Position of that monument is believed to be  COMMENT
valid to within 1 m horizontally; vertical accuracy         COMMENT
should be no worse than 3-times this value.                 COMMENT
                                                            COMMENT
Revised Rinex header created by UCSD GPS archive for        COMMENT
GSAC on 01-Aug-2000 (2000:214) 05:47:14 GMT                 COMMENT
For assistance contact dagnew@ucsd.edu                      COMMENT
or anderson@python.ucsd.edu                                 COMMENT
                                                            COMMENT
BLM GO20                                                    MARKER NAME
gs20                                                        MARKER NUMBER
RES US DEFENSE MAPPING AGENCY                               OBSERVER / AGENCY
414 ASHTECH Z-XII3 1G001C7                                  REC # / TYPE / VERS
784 ASHTECH GEODETIC P                                      ANT # / TYPE
 -2384589.5226 -4600193.7268  3707714.9288                  APPROX POSITION XYZ
        0.1440        0.0000        0.0000                  ANTENNA: DELTA H/E/N
     1     1     0                                          WAVELENGTH FACT L1/2
     7    L1    L2    C1    P1    P2    D1    D2            # / TYPES OF OBSERV
    30                                                      INTERVAL
  1996    11     5    16    26    0.000000                  TIME OF FIRST OBS
  1996    11     5    22    30   30.000000                  TIME OF LAST OBS
                                                            END OF HEADER
 96 11  5 16 26  0.0000000  0  7 31  3  1 17 23  9 21                0.001066225
    -70530.83119    -36281.38952  20200891.417           0.0005          0.0005
      3249.177        2531.826
    -31925.80619    -18508.69758  17939660.994           0.0005   17939669.4115
      1158.314         902.582
    -70730.85018    -38290.05055  18029936.942           0.0005          0.0005
      3427.901        2671.092
     26678.18919     14009.57557  18250463.860           0.0005   18250474.7845
     -1258.250        -980.455
     10746.35519      5835.24858  17909509.057           0.0005   17909513.7045
      -524.018        -408.326
    -36487.69519    -18423.65652  20282583.762           0.0005          0.0005
      1647.556        1283.810
    -30589.21419    -16078.44958  17393932.655           0.0005          0.0005
      1438.296        1120.750
 96 11  5 16 26 30.0000000  0  7 31  3  1 17 23  9 21                0.001050334
   -167803.200 9   -112077.80655  20182386.054           0.0005   20182375.8645
      3235.018        2520.793
    -66349.549 9    -45332.41647  17933105.659    17933114.0115   17933118.8244
      1136.216         885.363
   -173355.76418   -118257.30056  18010414.486    18010415.6975   18010420.5865
      3413.529        2659.893
     64610.86318     43567.90055  18257685.865    18257662.7815          0.0005
     -1270.648        -990.115
     26551.92519     18151.24357  17912519.064    17912517.0275   17912520.2955
      -529.962        -412.957
    -85659.59417    -56739.52454  20273224.835           0.0005          0.0005
      1630.460        1270.488
    -73605.265 9    -49597.37957  17385744.375           0.0004   17385754.9035
      1429.275        1113.721
 96 11  5 16 27 30.0000000  0  5 31  3  1 23 21                      0.000435970
    -26225.13819     -5753.74852  23743130.047           0.0005          0.0005
      3204.192        2496.773
    -13317.82319     -7106.80458  21517908.662           0.0005   21517915.6925
      1091.266         850.337
    -43315.55219    -21986.84158  21569126.143           0.0005   21569136.6925
      3383.613        2636.582
      6779.84919      3510.81758  21516141.155           0.0005   21516146.5385
      -541.604        -422.029
    -18122.33019     -9187.98858  20967034.848           0.0005          0.0005
      1413.604        1101.510
 96 11  5 16 28  0.0000000  0  5 31  3  1 23 21                      0.000420158
   -122092.120 9    -80454.98246  23724890.710           0.0004   23724901.0514
      3186.739        2483.173
    -45722.818 9    -32357.47748  21511742.432    21511744.0465   21511748.8874
      1068.999         832.986
    -29503.88619     -6074.12851  21549853.984           0.0005          0.0005
      3367.955        2624.381
     23124.661 9     16246.99548  21519250.387    21519252.3285   21519257.0204
      -548.111        -427.099
    -60412.535 9    -42141.41258  20958986.874    20958987.2305   20958992.3525
      1405.600        1095.273
 96 11  5 16 28 30.0000000  0  7 31  3  1 17 23  9 21                0.000404696
   -217418.790 9   -154735.59746  23706752.017    23706749.5745   23706757.5304
      3168.280        2468.790
    -77465.990 9    -57092.41148  21505702.170    21505703.6644   21505708.4834
      1046.957         815.811
   -130308.700 9    -84623.17848  21530671.639    21530672.6975   21530677.9894
      3352.067        2612.000
     94316.12019     69602.65558  21884792.518    21884793.3875   21884799.3445
     -1321.961       -1030.099
     39668.883 9     29138.60448  21522397.803    21522400.5304   21522405.1864
      -555.074        -432.525
   -109816.28019    -76629.41057  23834299.909    23834300.9025   23834306.7345
      1559.326        1215.059
   -102460.076 9    -74905.74248  20950984.159    20950986.2904   20950991.2784
      1397.232        1088.752
 96 11  5 16 29  0.0000000  0  7 31  3  1 17 23  9 21                0.000389365
   -312170.586 9   -228568.15656  23688719.194    23688721.9095   23688726.9225
      3149.250        2453.961
   -108527.632 9    -81296.30258  21499796.328    21499792.8535   21499797.6625
      1024.635         798.417
   -230602.861 9   -162774.47248  21511584.712    21511587.4614   21511592.7584
      3335.034        2598.728
    134192.737 9    100675.30458  21892379.222    21892381.6715   21892387.4205
     -1335.777       -1040.865
     56450.796 9     42215.41258  21525593.768    21525594.0105   21525598.6325
      -562.939        -438.654
   -156290.003 9   -112842.72456  23825455.782    23825456.9565   23825462.5915
      1539.821        1199.861
   -144230.812 9   -107454.37658  20943035.256    20943037.5885   20943042.6225
      1388.093        1081.631
 96 11  5 16 29 30.0000000  0  7 31  3  1 17 23  9 21                0.000373677
   -406384.481 9   -301981.60147  23670794.837    23670793.4294   23670798.7014
      3131.480        2440.114
   -138949.709 9   -105001.82248  21494005.209    21494003.7054   21494008.5344
      1003.095         781.632
   -330417.905 9   -240552.42358  21492589.124    21492593.2795   21492598.6165
      3318.883        2586.142
    174454.297 9    132047.90048  21900040.960    21900043.1854   21900048.9204
     -1348.568       -1050.832
     73445.929 9     55458.36348  21528826.744    21528828.0804   21528832.6764
      -570.354        -444.432
   -202203.451 9   -148619.47146  23816720.261    23816719.9614   23816725.5264
      1520.699        1184.960
   -185740.375 9   -139799.50048  20935136.615    20935138.5924   20935143.6604
      1378.661        1074.281
 96 11  5 16 30  0.0000000  0  7 31  3  1 17 23  9 21                0.000358175
   -500076.998 9   -374988.80546  23652964.266    23652964.4504   23652969.3524
      3114.783        2427.104
   -168722.827 9   -128201.67148  21488337.795    21488338.0824   21488342.9314
       981.734         764.988
   -429748.982 9   -317953.26148  21473688.239    21473691.2374   21473696.5654
      3303.255        2573.965
    215108.807 9    163726.69148  21907777.533    21907779.4864   21907785.2174
     -1361.735       -1061.092
     90657.734 9     68870.15248  21532101.882    21532103.4274   21532107.9754
      -576.866        -449.506
   -247543.500 9   -183949.38646  23808090.929    23808091.9084   23808097.7284
      1502.335        1170.651
   -226958.633 9   -171917.63348  20927293.111    20927295.0094   20927300.1334
      1369.395        1067.061
 96 11  5 16 30 30.0000000  0  7 31  3  1 17 23  9 21                0.000342751
   -593259.070 9   -447598.23146  23635231.757    23635232.4934   23635237.4724
      3097.676        2413.774
   -197825.391 9   -150879.00348  21482799.187    21482800.0834   21482804.9764
       958.874         747.175
   -528584.484 9   -394967.94148  21454881.036    21454883.4674   21454888.8194
      3286.044        2560.554
    256173.288 9    195724.93748  21915591.849    21915593.8254   21915599.5784
     -1375.528       -1071.840
    108085.906 9     82450.53548  21535418.405    21535419.9434   21535424.4964
      -584.637        -455.561
   -292329.252 9   -218847.38146  23799568.271    23799569.4934   23799575.4764
      1483.618        1156.066
   -267872.865 9   -203798.85948  20919507.236    20919509.2944   20919514.4654
      1358.430        1058.517
 96 11  5 16 31  0.0000000  0  7 31  3  1 17 23  9 21                0.000327353
   -685937.489 9   -519815.20346  23617595.353    23617596.3294   23617601.2394
      3080.282        2400.220
   -226254.755 9   -173031.76648  21477388.979    21477390.1864   21477395.0774
       935.941         729.305
   -626909.323 9   -471584.69648  21436170.717    21436172.9084   21436178.2884
      3268.594        2546.956
    297651.505 9    228045.59148  21923484.825    21923486.8884   21923492.6774
     -1390.072       -1083.173
    125730.901 9     96199.86748  21538776.223    21538777.7424   21538782.2594
      -592.092        -461.370
   -336558.058 9   -253311.38646  23791151.893    23791153.1154   23791159.0824
      1464.538        1141.198
   -308459.788 9   -235425.03848  20911783.882    20911785.8884   20911791.0874
      1346.870        1049.509
 96 11  5 16 31 30.0000000  0  7 31  3  1 17 23  9 21                0.000311988
   -778094.453 9   -591625.77746  23600058.159    23600059.4544   23600064.6314
      3063.456        2387.109
   -253999.367 9   -194650.95648  21472109.092    21472110.5774   21472115.5174
       913.491         711.811
   -724718.324 9   -547799.50448  21417558.358    21417560.5224   21417565.9154
      3251.879        2533.932
    339555.048 9    260697.65748  21931458.971    21931460.9454   21931466.7304
     -1403.530       -1093.660
    143594.052 9    110119.19448  21542175.321    21542177.0304   21542181.5594
      -598.932        -466.700
   -380220.655 9   -287334.18246  23782843.387    23782844.3584   23782850.2324
      1446.079        1126.815
   -348695.305 9   -266777.39948  20904127.531    20904129.3624   20904134.5994
      1335.440        1040.602
 96 11  5 16 32  0.0000000  0  7 31  3  1 17 23  9 21                0.000296653
   -869713.581 9   -663017.34647  23582623.281    23582624.7464   23582629.8744
      3043.704        2371.717
   -281031.057 9   -215714.62548  21466964.844    21466966.6594   21466971.5914
       887.936         691.898
   -821997.340 9   -623601.31848  21399046.996    21399048.9864   21399054.3684
      3232.843        2519.098
    381896.039 9    293690.61848  21939516.277    21939518.2434   21939523.9994
     -1419.857       -1106.382
    161692.521 9    124221.88248  21545619.565    21545621.1554   21545625.6054
      -608.335        -474.027
   -423299.403 9   -320902.01146  23774645.412    23774646.7254   23774652.5204
      1425.340        1110.655
   -388555.648 9   -297837.40648  20896542.468    20896544.2564   20896549.4734
      1321.453        1029.704
 96 11  5 16 32 30.0000000  0  7 31  3  1 17 23  9 21                0.000281356
   -960773.167 9   -733972.85447  23565295.175    23565296.7364   23565301.9864
      3027.797        2359.322
   -307326.749 9   -236204.79648  21461960.909    21461962.8154   21461967.7284
       866.104         674.886
   -918745.748 9   -698989.69448  21380636.580    21380638.4344   21380643.7744
      3218.028        2507.554
    424682.519 9    327030.68748  21947658.188    21947660.3214   21947666.0374
     -1431.735       -1115.638
    180046.983 9    138524.04048  21549112.212    21549113.9474   21549118.3574
      -614.413        -478.763
   -465791.194 9   -354012.50846  23766559.243    23766560.8544   23766566.6314
      1408.126        1097.241
   -428030.649 9   -328597.15348  20889030.609    20889032.4534   20889037.6564
      1311.151        1021.676
 96 11  5 16 33  0.0000000  0  7 31  3  1 17 23  9 21                0.000266069
  -1051324.231 9   -804532.15547  23548063.992    23548065.6504   23548070.6764
      3009.684        2345.208
   -332937.849 9   -256161.51648  21457087.156    21457089.2064   21457094.1344
       842.086         656.171
  -1015027.088 9   -774014.11448  21362314.947    21362316.7544   21362322.0584
      3201.663        2494.802
    467863.288 9    360678.00448  21955875.492    21955877.4464   21955883.1154
     -1445.967       -1126.727
    198615.704 9    152993.15648  21552645.819    21552647.5114   21552651.8884
      -622.601        -485.144
   -507725.841 9   -386688.83847  23758579.148    23758581.0084   23758586.7624
      1388.474        1081.928
   -467178.849 9   -359102.24248  20881581.018    20881582.8324   20881588.0684
      1299.936        1012.937
 96 11  5 16 33 30.0000000  0  7 31  3  1 17 23  9 21                0.000250802
  -1141374.266 9   -874701.00247  23530927.674    23530929.6274   23530934.7714
      2993.116        2332.298
   -357852.464 9   -275575.52848  21452346.239    21452348.1874   21452353.1114
       818.337         637.665
  -1110852.380 9   -848683.17148  21344080.029    21344081.8434   21344087.1384
      3186.203        2482.756
    511433.277 9    394628.60848  21964166.654    21964168.6064   21964174.2424
     -1459.109       -1136.968
    217404.938 9    167634.09848  21556221.386    21556223.0354   21556227.3914
      -630.431        -491.245
   -549104.104 9   -418931.61747  23750705.183    23750707.1714   23750712.8294
      1369.785        1067.365
   -506038.109 9   -389382.18348  20874186.289    20874188.1674   20874193.4034
      1290.440        1005.538
 96 11  5 16 34  0.0000000  0  7 31  3  1 17 23  9 21                0.000235584
  -1230907.431 9   -944467.13247  23513890.266    23513892.0584   23513897.2054
      2975.427        2318.515
   -382030.884 9   -294415.87648  21447745.115    21447747.2434   21447752.1344
       793.526         618.332
  -1206194.063 9   -922975.38348  21325937.179    21325938.9724   21325944.2634
      3169.654        2469.860
    555411.757 9    428897.52048  21972535.599    21972537.4974   21972543.1104
     -1473.022       -1147.809
    236439.010 9    182465.82348  21559843.419    21559845.1184   21559849.4634
      -638.661        -497.658
   -589916.323 9   -450733.32147  23742939.190    23742941.0634   23742946.5924
      1350.952        1052.690
   -544617.710 9   -419444.20748  20866844.887    20866846.7154   20866851.9634
      1281.564         998.621
 96 11  5 16 34 30.0000000  0  7 31  3  1 17 23  9 21                0.000220440
  -1319908.715 9  -1013818.80647  23496953.839    23496955.7444   23496960.8654
      2957.768        2304.754
   -405487.831 9   -312694.04048  21443281.468    21443283.5724   21443288.4574
       770.322         600.251
  -1301034.950 9   -996877.36748  21307889.587    21307891.3874   21307896.6814
      3152.805        2456.731
    599798.713 9    463484.72248  21980982.189    21980984.1164   21980989.7334
     -1486.251       -1158.118
    255711.320 9    197483.18348  21563510.860    21563512.5504   21563516.8994
      -646.177        -503.514
   -630167.888 9   -482098.13447  23735279.621    23735281.5174   23735286.9324
      1332.211        1038.086
   -582959.280 9   -449320.75348  20859548.763    20859550.5554   20859555.8234
      1274.428         993.061
 96 11  5 16 35  0.0000000  0  7 31  3  1 17 23  9 21                0.000205390
  -1408368.285 9  -1082748.31046  23480120.386    23480122.3114   23480127.5104
      2939.046        2290.166
   -428253.932 9   -330433.87848  21438949.282    21438951.3704   21438956.2674
       746.980         582.062
  -1395357.181 9  -1070375.19948  21289940.667    21289942.5014   21289947.7704
      3134.910        2442.787
    644583.047 9    498381.56448  21989504.402    21989506.3504   21989511.9814
     -1499.628       -1168.541
    275205.478 9    212673.41348  21567220.376    21567222.1664   21567226.5484
      -653.714        -509.388
   -669848.458 9   -513018.04247  23727728.585    23727730.7104   23727735.9654
      1312.796        1022.958
   -621088.506 9   -479031.84248  20852292.930    20852294.8074   20852300.0554
      1267.005         987.277
 96 11  5 16 35 30.0000000  0  7 31  3  1 17 23  9 21                0.000190444
  -1496261.109 9  -1151236.22847  23463395.129    23463397.0324   23463402.1914
      2920.218        2275.495
   -450323.095 9   -347630.64648  21434749.696    21434751.7964   21434756.6994
       724.279         564.373
  -1489131.069 9  -1143445.74848  21272095.988    21272097.9454   21272103.1784
      3116.565        2428.492
    689765.466 9    533588.61048  21998102.408    21998104.3464   21998110.0074
     -1512.592       -1178.643
    294917.798 9    228033.63748  21570971.547    21570973.3444   21570977.7474
      -660.508        -514.682
   -708945.486 9   -543483.22347  23720288.968    23720290.9114   23720296.0014
      1293.542        1007.955
   -658978.234 9   -508556.30548  20845082.594    20845084.6114   20845089.8964
      1258.806         980.888
 96 11  5 16 36  0.0000000  0  7 31  3  1 17 23  9 21                0.000175599
  -1583568.192 9  -1219267.75047  23446781.252    23446783.1614   23446788.1934
      2899.849        2259.622
   -471711.995 9   -364297.34148  21430679.440    21430681.6774   21430686.5944
       701.329         546.490
  -1582340.019 9  -1216076.08748  21254358.941    21254360.8834   21254366.1094
      3097.115        2413.336
    735349.595 9    569108.67748  22006776.833    22006778.7874   22006784.4284
     -1526.992       -1189.864
    314834.490 9    243553.11748  21574761.726    21574763.3934   21574767.8064
      -667.710        -520.293
   -747447.032 9   -573484.38947  23712961.954    23712964.1664   23712969.3954
      1272.555         991.601
   -696609.567 9   -537879.42148  20837921.781    20837923.6044   20837928.9024
      1249.300         973.481
 96 11  5 16 36 30.0000000  0  7 31  3  1 17 23  9 21                0.000160864
  -1670271.046 9  -1286828.39046  23430282.206    23430284.0144   23430289.1824
      2880.904        2244.860
   -492423.164 9   -380435.93048  21426738.274    21426740.5134   21426745.4314
       679.635         529.586
  -1674977.058 9  -1288260.78148  21236730.828    21236732.6684   21236737.8724
      3079.310        2399.462
    781369.086 9    604967.99248  22015533.858    22015536.0244   22015541.6984
     -1540.367       -1200.286
    334959.669 9    259235.05148  21578591.226    21578593.0914   21578597.5514
      -673.521        -524.822
   -785309.841 9   -602987.85047  23705756.618    23705758.9854   23705764.2964
      1252.033         975.610
   -733934.814 9   -566964.03448  20830818.962    20830820.8544   20830826.1334
      1239.218         965.624
 96 11  5 16 37  0.0000000  0  7 31  3  1 17 23  9 21                0.000146187
  -1756415.196 9  -1353953.70146  23413889.616    23413891.3714   23413896.5284
      2862.237        2230.314
   -512455.798 9   -396045.79348  21422926.189    21422928.4664   21422933.4004
       655.906         511.096
  -1767083.881 9  -1360032.31848  21219203.527    21219205.3504   21219210.5604
      3061.405        2385.510
    827797.801 9    641146.18148  22024369.054    22024371.1654   22024376.8454
     -1554.801       -1211.533
    355261.388 9    275054.55148  21582454.619    21582456.4194   21582460.8904
      -679.933        -529.818
   -822550.013 9   -632006.13346  23698670.302    23698672.4274   23698677.7654
      1230.947         959.179
   -770925.006 9   -595787.56248  20823780.074    20823781.8904   20823787.1474
      1226.951         956.066
 96 11  5 16 37 30.0000000  0  7 31  3  1 17 23  9 21                0.000131552
  -1842007.877 9  -1420649.33647  23397601.729    23397603.7374   23397608.7394
      2843.690        2215.862
   -531777.602 9   -411101.76248  21419249.351    21419251.6804   21419256.6194
       631.982         492.454
  -1858665.692 9  -1431394.75148  21201776.059    21201777.9184   21201783.1434
      3043.873        2371.849
    874666.025 9    677666.84648  22033287.936    22033289.9424   22033295.6484
     -1569.954       -1223.341
    375753.595 9    291022.48548  21586354.026    21586355.9744   21586360.4844
      -686.580        -534.997
   -859175.409 9   -660545.36347  23691700.767    23691702.8034   23691708.0874
      1210.492         943.240
   -807550.223 9   -624326.69448  20816810.605    20816812.3644   20816817.6004
      1214.683         946.506
 96 11  5 16 38  0.0000000  0  7 31  3  1 17 23  9 21                0.000116957
  -1927051.789 9  -1486917.29947  23381418.118    23381420.3334   23381425.4964
      2825.761        2201.892
   -550377.340 9   -425595.07948  21415709.888    21415712.2744   21415717.2214
       607.922         473.705
  -1949735.199 9  -1502357.98848  21184446.049    21184447.9754   21184453.2124
      3027.265        2358.908
    921988.221 9    714541.25348  22042293.099    22042295.0824   22042300.8254
     -1584.994       -1235.060
    396447.057 9    307147.24048  21590291.912    21590293.8494   21590298.3794
      -693.247        -540.192
   -895192.983 9   -688610.97646  23684846.883    23684848.8234   23684854.0504
      1190.659         927.786
   -843815.177 9   -652585.10348  20809909.637    20809911.4054   20809916.6164
      1202.823         937.265
 96 11  5 16 38 30.0000000  0  7 31  3  1 17 23  9 21                0.000102370
  -2011576.497 9  -1552780.70847  23365333.649    23365335.8224   23365340.9554
      2808.330        2188.309
   -568270.328 9   -439537.68248  21412304.893    21412307.3704   21412312.3094
       584.187         455.211
  -2040321.828 9  -1572944.95348  21167208.019    21167209.9124   21167215.1564
      3010.943        2346.189
    969736.553 9    751747.70948  22051379.348    22051381.3554   22051387.1044
     -1598.772       -1245.796
    417334.920 9    323423.48248  21594266.784    21594268.6864   21594273.2364
      -700.228        -545.632
   -930646.344 9   -716236.96346  23678100.024    23678102.1884   23678107.4104
      1172.281         913.466
   -879738.543 9   -680577.34148  20803073.649    20803075.4504   20803080.6314
      1191.575         928.500
 96 11  5 16 39  0.0000000  0  7 31  3  1 17 23  9 21                0.000087785
  -2095582.688 9  -1618240.10247  23349348.003    23349350.1044   23349355.2234
      2791.155        2174.926
   -585465.231 9   -452936.32848  21409032.917    21409035.3094   21409040.2464
       561.750         437.727
  -2130418.643 9  -1643150.25148  21150063.104    21150065.0654   21150070.3104
      2994.814        2333.621
   1017889.490 9    789269.43148  22060542.654    22060544.5904   22060550.3214
     -1611.995       -1256.100
    438440.256 9    339869.18148  21598283.085    21598284.9024   21598289.4714
      -707.482        -551.285
   -965561.111 9   -743443.24346  23671455.729    23671458.0174   23671463.3154
      1154.729         899.789
   -915348.638 9   -708325.47648  20796297.247    20796299.0784   20796304.2524
      1182.150         921.156
 96 11  5 16 39 30.0000000  0  7 31  3  1 17 23  9 21                0.000073219
  -2179043.025 9  -1683274.12647  23333465.771    23333468.0004   23333473.1514
      2772.670        2160.522
   -601994.444 9   -465816.26048  21405887.562    21405889.8964   21405894.8414
       540.129         420.880
  -2220018.058 9  -1712967.96448  21133012.937    21133014.8714   21133020.1104
      2978.270        2320.730
   1066442.903 9    827103.22648  22069782.019    22069784.0354   22069789.7954
     -1624.847       -1266.115
    459781.204 9    356498.47248  21602344.127    21602346.0114   21602350.5724
      -715.279        -557.360
   -999936.542 9   -770229.27147  23664914.491    23664916.5584   23664921.9744
      1136.698         885.739
   -950678.724 9   -735855.42448  20789574.331    20789576.0444   20789581.1544
      1173.079         914.088
 96 11  5 16 40  0.0000000  0  7 31  3  1 17 23  9 21                0.000058685
  -2261942.576 9  -1747871.18947  23317690.677    23317692.8534   23317698.0134
      2753.610        2145.670
   -617871.647 9   -478188.13148  21402866.244    21402868.6014   21402873.5394
       518.184         403.780
  -2309105.311 9  -1782386.58948  21116060.179    21116062.1364   21116067.3734
      2960.632        2306.986
   1115378.340 9    865234.68848  22079094.204    22079096.1624   22079101.9194
     -1637.648       -1276.089
    481362.047 9    373314.69448  21606450.647    21606452.7434   21606457.3024
      -723.577        -563.826
  -1033756.204 9   -796582.25046  23658478.721    23658480.7744   23658486.3644
      1117.751         870.975
   -985738.565 9   -763174.78748  20782902.607    20782904.4254   20782909.4924
      1164.019         907.028
 96 11  5 16 40 30.0000000  0  7 31  3  1 17 23  9 21                0.000044203
  -2344249.892 9  -1812006.78347  23302028.178    23302030.3544   23302035.4074
      2733.773        2130.213
   -633081.056 9   -490039.64648  21399971.929    21399974.3724   21399979.2894
       496.020         386.509
  -2397641.685 9  -1851375.95848  21099212.349    21099214.2344   21099219.4634
      2942.238        2292.653
   1164702.549 9    903669.09348  22088480.191    22088482.2544   22088488.0394
     -1650.355       -1285.991
    503204.306 9    390334.62048  21610607.125    21610609.2064   21610613.7834
      -732.018        -570.404
  -1066987.996 9   -822477.12947  23652154.254    23652156.8034   23652162.6264
      1097.846         855.464
  -1020515.586 9   -790273.77548  20776284.765    20776286.6194   20776291.6604
      1154.822         899.861
 96 11  5 16 41  0.0000000  0  7 31  3  1 17 23  9 21                0.000029791
  -2425959.806 9  -1875676.84247  23286479.204    23286481.4424   23286486.5414
      2713.579        2114.477
   -647622.709 9   -501370.83348  21397204.720    21397207.2344   21397212.1424
       473.468         368.936
  -2485632.442 9  -1919940.16948  21082468.239    21082470.1664   21082475.4254
      2924.006        2278.446
   1214410.171 9    942402.26248  22097939.183    22097941.3074   22097947.1234
     -1663.386       -1296.145
    525284.129 9    407539.66148  21614809.020    21614810.9034   21614815.4364
      -739.594        -576.307
  -1099608.223 9   -847895.49247  23645947.110    23645949.4994   23645955.0794
      1076.982         839.207
  -1055013.247 9   -817155.07448  20769720.029    20769721.9424   20769726.9894
      1145.104         892.289
 96 11  5 16 41 30.0000000  0  7 31  3  1 17 23  9 21                0.000015459
  -2507065.661 9  -1938876.21147  23271045.403    23271047.5014   23271052.6744
      2693.256        2098.641
   -661478.017 9   -512167.20548  21394568.153    21394570.6974   21394575.5974
       449.684         350.403
  -2573079.983 9  -1988081.09648  21065827.395    21065829.4514   21065834.7154
      2905.401        2263.949
   1264503.985 9    981436.35548  22107471.770    22107473.8614   22107479.6904
     -1676.672       -1306.498
    547574.322 9    424908.62748  21619050.722    21619052.6084   21619057.1344
      -746.594        -581.762
  -1131609.356 9   -872831.42247  23639857.766    23639859.9644   23639865.3784
      1056.151         822.975
  -1089221.827 9   -843811.11448  20763210.377    20763212.2924   20763217.3424
      1135.050         884.455
 96 11  5 16 42  0.0000000  0  7 31  3  1 17 23  9 21                0.000001218
  -2587571.416 9  -2001607.96447  23255725.806    23255727.7894   23255733.0074
      2673.383        2083.156
   -674602.464 9   -522394.07848  21392070.827    21392073.2524   21392078.1504
       424.934         331.117
  -2659961.936 9  -2055781.30948  21049294.339    21049296.3674   21049301.6194
      2886.447        2249.179
   1315003.307 9   1020786.44148  22117081.565    22117083.5994   22117089.4234
     -1690.368       -1317.170
    570063.936 9    442432.98348  21623330.365    21623332.2694   21623336.7994
      -753.157        -586.875
  -1162979.975 9   -897276.06847  23633888.229    23633890.5114   23633895.8454
      1034.911         806.424
  -1123126.811 9   -870230.58948  20756758.542    20756760.4024   20756765.4464
      1124.872         876.524
 96 11  5 16 42 30.0000000  0  7 31  3  1 17 23  9 21               -0.000012938
  -2667485.378 9  -2063878.60547  23240518.851    23240520.7964   23240525.8834
      2654.397        2068.361
   -686989.130 9   -532046.05548  21389713.588    21389716.1894   21389721.0954
       401.025         312.487
  -2746285.543 9  -2123046.44848  21032867.624    21032869.5574   21032874.7674
      2868.569        2235.249
   1365908.816 9   1060453.02647  22126768.725    22126770.6594   22126776.4904
     -1703.371       -1327.302
    592747.304 9    460108.31948  21627646.770    21627648.7884   21627653.3144
      -759.004        -591.432
  -1193716.667 9   -921226.73847  23628039.159    23628041.6064   23628046.7304
      1014.343         790.397
  -1156723.089 9   -896409.52248  20750365.442    20750367.2824   20750372.3244
      1114.985         868.819
 96 11  5 16 42 59.9990000  0  7 31  3  1 17 23  9 21               -0.000027015
  -2746814.043 9  -2125693.16047  23225422.957    23225425.0734   23225430.1724
      2634.864        2053.141
   -698641.834 9   -541126.11348  21387496.150    21387498.7884   21387503.6964
       376.501         293.377
  -2832054.572 9  -2189879.44448  21016546.277    21016548.2684   21016553.4644
      2850.076        2220.838
   1417229.608 9   1100443.21348  22136534.713    22136536.7154   22136542.5764
     -1717.472       -1338.290
    615628.199 9    477937.57348  21632000.953    21632002.8894   21632007.4164
      -765.977        -596.865
  -1223820.053 9   -944683.92647  23622311.111    23622313.2494   23622318.2114
       993.386         774.067
  -1190005.245 9   -922343.67948  20744031.934    20744033.9124   20744038.9564
      1104.497         860.647
 96 11  5 16 43 29.9990000  0  7 31  3  1 17 23  9 21               -0.000041030
  -2825575.477 9  -2187065.70847  23210435.099    23210437.2764   23210442.4084
      2616.054        2038.484
   -709578.860 9   -549648.50548  21385415.002    21385417.5814   21385422.4894
       352.859         274.955
  -2917284.709 9  -2256292.52148  21000327.507    21000329.4804   21000334.7144
      2832.016        2206.766
   1468958.761 9   1140751.60448  22146378.374    22146380.4944   22146386.3654
     -1730.916       -1348.766
    638709.015 9    495922.60448  21636393.130    21636395.0144   21636399.5764
      -772.693        -602.098
  -1253314.523 9   -967666.62847  23616698.297    23616700.6394   23616705.6744
       972.937         758.133
  -1222992.379 9   -948047.95048  20737754.654    20737756.6774   20737761.7184
      1094.579         852.919
 96 11  5 16 43 59.9990000  0  7 31  3  1 17 23  9 21               -0.000055006
  -2903783.361 9  -2248006.92547  23195552.710    23195554.9374   23195559.9494
      2597.591        2024.097
   -719834.010 9   -557639.56348  21383463.462    21383466.1244   21383471.0314
       330.970         257.899
  -3001988.137 9  -2322295.18048  20984209.017    20984210.9414   20984216.1904
      2814.774        2193.330
   1521073.798 9   1181360.68747  22156295.563    22156297.7084   22156303.5704
     -1743.556       -1358.615
    661984.680 9    514059.46348  21640822.169    21640824.2534   21640828.7904
      -779.324        -607.265
  -1282200.339 9   -990175.06946  23611201.856    23611203.8484   23611208.8484
       952.588         742.276
  -1255683.083 9   -973521.23848  20731533.841    20731535.8244   20731540.8834
      1084.696         845.218
 96 11  5 16 44 29.9990000  0  7 31  3  1 17 23  9 21               -0.000068961
  -2981436.794 9  -2308516.09847  23180775.747    23180777.9524   23180782.9944
      2579.070        2009.665
   -729451.743 9   -565133.92748  21381633.425    21381635.9614   21381640.9104
       310.120         241.652
  -3086176.231 9  -2387896.27548  20968188.462    20968190.4794   20968195.7334
      2797.642        2179.981
   1573568.390 9   1222265.53647  22166285.192    22166287.1554   22166293.0614
     -1756.351       -1368.585
    685466.396 9    532356.89048  21645290.714    21645292.7194   21645297.2494
      -786.180        -612.608
  -1310478.380 9  -1012209.90647  23605820.525    23605822.6294   23605827.6884
       932.558         726.668
  -1288077.831 9   -998763.91748  20725369.290    20725371.3104   20725376.3734
      1074.865         837.557
 96 11  5 16 44 59.9990000  0  7 31  3  1 17 23  9 21               -0.000082888
  -3058523.270 9  -2368583.48947  23166106.727    23166108.9484   23166113.9614
      2560.039        1994.836
   -738438.003 9   -572136.23548  21379923.470    21379925.9674   21379930.9184
       289.099         225.272
  -3169843.714 9  -2453091.70048  20952267.106    20952269.1134   20952274.3444
      2780.334        2166.494
   1626468.242 9   1263486.17447  22176351.811    22176353.6994   22176359.6014
     -1770.066       -1379.272
    709157.263 9    550817.29248  21649798.890    21649800.9824   21649805.5024
      -792.942        -617.877
  -1338151.945 9  -1033773.72847  23600553.955    23600556.3994   23600561.5074
       912.466         711.012
  -1320172.139 9  -1023772.48348  20719261.856    20719263.9824   20719269.0304
      1064.848         829.752
 96 11  5 16 45 29.9990000  0  7 31  3  1 17 23  9 21               -0.000096783
  -3135037.593 9  -2428205.02547  23151546.584    23151548.6914   23151553.7844
      2541.069        1980.054
   -746798.989 9   -578651.31648  21378332.445    21378334.9444   21378339.8924
       268.344         209.099
  -3252986.290 9  -2517878.11248  20936445.456    20936447.5914   20936452.8404
      2762.596        2152.672
   1679772.316 9   1305021.78147  22186495.310    22186497.1684   22186503.0824
     -1783.316       -1389.597
    733037.574 9    569425.31148  21654343.374    21654345.2954   21654349.7964
      -798.995        -622.594
  -1365221.134 9  -1054866.61047  23595402.642    23595405.2724   23595410.3184
       892.332         695.324
  -1351969.522 9  -1048549.68148  20713211.032    20713213.1394   20713218.1944
      1055.165         822.206
 96 11  5 16 45 59.9990000  0  7 31  3  1 17 23  9 21               -0.000110628
  -3210972.812 9  -2487375.38047  23137096.658    23137098.9024   23137103.6424
      2521.344        1964.684
   -754524.101 9   -584670.91148  21376862.394    21376864.9594   21376869.8894
       246.702         192.235
  -3335578.402 9  -2582235.58448  20920728.712    20920730.8244   20920736.0414
      2743.658        2137.915
   1733493.531 9   1346882.43147  22196717.961    22196720.0214   22196725.9644
     -1797.947       -1400.998
    757116.118 9    588187.79648  21658925.190    21658927.3224   21658931.8284
      -806.085        -628.118
  -1391674.840 9  -1075479.88347  23590368.956    23590371.5154   23590376.0974
       871.454         679.055
  -1383476.204 9  -1073100.35548  20707215.397    20707217.6474   20707222.7164
      1045.533         814.701
 96 11  5 16 46 29.9990000  0  7 31  3  1 17 23  9 21               -0.000124404
  -3286318.183 9  -2546086.03247  23122758.857    23122761.0404   23122766.0354
      2501.338        1949.095
   -761584.900 9   -590172.85548  21375518.846    21375521.3684   21375526.2944
       223.493         174.150
  -3417601.312 9  -2646149.52148  20905120.279    20905122.3924   20905127.6004
      2724.358        2122.876
   1787648.565 9   1389081.12047  22207023.329    22207025.4194   22207031.3784
     -1812.535       -1412.365
    781399.470 9    607109.86748  21663546.201    21663548.3144   21663552.8284
      -813.081        -633.570
  -1417512.227 9  -1095612.91047  23585452.493    23585454.9674   23585459.1814
       850.848         662.998
  -1414702.539 9  -1097432.57748  20701273.278    20701275.5264   20701280.5894
      1035.827         807.138
 96 11  5 16 46 59.9990000  0  7 31  3  1 17 23  9 21               -0.000138108
  -3361073.100 9  -2604336.63847  23108533.528    23108535.7754   23108540.6554
      2481.881        1933.933
   -767956.574 9   -595137.82648  21374306.359    21374308.8984   21374313.8634
       200.832         156.492
  -3499069.891 9  -2709631.51348  20889617.292    20889619.4104   20889624.6654
      2706.510        2108.969
   1842211.809 9   1431597.89447  22217406.498    22217408.4884   22217414.4504
     -1825.000       -1422.078
    805866.539 9    626175.09348  21668202.116    21668204.2814   21668208.7744
      -818.416        -637.727
  -1442753.638 9  -1115281.53847  23580649.458    23580651.8024   23580655.9174
       831.493         647.917
  -1445655.327 9  -1121551.65648  20695383.139    20695385.4104   20695390.4534
      1027.213         800.426
 96 11  5 16 47 29.9990000  0  7 31  3  1 17 23  9 21               -0.000151748
  -3435227.459 9  -2662119.25747  23094422.286    23094424.5684   23094429.4894
      2461.526        1918.072
   -773622.610 9   -599552.94448  21373228.252    21373230.7004   21373235.6884
       176.758         137.734
  -3579981.729 9  -2772679.67848  20874220.258    20874222.3774   20874227.6374
      2687.525        2094.175
   1897153.886 9   1474409.86247  22227861.539    22227863.6274   22227869.5754
     -1837.880       -1432.114
    830518.371 9    645384.29748  21672893.142    21672895.4244   21672899.8994
      -825.363        -643.140
  -1467395.021 9  -1134482.61547  23575960.104    23575962.6094   23575966.8914
       811.126         632.046
  -1476326.585 9  -1145451.35448  20689546.708    20689548.8754   20689553.9284
      1017.418         792.793
 96 11  5 16 47 59.9990000  0  7 31  3  1 17 23  9 21               -0.000165323
  -3508776.979 9  -2719430.58047  23080426.413    23080428.6274   23080433.5954
      2441.848        1902.739
   -778574.767 9   -603411.78948  21372285.999    21372288.3804   21372293.3744
       153.642         119.721
  -3660339.163 9  -2835295.84548  20858928.752    20858930.8734   20858936.0964
      2669.792        2080.357
   1952484.090 9   1517524.26747  22238390.476    22238392.6334   22238398.5954
     -1850.484       -1441.936
    855381.390 9    664758.05348  21677624.518    21677626.7224   21677631.2264
      -831.924        -648.252
  -1491436.748 9  -1153216.42047  23571384.516    23571387.5564   23571392.1624
       791.778         616.970
  -1506709.139 9  -1169126.08248  20683765.118    20683767.2854   20683772.3344
      1008.020         785.470
 96 11  5 16 48 29.9990000  0  7 31  3  1 17 23  9 21               -0.000178851
  -3581720.451 9  -2776269.66747  23066545.680    23066547.9124   23066552.8624
      2421.557        1886.928
   -782830.257 9   -606727.77548  21371476.212    21371478.6074   21371483.6094
       130.757         101.889
  -3740159.291 9  -2897493.33348  20843739.519    20843741.5834   20843746.8164
      2652.135        2066.599
   2008197.651 9   1560937.39047  22248992.523    22248994.5934   22249000.5594
     -1863.226       -1451.864
    880447.618 9    684290.15448  21682394.520    21682396.7024   21682401.1964
      -838.742        -653.565
  -1514889.366 9  -1171491.18747  23566921.873    23566924.5824   23566929.4644
       772.211         601.723
  -1536785.259 9  -1192562.03148  20678041.884    20678044.0234   20678049.0554
       997.635         777.378
 96 11  5 16 48 59.9990000  0  7 31  3  1 17 23  9 21               -0.000192347
  -3654068.731 9  -2832644.94247  23052778.327    23052780.5364   23052785.5764
      2401.604        1871.380
   -786427.059 9   -609530.49248  21370791.592    21370794.1744   21370799.1704
       109.122          85.030
  -3819458.023 9  -2959284.53348  20828649.446    20828651.5194   20828656.7514
      2634.341        2052.733
   2064289.651 9   1604645.40347  22259666.515    22259668.5824   22259674.5584
     -1876.350       -1462.091
    905713.953 9    703978.18848  21687202.547    21687204.7314   21687209.2634
      -845.681        -658.972
  -1537759.898 9  -1189312.36347  23562570.016    23562572.4194   23562577.4004
       752.448         586.323
  -1566561.451 9  -1215764.27248  20672375.540    20672377.8054   20672382.8444
       987.504         769.484
 96 11  5 16 49 29.9990000  0  7 31  3  1 17 23  9 21               -0.000205809
  -3725826.141 9  -2888559.82047  23039123.475    23039125.5064   23039130.4914
      2381.986        1856.093
   -789385.385 9   -611835.69648  21370228.742    21370231.2924   21370236.2754
        87.828          68.437
  -3898220.189 9  -3020657.63348  20813661.448    20813663.5744   20813668.7964
      2616.168        2038.572
   2120781.593 9   1648665.05247  22270416.756    22270418.6684   22270424.6384
     -1890.107       -1472.811
    931190.757 9    723830.22348  21692050.828    21692052.8534   21692057.3794
      -852.993        -664.670
  -1560038.502 9  -1206672.29247  23558330.167    23558332.8064   23558338.1554
       732.533         570.805
  -1596048.159 9  -1238740.93648  20666764.421    20666766.6864   20666771.7324
       978.147         762.192
 96 11  5 16 49 59.9990000  0  7 31  3  1 17 23  9 21               -0.000219224
  -3796999.922 9  -2944019.92047  23025579.574    23025581.6044   23025586.5474
      2362.662        1841.035
   -791702.404 9   -613641.18048  21369787.941    21369790.3864   21369795.3884
        66.582          51.882
  -3976430.818 9  -3081600.96448  20798778.475    20798780.6074   20798785.8114
      2597.861        2024.307
   2177689.766 9   1693009.05347  22281246.017    22281247.9794   22281253.9424
     -1903.524       -1483.265
    956876.314 9    743844.92248  21696938.656    21696940.6694   21696945.2054
      -859.323        -669.602
  -1581714.832 9  -1223562.93047  23554204.900    23554207.8804   23554213.5204
       712.523         555.213
  -1625255.524 9  -1261499.92748  20661206.420    20661208.7154   20661213.7864
       968.876         754.968
 96 11  5 16 50 29.9990000  0  7 31  3  1 17 23  9 21               -0.000232592
  -3867584.178 9  -2999020.64647  23012147.750    23012149.9094   23012155.0374
      2343.153        1825.834
   -793371.614 9   -614941.87348  21369470.242    21369472.7294   21369477.7504
        44.780          34.894
  -4054088.542 9  -3142113.45948  20784000.697    20784002.8454   20784008.0424
      2579.556        2010.044
   2234989.715 9   1737658.32647  22292149.759    22292151.8194   22292157.7734
     -1916.256       -1493.186
    982754.176 9    764009.47348  21701862.990    21701865.0784   21701869.6384
      -865.664        -674.543
  -1602783.674 9  -1239980.17447  23550195.940    23550198.6174   23550204.2274
       692.343         539.488
  -1654182.344 9  -1284040.31548  20655701.847    20655704.1264   20655709.1954
       959.910         747.982
 96 11  5 16 50 59.9990000  0  7 31  3  1 17 23  9 21               -0.000245907
  -3937587.545 9  -3053568.73247  22998826.479    22998828.6894   22998833.7604
      2323.816        1810.766
   -794372.367 9   -615721.69248  21369279.643    21369282.3034   21369287.3154
        21.997          17.140
  -4131192.967 9  -3202194.82248  20769328.181    20769330.3834   20769335.5334
      2560.909        1995.514
   2292666.151 9   1782600.95447  22303125.282    22303127.3054   22303133.2554
     -1928.645       -1502.840
   1008817.839 9    784318.80248  21706822.813    21706824.8674   21706829.4424
      -871.627        -679.190
  -1623245.078 9  -1255924.10447  23546302.264    23546304.9514   23546310.6144
       672.003         523.639
  -1682846.390 9  -1306375.94148  20650247.252    20650249.5434   20650254.6104
       951.238         741.224
 96 11  5 16 51 29.9990000  0  7 31  3  1 17 23  9 21               -0.000259158
  -4007013.206 9  -3107666.67047  22985615.208    22985617.4444   22985622.5294
      2304.303        1795.561
   -794678.582 9   -615960.31448  21369221.287    21369224.0434   21369229.0584
        -1.690          -1.317
  -4207739.654 9  -3261841.57548  20754761.730    20754764.0254   20754769.1974
      2542.039        1980.810
   2350703.229 9   1827824.61747  22314169.186    22314171.3914   22314177.3964
     -1940.686       -1512.223
   1035053.387 9    804762.07248  21711815.226    21711817.3304   21711821.9284
      -877.527        -683.787
  -1643095.815 9  -1271392.18447  23542524.468    23542527.4574   23542533.2974
       651.168         507.404
  -1711257.917 9  -1328514.79548  20644840.803    20644843.0234   20644848.0774
       942.524         734.434
 96 11  5 16 51 59.9990000  0  7 31  3  1 17 23  9 21               -0.000272376
  -4075892.136 9  -3161338.57247  22972508.226    22972510.3274   22972515.2854
      2286.828        1781.944
   -794322.469 9   -615682.83248  21369289.085    21369291.8354   21369296.8404
       -22.445         -17.490
  -4283757.059 9  -3321075.90248  20740296.120    20740298.3994   20740303.5804
      2525.159        1967.656
   2409058.555 9   1873296.27047  22325273.732    22325276.0824   22325282.1254
     -1950.287       -1519.704
   1061423.274 9    825310.01848  21716833.183    21716835.3614   21716839.9834
      -881.164        -686.621
  -1662364.150 9  -1286406.46847  23538857.759    23538860.8334   23538866.7754
       632.746         493.049
  -1739435.033 9  -1350470.99148  20639478.918    20639481.1274   20639486.1744
       935.292         728.799
 96 11  5 16 52 29.9990000  0  7 31  3  1 17 23  9 21               -0.000285577
  -4144221.149 9  -3214581.95847  22959505.403    22959507.6584   22959512.7554
      2268.213        1767.439
   -793328.755 9   -614908.52348  21369478.197    21369480.9474   21369485.9534
       -43.984         -34.273
  -4359244.165 9  -3379897.01248  20725931.356    20725933.6634   20725938.8384
      2506.917        1953.442
   2467724.890 9   1919010.26547  22336437.647    22336439.9784   22336446.0144
     -1961.313       -1528.296
   1087938.634 9    845971.31448  21721878.905    21721881.0734   21721885.7144
      -886.858        -691.058
  -1681055.647 9  -1300971.25047  23535301.196    23535304.0924   23535309.8374
       613.106         477.745
  -1767374.069 9  -1372241.66948  20634162.311    20634164.5134   20634169.5464
       927.091         722.409
 96 11  5 16 52 59.9990000  0  7 31  3  1 17 23  9 21               -0.000298742
  -4211974.555 9  -3267376.84747  22946612.446    22946614.6704   22946619.7834
      2248.882        1752.376
   -791678.678 9   -613622.76748  21369792.226    21369794.9494   21369799.9694
       -65.389         -50.952
  -4434155.970 9  -3438269.83648  20711676.094    20711678.4074   20711683.5764
      2487.800        1938.545
   2526750.073 9   1965003.88847  22347669.804    22347672.1654   22347678.1644
     -1973.318       -1537.650
   1114640.559 9    866777.98548  21726960.145    21726962.3134   21726966.9624
      -892.744        -695.645
  -1699137.408 9  -1315060.92347  23531860.438    23531863.3974   23531868.8594
       592.771         461.899
  -1795049.181 9  -1393806.69448  20628895.871    20628898.1274   20628903.1264
       918.363         715.608
 96 11  5 16 53 29.9990000  0  7 31  3  1 17 23  9 21               -0.000311883
  -4279151.407 9  -3319722.46747  22933829.205    22933831.4064   22933836.4144
      2229.561        1737.320
   -789419.998 9   -611862.77248  21370222.065    21370224.8014   21370229.8054
       -85.015         -66.245
  -4508515.934 9  -3496212.65048  20697525.936    20697528.1754   20697533.3354
      2469.678        1924.424
   2586124.058 9   2011269.29247  22358968.349    22358970.7114   22358976.7344
     -1984.865       -1546.648
   1141506.070 9    887712.12848  21732072.452    21732074.6904   21732079.3424
      -898.124        -699.837
  -1716625.120 9  -1328687.70347  23528532.547    23528535.5554   23528540.9174
       573.210         446.657
  -1822472.430 9  -1415175.46148  20623677.445    20623679.6754   20623684.6474
       909.858         708.980
 96 11  5 16 53 59.9990000  0  7 31  3  1 17 23  9 21               -0.000325008
  -4345739.376 9  -3371609.19847  22921157.959    22921160.1584   22921165.2104
      2209.789        1721.914
   -786577.657 9   -609647.97648  21370762.901    21370765.7254   21370770.7354
      -104.504         -81.432
  -4582332.402 9  -3553731.96648  20683479.089    20683481.3624   20683486.5064
      2451.639        1910.368
   2645848.851 9   2057808.06247  22370333.690    22370335.9794   22370342.0214
     -1996.638       -1555.822
   1168535.349 9    908773.88048  21737215.978    21737218.2134   21737222.8544
      -903.757        -704.226
  -1733524.381 9  -1341855.96747  23525316.847    23525319.8644   23525325.0784
       553.533         431.324
  -1849633.680 9  -1436340.07648  20618508.925    20618511.0724   20618516.0164
       901.231         702.258
 96 11  5 16 54 29.9990000  0  7 31  3  1 17 23  9 21               -0.000338097
  -4411726.967 9  -3423028.12347  22908600.833    22908603.1024   22908608.2554
      2189.331        1705.972
   -783132.268 9   -606963.27948  21371418.599    21371421.3634   21371426.3814
      -125.395         -97.710
  -4655612.470 9  -3610833.30948  20669534.377    20669536.6274   20669541.7424
      2433.686        1896.379
   2705939.180 9   2104631.65247  22381768.786    22381770.8284   22381776.8554
     -2009.380       -1565.751
   1195743.147 9    929974.73748  21742393.484    21742395.7214   21742400.3574
      -909.973        -709.070
  -1749829.640 9  -1354561.37647  23522214.508    23522217.0904   23522222.0864
       533.483         415.701
  -1876536.707 9  -1457303.47548  20613389.426    20613391.6224   20613396.5264
       892.235         695.248
 96 11  5 16 54 59.9990000  0  7 31  3  1 17 23  9 21               -0.000351141
  -4477112.396 9  -3473977.83747  22896158.324    22896160.7324   22896165.8954
      2169.267        1690.338
   -779067.435 9   -603795.89048  21372192.146    21372194.8564   21372199.9014
      -145.899        -113.688
  -4728375.054 9  -3667531.41948  20655688.117    20655690.3834   20655695.4804
      2416.958        1883.344
   2766400.583 9   2151744.39047  22393274.222    22393276.2824   22393282.3444
     -2021.581       -1575.258
   1223103.032 9    951294.10348  21747599.865    21747602.1344   21747606.7944
      -914.341        -712.474
  -1765546.606 9  -1366808.37347  23519223.475    23519226.1874   23519231.0654
       514.014         400.530
  -1903178.018 9  -1478062.94548  20608319.842    20608321.9604   20608326.8214
       883.436         688.392
 96 11  5 16 55 29.9990000  0  7 31  3  1 17 23  9 21               -0.000364149
  -4541898.224 9  -3524460.30147  22883829.762    22883832.2764   22883837.5294
      2148.348        1674.037
   -774382.495 9   -600145.30648  21373083.564    21373086.3644   21373091.4254
      -168.099        -130.986
  -4800632.759 9  -3723836.11248  20641937.985    20641940.2054   20641945.2994
      2398.580        1869.023
   2827226.260 9   2199140.99047  22404848.866    22404851.0794   22404857.1284
     -2034.941       -1585.668
   1250604.245 9    972723.59148  21752833.217    21752835.4464   21752840.1264
      -920.643        -717.384
  -1780677.648 9  -1378598.80247  23516344.328    23516346.9614   23516351.6834
       493.151         384.274
  -1929542.067 9  -1498606.36248  20603302.948    20603305.1004   20603309.9454
       872.748         680.063
 96 11  5 16 55 59.9990000  0  7 31  3  1 17 23  9 21               -0.000377105
  -4606078.538 9  -3574470.95247  22871616.987    22871619.3174   22871624.4544
      2129.932        1659.687
   -769029.632 9   -595974.26248  21374102.263    21374104.9874   21374110.0684
      -189.019        -147.287
  -4872341.211 9  -3779712.81948  20628292.277    20628294.5104   20628299.6084
      2381.714        1855.881
   2888448.771 9   2246846.79647  22416499.190    22416501.3814   22416507.4044
     -2046.824       -1594.928
   1278289.519 9    994296.50448  21758101.740    21758103.8014   21758108.5024
      -925.561        -721.216
  -1795186.502 9  -1389904.42747  23513583.601    23513586.0534   23513590.7564
       473.953         369.314
  -1955599.522 9  -1518910.88148  20598344.321    20598346.5394   20598351.3704
       864.139         673.355
 96 11  5 16 56 29.9990000  0  7 31  3  1 17 23  9 21               -0.000390049
  -4669709.434 9  -3624053.49347  22859508.448    22859510.6824   22859515.8804
      2111.717        1645.494
   -763051.075 9   -591315.67048  21375240.018    21375242.6904   21375247.7734
      -209.832        -163.505
  -4943547.106 9  -3835197.92248  20614742.164    20614744.4794   20614749.5524
      2364.843        1842.735
   2950022.998 9   2294826.67947  22428216.482    22428218.5804   22428224.5684
     -2058.265       -1603.843
   1306122.940 9   1015984.85848  21763398.298    21763400.3424   21763405.0684
      -930.242        -724.864
  -1809128.216 9  -1400768.14847  23510930.265    23510932.9404   23510937.8434
       455.146         354.659
  -1981396.863 9  -1539012.71048  20593435.149    20593437.4784   20593442.2984
       855.317         666.481
 96 11  5 16 56 59.9990000  0  7 31  3  1 17 23  9 21               -0.000402987
  -4732793.061 9  -3673209.59247  22847504.121    22847506.3804   22847511.5704
      2093.662        1631.425
   -756452.586 9   -586174.01048  21376495.743    21376498.3714   21376503.4604
      -230.025        -179.240
  -5014236.790 9  -3890280.78248  20601290.277    20601292.7084   20601297.7414
      2347.708        1829.383
   3011933.751 9   2343068.79147  22439997.673    22439999.8204   22440005.8134
     -2069.078       -1612.269
   1334098.383 9   1037783.87348  21768721.721    21768723.8994   21768728.6544
      -935.047        -728.608
  -1822499.795 9  -1411187.59047  23508385.592    23508388.3574   23508393.4204
       436.205         339.900
  -2006931.880 9  -1558910.13648  20588575.877    20588578.3274   20588583.1734
       847.110         660.086
 96 11  5 16 57 29.9990000  0  7 31  3  1 17 23  9 21               -0.000415920
  -4795330.406 9  -3721939.98747  22835603.436    22835605.7834   22835611.1254
      2075.199        1617.038
   -749251.014 9   -580562.41848  21377866.177    21377868.8044   21377873.8914
      -250.317        -195.052
  -5084399.219 9  -3944952.79448  20587938.835    20587941.2454   20587946.2834
      2329.695        1815.347
   3074165.675 9   2391561.17047  22451839.979    22451842.2274   22451848.1704
     -2079.868       -1620.676
   1362239.356 9   1059711.87948  21774076.763    21774078.9494   21774083.7454
      -941.004        -733.250
  -1835298.465 9  -1421160.60947  23505950.236    23505952.8224   23505958.0744
       416.900         324.857
  -2032230.841 9  -1578623.62248  20583761.539    20583764.0944   20583768.9354
       839.618         654.248
 96 11  5 16 57 59.9990000  0  7 31  3  1 17 23  9 21               -0.000428809
  -4857287.308 9  -3770218.10147  22823813.521    22823815.8574   22823821.0774
      2055.020        1601.314
   -741426.828 9   -574465.67048  21379354.896    21379357.7114   21379362.7834
      -271.436        -211.508
  -5154013.781 9  -3999197.89448  20574691.732    20574694.0304   20574699.0694
      2311.133        1800.883
   3136739.421 9   2440319.90547  22463747.390    22463749.6314   22463755.6004
     -2091.740       -1629.927
   1390569.788 9   1081787.51648  21779467.927    21779470.0584   21779474.8454
      -947.707        -738.473
  -1847503.086 9  -1430670.73347  23503628.253    23503630.4034   23503635.5444
       396.704         309.120
  -2057304.550 9  -1598161.58648  20578990.192    20578992.7304   20578997.5864
       831.704         648.081
 96 11  5 16 58 29.9990000  0  7 31  3  1 17 23  9 21               -0.000441652
  -4918645.866 9  -3818029.97647  22812137.393    22812139.7204   22812145.0584
      2034.858        1585.604
   -732985.005 9   -567887.64248  21380961.388    21380964.1584   21380969.2474
      -292.106        -227.615
  -5223086.989 9  -4053021.16448  20561547.479    20561549.8424   20561554.8724
      2292.888        1786.666
   3199647.508 9   2489339.15847  22475718.151    22475720.6464   22475726.6624
     -2102.854       -1638.588
   1419075.808 9   1103999.98148  21784892.415    21784894.5804   21784899.3834
      -953.272        -742.809
  -1859117.458 9  -1439720.91547  23501418.038    23501420.3344   23501425.4164
       376.713         293.543
  -2082153.557 9  -1617524.46148  20574261.538    20574264.1114   20574268.9834
       824.057         642.122
 96 11  5 16 58 59.9990000  0  7 31  3  1 17 23  9 21               -0.000454446
  -4979405.392 9  -3865375.05947  22800575.086    22800577.5314   22800582.9454
      2015.734        1570.702
   -723936.716 9   -560837.05248  21382683.238    21382686.0204   21382691.0884
      -311.122        -242.433
  -5291617.321 9  -4106421.41348  20548506.585    20548508.9644   20548513.9754
      2275.860        1773.397
   3262886.518 9   2538616.27247  22487752.368    22487754.6134   22487760.6954
     -2113.205       -1646.653
   1447742.877 9   1126337.93348  21790347.587    21790349.7844   21790354.5564
      -957.816        -746.350
  -1870130.573 9  -1448302.55947  23499322.505    23499324.7634   23499329.7144
       357.590         278.642
  -2106779.204 9  -1636713.29048  20569575.499    20569578.0184   20569582.8754
       817.659         637.137
 96 11  5 16 59 29.9990000  0  7 31  3  1 17 23  9 21               -0.000467193
  -5039573.653 9  -3912259.43047  22789125.402    22789127.9184   22789133.2184
      1995.585        1555.001
   -714295.826 9   -553324.69048  21384517.825    21384520.6314   21384525.7144
      -331.465        -258.284
  -5359621.616 9  -4159411.76048  20535565.788    20535568.1664   20535573.1764
      2257.982        1759.466
   3326463.507 9   2588156.75847  22499850.702    22499852.9454   22499859.0404
     -2125.056       -1655.888
   1476554.067 9   1148788.18448  21795830.094    21795832.3614   21795837.1944
      -962.591        -750.071
  -1880550.706 9  -1456422.14447  23497339.555    23497341.8734   23497346.8674
       337.391         262.902
  -2131186.763 9  -1655732.17548  20564930.866    20564933.4414   20564938.2944
       809.487         630.769
 96 11  5 16 59 59.9990000  0  7 31  3  1 17 23  9 21               -0.000479935
  -5099192.497 9  -3958715.70347  22777780.415    22777782.9434   22777788.1364
      1977.270        1540.730
   -704097.731 9   -545378.14548  21386458.524    21386461.2774   21386466.3364
      -350.059        -272.773
  -5427145.739 9  -4212027.94748  20522716.398    20522718.7304   20522723.7564
      2241.864        1746.907
   3390343.880 9   2637933.64147  22512006.775    22512009.0174   22512015.1164
     -2135.270       -1663.847
   1505447.022 9   1171302.15548  21801328.268    21801330.5384   21801335.3594
      -965.264        -752.154
  -1890425.366 9  -1464116.66147  23495460.556    23495462.7834   23495467.8154
       319.265         248.778
  -2155382.089 9  -1674585.69048  20560326.771    20560329.2504   20560334.1184
       801.718         624.715
 96 11  5 17  0 29.9990000  0  7 31  3  1 17 23  9 21               -0.000492676
  -5158238.438 9  -4004725.53647  22766544.236    22766546.7824   22766552.1614
      1958.637        1526.211
   -693316.667 9   -536977.33348  21388509.981    21388512.8754   21388517.9494
      -369.032        -287.557
  -5494155.140 9  -4264243.04948  20509964.909    20509967.2454   20509972.3124
      2224.987        1733.756
   3454551.881 9   2687965.81447  22524224.982    22524227.4184   22524233.5584
     -2145.639       -1671.926
   1534442.320 9   1193895.88048  21806845.998    21806848.2014   21806853.0344
      -968.383        -754.584
  -1899724.400 9  -1471362.62847  23493690.777    23493693.2244   23493698.3094
       300.261         233.970
  -2179307.117 9  -1693228.58148  20555774.028    20555776.5014   20555781.3814
       793.012         617.931
 96 11  5 17  0 59.9990000  0  7 31  3  1 17 23  9 21               -0.000505411
  -5216708.541 9  -4050286.66147  22755418.007    22755420.3784   22755425.7004
      1939.511        1511.307
   -681950.931 9   -528120.93848  21390672.883    21390675.7084   21390680.7974
      -388.556        -302.771
  -5560644.613 9  -4316053.01448  20497312.442    20497314.7164   20497319.8054
      2207.833        1720.389
   3519086.925 9   2738252.83647  22536505.747    22536508.0594   22536514.2264
     -2156.305       -1680.238
   1563551.798 9   1216578.57548  21812385.293    21812387.5564   21812392.4014
      -971.956        -757.368
  -1908441.839 9  -1478155.40647  23492031.713    23492034.3064   23492039.5624
       281.321         219.211
  -2202960.581 9  -1711659.87348  20551272.909    20551275.4354   20551280.3174
       784.315         611.154
 96 11  5 17  1 29.9990000  0  7 31  3  1 17 23  9 21               -0.000518146
  -5274605.500 9  -4095401.19447  22744400.632    22744403.0424   22744408.2514
      1920.230        1496.283
   -669996.262 9   -518805.63548  21392947.778    21392950.6094   21392955.7374
      -408.313        -318.166
  -5626621.597 9  -4367463.63949  20484757.351    20484759.6994   20484764.7964
      2190.547        1706.920
   3583925.945 9   2788776.71247  22548844.117    22548846.5514   22548852.7474
     -2166.172       -1687.926
   1592759.761 9   1239338.00648  21817943.390    21817945.6524   21817950.5084
      -975.346        -760.010
  -1916608.087 9  -1484518.66447  23490477.452    23490480.2044   23490485.4884
       263.135         205.040
  -2226361.499 9  -1729894.37148  20546819.915    20546822.4104   20546827.3054
       775.763         604.491
 96 11  5 17  1 59.9990000  0  7 31  3  1 17 23  9 21               -0.000530878
  -5331905.339 9  -4140050.42447  22733496.844    22733499.2264   22733504.5554
      1899.497        1480.128
   -657437.458 9   -509019.57948  21395337.589    21395340.5014   21395345.6364
      -429.173        -334.421
  -5692057.837 9  -4418452.90549  20472305.188    20472307.5704   20472312.6944
      2171.722        1692.251
   3649068.317 9   2839536.96747  22561240.331    22561242.7514   22561248.9444
     -2176.931       -1696.310
   1622094.340 9   1262196.10248  21823525.542    21823527.8704   21823532.7164
      -980.587        -764.094
  -1924217.824 9  -1490448.26047  23489029.352    23489032.1544   23489037.2614
       243.844         190.008
  -2249496.545 9  -1747921.69148  20542417.377    20542419.9684   20542424.8854
       766.508         597.279
 96 11  5 17  2 29.9990000  0  7 31  3  1 17 23  9 21               -0.000543598
  -5388615.821 9  -4184240.43847  22722705.257    22722707.6424   22722712.9014
      1879.597        1464.621
   -644287.351 9   -498772.77448  21397840.006    21397842.8994   21397848.0194
      -449.048        -349.908
  -5756963.103 9  -4469028.42949  20459954.080    20459956.5224   20459961.6444
      2153.889        1678.355
   3714501.088 9   2890523.49047  22573691.694    22573694.2364   22573700.4714
     -2186.777       -1703.982
   1651557.744 9   1285154.57548  21829132.307    21829134.5824   21829139.4374
      -985.256        -767.732
  -1931276.386 9  -1495948.39047  23487686.178    23487688.8984   23487694.0004
       225.298         175.557
  -2272402.232 9  -1765770.29148  20538058.593    20538061.1634   20538066.1104
       759.119         591.521
 96 11  5 17  2 59.9990000  0  7 31  3  1 17 23  9 21               -0.000556268
  -5444697.042 9  -4227940.10447  22712033.079    22712035.6534   22712040.9064
      1859.170        1448.704
   -630504.618 9   -488033.00548  21400462.824    21400465.6904   21400470.7904
      -469.665        -365.973
  -5821300.623 9  -4519161.55249  20447711.035    20447713.5074   20447718.6504
      2135.411        1663.957
   3780267.644 9   2941770.11747  22586206.722    22586209.2484   22586215.5004
     -2197.452       -1712.300
   1681191.302 9   1308245.63348  21834771.478    21834773.7044   21834778.5564
      -990.124        -771.525
  -1937758.496 9  -1500999.32747  23486452.641    23486455.2494   23486460.6904
       206.986         161.288
  -2295068.371 9  -1783432.22848  20533745.512    20533747.9544   20533752.9054
       752.038         586.004
 96 11  5 17  3 29.9990000  0  7 31  3  1 17 23  9 21               -0.000568899
  -5500165.942 9  -4271162.64147  22701477.773    22701480.3444   22701485.6054
      1839.152        1433.105
   -616110.285 9   -476816.66648  21403201.993    21403204.8704   21403209.9924
      -489.406        -381.355
  -5885080.721 9  -4568860.32449  20435574.052    20435576.5744   20435581.6944
      2117.009        1649.617
   3846356.795 9   2993268.10447  22598783.079    22598785.6104   22598791.8774
     -2208.274       -1720.733
   1710974.650 9   1331453.41848  21840439.042    21840441.3214   21840446.1794
      -995.170        -775.457
  -1943684.261 9  -1505616.79547  23485324.722    23485327.4324   23485333.1474
       188.081         146.557
  -2317514.078 9  -1800922.39648  20529474.248    20529476.6904   20529481.6574
       744.606         580.212
 96 11  5 17  3 59.9990000  0  7 31  3  1 17 23  9 21               -0.000581489
  -5555034.243 9  -4313917.17547  22691036.645    22691039.2094   22691044.5514
      1818.254        1416.821
   -601121.215 9   -465136.89948  21406054.394    21406057.2144   21406062.3594
      -510.212        -397.568
  -5948305.412 9  -4618126.31449  20423542.754    20423545.3054   20423550.4234
      2097.661        1634.541
   3912790.467 9   3045034.56347  22611425.132    22611427.5674   22611433.8094
     -2221.016       -1730.662
   1740927.087 9   1354792.95748  21846138.746    21846141.1394   21846145.9864
     -1001.976        -780.761
  -1949013.727 9  -1509769.56747  23484310.692    23484313.3204   23484318.8344
       166.747         129.933
  -2339726.382 9  -1818230.69448  20525247.404    20525249.8444   20525254.8454
       735.852         573.391
 96 11  5 17  4 29.9990000  0  7 31  3  1 17 23  9 21               -0.000594020
  -5609288.019 9  -4356192.85847  22680712.358    22680715.0544   22680720.4654
      1798.746        1401.620
   -585525.471 9   -452984.39648  21409022.066    21409025.0134   21409030.1474
      -529.353        -412.483
  -6010961.970 9  -4666949.59949  20411619.630    20411622.1594   20411627.2744
      2079.629        1620.490
   3979595.176 9   3097090.12947  22624137.567    22624140.1194   22624146.4304
     -2232.447       -1739.569
   1771069.868 9   1378280.81348  21851874.807    21851877.1464   21851882.0194
     -1007.295        -784.905
  -1953713.816 9  -1513431.90847  23483416.545    23483419.1044   23483424.2274
       146.883         114.454
  -2361687.385 9  -1835343.17048  20521068.301    20521070.8124   20521075.8304
       728.379         567.568
 96 11  5 17  4 59.9990000  0  7 31  3  1 17 23  9 21               -0.000606516
  -5662951.543 9  -4398008.61747  22670500.722    22670503.3214   22670508.6694
      1777.642        1385.176
   -569351.288 9   -440381.16248  21412100.013    21412102.8914   21412108.0054
      -549.957        -428.538
  -6073070.351 9  -4715345.73849  20399800.691    20399803.3424   20399808.4434
      2059.896        1605.114
   4046747.092 9   3149416.24547  22636916.295    22636918.7584   22636925.0364
     -2245.223       -1749.524
   1801376.766 9   1401896.55848  21857642.077    21857644.3854   21857649.2624
     -1014.218        -790.300
  -1957815.147 9  -1516627.71747  23482635.999    23482638.5604   23482643.7114
       125.475          97.773
  -2383414.700 9  -1852273.56048  20516933.864    20516936.2584   20516941.2404
       718.832         560.129
 96 11  5 17  5 29.9990000  0  7 31  3  1 17 23  9 21               -0.000618970
  -5715991.951 9  -4439338.80847  22660407.324    22660409.9844   22660415.3724
      1758.906        1370.576
   -552572.420 9   -427306.75248  21415292.886    21415295.8224   21415300.9634
      -568.150        -442.714
  -6134599.629 9  -4763290.62849  20388092.071    20388094.7024   20388099.8304
      2042.748        1591.752
   4114267.899 9   3202029.80547  22649765.285    22649767.6024   22649773.8824
     -2255.573       -1757.589
   1831885.645 9   1425669.68748  21863447.650    21863450.0214   21863454.9134
     -1019.011        -794.035
  -1961271.392 9  -1519320.89747  23481977.937    23481980.7744   23481986.1514
       105.589          82.277
  -2404847.981 9  -1868974.83248  20512855.185    20512857.6574   20512862.6344
       710.714         553.803
 96 11  5 17  5 59.9990000  0  7 31  3  1 17 23  9 21               -0.000631407
  -5768459.834 9  -4480222.90347  22650423.350    22650425.8014   22650431.0874
      1739.088        1355.134
   -535233.436 9   -413795.87748  21418592.363    21418595.3514   21418600.4764
      -587.543        -457.826
  -6195615.430 9  -4810835.40649  20376481.213    20376483.8004   20376488.9024
      2025.165        1578.051
   4182095.990 9   3254882.81447  22662672.334    22662674.9224   22662681.1774
     -2265.996       -1765.711
   1862538.572 9   1449555.06948  21869280.698    21869283.1054   21869288.0404
     -1023.975        -797.903
  -1964141.633 9  -1521557.43147  23481431.931    23481434.6384   23481440.0844
        86.331          67.271
  -2426047.473 9  -1885493.92548  20508821.128    20508823.5644   20508828.5214
       703.031         547.816
 96 11  5 17  6 29.9990000  0  7 31  3  1 17 23  9 21               -0.000643812
  -5820321.533 9  -4520634.62747  22640554.274    22640556.7884   22640562.2224
      1718.507        1339.096
   -517309.420 9   -399829.13348  21422003.100    21422006.1844   21422011.3154
      -607.409        -473.306
  -6256096.793 9  -4857963.73649  20364971.985    20364974.5794   20364979.6694
      2007.113        1563.984
   4250233.099 9   3307976.62347  22675638.268    22675641.0344   22675647.2574
     -2276.344       -1773.774
   1893321.863 9   1473542.03348  21875138.595    21875140.9804   21875145.9464
     -1028.096        -801.114
  -1966452.775 9  -1523358.30547  23480992.540    23480995.0574   23481000.3524
        67.793          52.826
  -2447025.496 9  -1901840.44848  20504829.177    20504831.6024   20504836.5634
       695.451         541.910
 96 11  5 17  6 59.9990000  0  7 31  3  1 17 23  9 21               -0.000656187
  -5871583.845 9  -4560579.31247  22630799.382    22630801.9444   22630807.2114
      1698.334        1323.377
   -498789.615 9   -385398.13448  21425527.433    21425530.3934   21425535.5214
      -627.750        -489.156
  -6316048.327 9  -4904679.21449  20353563.505    20353566.1754   20353571.2754
      1989.107        1549.954
   4318671.215 9   3361304.98747  22688661.832    22688664.4074   22688670.6014
     -2286.601       -1781.767
   1924215.009 9   1497614.60048  21881017.365    21881019.7404   21881024.7184
     -1032.050        -804.195
  -1968207.527 9  -1524725.63747  23480658.173    23480660.9594   23480666.2664
        48.539          37.823
  -2467781.160 9  -1918013.70148  20500879.551    20500881.9694   20500886.9224
       687.612         535.802
 96 11  5 17  7 29.9990000  0  7 31  3  1 17 23  9 21               -0.000668516
  -5922231.282 9  -4600044.87247  22621161.689    22621164.0684   22621169.3554
      1678.096        1307.607
   -479645.586 9   -370480.73748  21429170.427    21429173.3874   21429178.5354
      -648.432        -505.272
  -6375443.700 9  -4950961.32149  20342260.959    20342263.6154   20342268.7114
      1970.493        1535.449
   4387433.302 9   3414885.77747  22701746.822    22701749.4304   22701755.6664
     -2297.736       -1790.444
   1955243.742 9   1521792.81648  21886921.787    21886924.3184   21886929.3274
     -1036.580        -807.725
  -1969363.154 9  -1525626.13747  23480438.074    23480440.7704   23480446.1524
        28.379          22.114
  -2488284.959 9  -1933990.69248  20496977.920    20496980.2434   20496985.1834
       679.424         529.421
 96 11  5 17  7 59.9990000  0  7 31  3  1 17 23  9 21               -0.000680801
  -5972282.191 9  -4639045.60347  22611637.187    22611639.7084   22611645.0384
      1658.707        1292.499
   -459898.401 9   -355093.34548  21432928.303    21432931.1974   21432936.3514
      -667.769        -520.339
  -6434286.419 9  -4996812.78848  20331063.561    20331066.2564   20331071.3434
      1952.241        1521.227
   4456525.076 9   3468723.48547  22714894.741    22714897.2544   22714903.4304
     -2308.435       -1798.781
   1986402.674 9   1546072.48148  21892851.292    21892853.6924   21892858.6824
     -1040.722        -810.952
  -1969927.828 9  -1526066.12947  23480330.401    23480333.4224   23480338.7444
         9.175           7.149
  -2508564.652 9  -1949793.06048  20493118.751    20493121.1514   20493126.0874
       672.419         523.963
 96 11  5 17  8 29.9990000  0  7 31  3  1 17 23  9 21               -0.000693058
  -6021746.491 9  -4677589.21447  22602224.379    22602226.8994   22602232.3114
      1639.089        1277.212
   -439564.149 9   -339248.49648  21436797.834    21436800.6944   21436805.8564
      -687.627        -535.813
  -6492561.931 9  -5042222.27348  20319974.138    20319976.8004   20319981.9154
      1933.131        1506.336
   4525960.782 9   3522829.18247  22728107.818    22728110.4844   22728116.7024
     -2320.371       -1808.081
   2017708.620 9   1570466.71148  21898808.796    21898811.0684   21898816.0314
     -1046.376        -815.358
  -1969886.438 9  -1526033.90647  23480338.785    23480341.5014   23480346.9234
       -11.796          -9.192
  -2528595.254 9  -1965401.33148  20489307.038    20489309.4754   20489314.3954
       663.083         516.688
 96 11  5 17  8 59.9990000  0  7 31  3  1 17 23  9 21               -0.000705290
  -6070629.695 9  -4715680.04447  22592921.974    22592924.7094   22592930.1424
      1619.101        1261.637
   -418648.007 9   -322950.22148  21440778.021    21440780.9254   21440786.0694
      -707.169        -551.041
  -6550269.169 9  -5087188.94548  20308992.847    20308995.4834   20309000.6204
      1913.567        1491.091
   4595748.390 9   3577209.09647  22741388.153    22741390.6334   22741396.9774
     -2332.567       -1817.585
   2049196.836 9   1595002.97148  21904800.633    21904803.0794   21904808.0394
     -1053.377        -820.813
  -1969210.718 9  -1525507.37947  23480467.686    23480470.1094   23480475.3824
       -33.563         -26.153
  -2548347.431 9  -1980792.64448  20485548.418    20485550.7834   20485555.6684
       653.329         509.088
 96 11  5 17  9 29.9990000  0  7 31  3  1 17 23  9 21               -0.000717497
  -6118911.781 9  -4753302.48747  22583734.526    22583737.0814   22583742.3984
      1599.184        1246.117
   -397164.694 9   -306209.99948  21444866.272    21444869.0834   21444874.2384
      -725.348        -565.206
  -6607401.234 9  -5131707.43548  20298120.857    20298123.6114   20298128.7294
      1895.087        1476.691
   4665893.715 9   3631867.73847  22754736.169    22754738.8724   22754745.2254
     -2344.143       -1826.605
   2080888.441 9   1619697.70948  21910831.305    21910833.8104   21910838.7524
     -1059.504        -825.588
  -1967901.933 9  -1524487.57347  23480716.064    23480718.9514   23480724.4434
       -53.956         -42.044
  -2567813.907 9  -1995961.33548  20481844.061    20481846.4604   20481851.3114
       644.261         502.022
 96 11  5 17  9 59.9990000  0  7 31  3  1 17 23  9 21               -0.000729679
  -6166592.116 9  -4790456.01647  22574661.340    22574663.8044   22574669.1194
      1578.813        1230.244
   -375141.415 9   -289049.03048  21449057.117    21449059.9874   21449065.1324
      -743.595        -579.425
  -6663993.863 9  -5175805.58248  20287351.668    20287354.3754   20287359.5134
      1877.176        1462.735
   4736378.527 9   3686790.91947  22768148.789    22768151.7334   22768158.0804
     -2355.295       -1835.295
   2112752.597 9   1644526.90248  21916894.945    21916897.3894   21916902.3264
     -1065.279        -830.088
  -1965993.221 9  -1523000.28247  23481079.569    23481082.0394   23481087.3594
       -73.839         -57.537
  -2587016.978 9  -2010924.78148  20478189.890    20478192.2684   20478197.1104
       635.225         494.981
 96 11  5 17 10 29.9990000  0  7 31  3  1 17 23  9 21               -0.000741837
  -6213653.328 9  -4827127.12147  22565705.896    22565708.3814   22565713.7834
      1558.115        1214.116
   -352557.945 9   -271451.54748  21453354.687    21453357.4894   21453362.6374
      -762.418        -594.092
  -6720044.944 9  -5219481.74348  20276685.467    20276688.2004   20276693.3424
      1859.403        1448.885
   4807185.316 9   3741964.99047  22781623.018    22781625.8754   22781632.1194
     -2365.340       -1843.122
   2144788.891 9   1669490.23948  21922991.340    21922993.7304   21922998.6304
     -1070.733        -834.337
  -1963488.225 9  -1521048.36147  23481556.169    23481558.7724   23481563.9354
       -93.462         -72.828
  -2605936.962 9  -2025667.63148  20474589.416    20474591.9394   20474596.7594
       625.954         487.756
 96 11  5 17 10 59.9990000  0  7 31  3  1 17 23  9 21               -0.000753986
  -6260119.991 9  -4863334.92747  22556863.312    22556866.0194   22556871.5754
      1538.749        1199.025
   -329446.903 9   -253442.97348  21457752.702    21457755.3944   21457760.5474
      -779.225        -607.188
  -6775603.457 9  -5262774.08648  20266113.103    20266115.7684   20266120.8994
      1843.611        1436.580
   4878252.007 9   3797341.57947  22795146.590    22795149.4664   22795155.7004
     -2373.243       -1849.280
   2176948.251 9   1694549.46248  21929111.066    21929113.4824   21929118.3844
     -1073.878        -836.788
  -1960431.579 9  -1518666.58147  23482138.282    23482140.6574   23482145.7594
      -111.102         -86.573
  -2624628.808 9  -2040232.71148  20471032.481    20471034.9934   20471039.8444
       619.253         482.535
 96 11  5 17 11 29.9990000  0  7 31  3  1 17 23  9 21               -0.000766119
  -6305976.634 9  -4899067.40247  22548137.133    22548139.8394   22548145.3054
      1518.051        1182.897
   -305788.019 9   -235007.51648  21462254.780    21462257.5794   21462262.7574
      -798.352        -622.092
  -6830652.886 9  -5305669.74248  20255637.503    20255640.1964   20255645.3364
      1825.991        1422.850
   4949584.979 9   3852925.66747  22808720.737    22808723.7114   22808729.9834
     -2382.702       -1856.651
   2209226.249 9   1719701.13048  21935253.503    21935255.8254   21935260.7024
     -1078.284        -840.221
  -1956814.890 9  -1515848.45647  23482826.599    23482828.8764   23482834.2674
      -130.295        -101.529
  -2643079.868 9  -2054610.17148  20467521.414    20467523.8844   20467528.7514
       610.697         475.868
 96 11  5 17 11 59.9990000  0  7 31  3  1 17 23  9 21               -0.000778215
  -6351202.492 9  -4934308.34447  22539530.863    22539533.6174   22539539.0434
      1497.212        1166.659
   -281534.994 9   -216109.09348  21466869.948    21466872.8354   21466877.9614
      -818.323        -637.654
  -6885145.902 9  -5348131.83248  20245267.828    20245270.5324   20245275.6294
      1806.903        1407.976
   5021222.215 9   3908746.83947  22822352.933    22822355.8974   22822362.1444
     -2392.846       -1864.555
   2241656.173 9   1744971.17848  21941424.508    21941427.0474   21941431.9234
     -1083.626        -844.384
  -1952611.295 9  -1512572.98847  23483626.375    23483628.7674   23483634.2294
      -149.663        -116.621
  -2661266.734 9  -2068781.76348  20464060.545    20464063.0554   20464067.9184
       601.831         468.959
 96 11  5 17 12 29.9990000  0  7 31  3  1 17 23  9 21               -0.000790278
  -6395793.931 9  -4969054.91747  22531045.399    22531048.1374   22531053.6944
      1476.016        1150.142
   -256679.572 9   -196741.27148  21471599.937    21471602.6814   21471607.8224
      -838.085        -653.053
  -6939047.256 9  -5390132.88348  20235010.820    20235013.4634   20235018.5604
      1787.200        1392.623
   5093171.724 9   3964811.34847  22836044.739    22836047.5014   22836053.7814
     -2403.384       -1872.767
   2274254.757 9   1770372.65448  21947627.924    21947630.3654   21947635.2514
     -1089.062        -848.620
  -1947818.303 9  -1508838.23347  23484538.520    23484540.9224   23484546.2234
      -169.310        -131.930
  -2679181.977 9  -2082741.70948  20460651.351    20460653.9044   20460658.7644
       593.155         462.199
 96 11  5 17 12 59.9990000  0  8 31  3  1 17 25 23  9 21            -0.000802304
  -6439755.564 9  -5003310.76147  22522679.897    22522682.6514   22522688.0174
      1454.990        1133.758
   -231243.796 9   -176921.22548  21476440.137    21476442.9594   21476448.1054
      -857.294        -668.021
  -6992365.072 9  -5431679.22948  20224864.761    20224867.4104   20224872.5044
      1767.517        1377.286
   5165449.299 9   4021131.49247  22849798.864    22849801.5084   22849807.7244
     -2414.889       -1881.732
  -1964914.92118  -1491189.64855  25057624.693    25057628.0095   25057635.8745
      3768.765        2936.700
   2307006.036 9   1795893.11348  21953860.327    21953862.7704   21953867.6404
     -1093.991        -852.461
  -1942442.854 9  -1504649.61447  23485561.421    23485563.7874   23485568.8744
      -188.788        -147.108
  -2696845.661 9  -2096505.63148  20457290.211    20457292.6344   20457297.4964
       584.731         455.635
 96 11  5 17 13 29.9990000  0  8 31  3  1 17 25 23  9 21            -0.000814294
  -6483089.287 9  -5037077.30747  22514433.845    22514436.5034   22514441.9564
      1433.772        1117.225
   -205234.415 9   -156654.21648  21481389.587    21481392.4304   21481397.5624
      -876.674        -683.123
  -7045088.768 9  -5472762.62648  20214831.749    20214834.4164   20214839.5114
      1747.441        1361.642
   5238073.725 9   4077721.90647  22863618.904    22863621.5254   22863627.7964
     -2426.749       -1890.973
  -2078039.559 8  -1579338.64445  25036097.823    25036100.9424   25036108.8784
      3772.917        2939.935
   2339895.916 9   1821521.57748  21960118.989    21960121.5424   21960126.4244
     -1098.908        -856.292
  -1936487.175 9  -1500008.88147  23486694.598    23486697.1044   23486702.2464
      -208.135        -162.183
  -2714265.222 9  -2110079.33048  20453975.406    20453977.8014   20453982.6704
       576.627         449.320
 96 11  5 17 13 59.9990000  0  8 31  3  1 17 25 23  9 21            -0.000826243
  -6525790.248 9  -5070350.79747  22506308.263    22506310.9194   22506316.2764
      1412.244        1100.450
   -178660.978 9   -135947.67948  21486446.324    21486449.2244   21486454.3674
      -895.485        -697.781
  -7097222.556 9  -5513386.35748  20204911.013    20204913.6874   20204918.7714
      1727.680        1346.244
   5311044.611 9   4134582.28747  22877504.697    22877507.4754   22877513.6974
     -2438.518       -1900.144
  -2191304.288 9  -1667596.71545  25014544.334    25014547.1584   25014555.0204
      3777.187        2943.263
   2372930.892 9   1847263.09948  21966405.368    21966407.9054   21966412.8024
     -1104.020        -860.275
  -1929959.632 9  -1494922.56047  23487936.333    23487939.2364   23487944.7184
      -227.746        -177.464
  -2731453.257 9  -2123472.61848  20450704.414    20450707.0164   20450711.8904
       568.464         442.959
 96 11  5 17 14 29.9990000  0  8 31  3  1 17 25 23  9 21            -0.000838148
  -6567855.782 9  -5103129.13447  22498303.345    22498306.0574   22498311.4874
      1391.821        1084.536
   -151536.078 9   -114811.42848  21491607.949    21491610.9434   21491616.1144
      -913.151        -711.546
  -7148784.413 9  -5553564.42748  20195099.140    20195101.8064   20195106.8874
      1709.567        1332.130
   5384352.038 9   4191704.91347  22891454.813    22891457.4734   22891463.6784
     -2448.914       -1908.245
  -2304690.802 8  -1755949.73345  24992966.935    24992970.5124   24992978.3354
      3781.555        2946.666
   2406106.410 9   1873114.13148  21972718.479    21972720.9924   21972725.9184
     -1107.958        -863.344
  -1922840.278 9  -1489375.07347  23489291.701    23489294.2314   23489299.8044
      -247.164        -192.595
  -2748403.373 9  -2136680.51248  20447478.904    20447481.5234   20447486.3974
       561.204         437.302
 96 11  5 17 14 59.9990000  0  8 31  3  1 17 25 23  9 21            -0.000850012
  -6609295.601 9  -5135419.91847  22490417.550    22490420.2804   22490425.7554
      1370.662        1068.048
   -123863.827 9    -93248.66848  21496873.979    21496876.8194   21496881.9824
      -931.733        -726.026
  -7199787.450 9  -5593307.05248  20185393.586    20185396.2464   20185401.3274
      1690.507        1317.278
   5457986.794 9   4249082.57946  22905466.986    22905469.7454   22905475.9554
     -2459.843       -1916.761
  -2418187.331 8  -1844388.45145  24971369.397    24971372.6754   24971380.5844
      3784.781        2949.180
   2439413.789 9   1899067.91448  21979056.698    21979059.1804   21979064.1654
     -1112.591        -866.954
  -1915126.800 9  -1483364.62047  23490759.532    23490762.1804   23490767.6174
      -267.144        -208.164
  -2765118.257 9  -2149705.10948  20444298.259    20444300.7914   20444305.6844
       553.019         430.924
 96 11  5 17 15 29.9990000  0  8 31  3  1 17 25 23  9 21            -0.000861837
  -6650101.146 9  -5167216.44147  22482652.646    22482655.2414   22482660.8144
      1350.135        1052.053
    -95625.352 9    -71244.68848  21502247.652    21502250.4614   21502255.6214
      -950.352        -740.534
  -7250213.254 9  -5632599.88548  20175797.866    20175800.5354   20175805.6054
      1671.822        1302.718
   5531932.127 9   4306702.26747  22919538.423    22919541.0924   22919547.3374
     -2469.329       -1924.152
  -2531769.794 8  -1932894.10145  24949755.605    24949758.5074   24949766.3154
      3787.968        2951.663
   2472874.396 9   1925141.09048  21985424.014    21985426.5364   21985431.5364
     -1117.791        -871.006
  -1906811.103 9  -1476884.88347  23492342.213    23492344.6594   23492349.9994
      -286.580        -223.309
  -2781581.820 9  -2162533.86248  20441165.395    20441167.8754   20441172.7984
       544.898         424.596
 96 11  5 17 15 59.9990000  0  8 31  3  1 17 25 23  9 21            -0.000873637
  -6690283.211 9  -5198527.16747  22475006.176    22475008.9014   22475014.2854
      1328.999        1035.584
    -66822.688 9    -48801.07748  21507728.627    21507731.4674   21507736.5984
      -969.476        -755.436
  -7300071.040 9  -5671450.10648  20166310.261    20166312.9164   20166317.9724
      1652.400        1287.584
   5606169.347 9   4364549.39346  22933665.468    22933668.0074   22933674.3164
     -2479.558       -1932.123
  -2645437.446 8  -2021466.15845  24928125.570    24928128.3044   24928135.9364
      3790.095        2953.321
   2506508.097 9   1951349.14448  21991824.187    21991826.8614   21991831.8984
     -1123.944        -875.801
  -1897902.505 9  -1469943.14447  23494037.291    23494039.7814   23494045.1934
      -307.151        -239.338
  -2797775.137 9  -2175152.04648  20438083.888    20438086.4124   20438091.3264
       535.037         416.912
 96 11  5 17 16 29.9990000  0  8 31  3  1 17 25 23  9 21            -0.000885412
  -6729841.772 9  -5229352.00947  22467478.576    22467481.2014   22467486.5104
      1307.935        1019.170
    -37451.255 9    -25914.26448  21513317.798    21513320.6934   21513325.8164
      -988.747        -770.452
  -7349351.173 9  -5709850.20448  20156932.551    20156935.2384   20156940.3004
      1632.751        1272.274
   5680706.220 9   4422630.02646  22947849.152    22947851.9504   22947858.2414
     -2489.803       -1940.106
  -2759173.962 8  -2110091.85745  24906481.419    24906484.7814   24906492.4274
      3792.279        2955.023
   2540308.317 9   1977686.96148  21998256.419    21998258.8884   21998263.8964
     -1129.558        -880.175
  -1888386.109 9  -1462527.79647  23495848.065    23495850.6144   23495856.0684
      -327.287        -255.029
  -2813687.107 9  -2187550.98848  20435055.965    20435058.4844   20435063.4034
       525.576         409.540
 96 11  5 17 16 59.9990000  0  8 31  3  1 17 25 23  9 21            -0.000897155
  -6768762.811 9  -5259680.08947  22460072.164    22460074.7434   22460080.1154
      1286.460        1002.436
     -7505.653 9     -2580.05048  21519016.231    21519019.1414   21519024.2734
     -1007.959        -785.423
  -7398042.781 9  -5747791.71248  20147666.788    20147669.5144   20147674.5944
      1613.220        1257.054
   5755552.251 9   4480951.54946  22962092.160    22962094.7354   22962101.0234
     -2500.197       -1948.205
  -2872973.662 8  -2198766.82945  24884826.542    24884829.3484   24884837.0054
      3794.048        2956.401
   2574273.783 9   2004153.53248  22004719.761    22004722.2974   22004727.3884
     -1135.061        -884.463
  -1878274.671 9  -1454648.76247  23497772.240    23497774.8654   23497780.4614
      -347.190        -270.538
  -2829318.436 9  -2199731.25248  20432081.312    20432083.9314   20432088.8524
       516.258         402.279
 96 11  5 17 17 29.9990000  0  8 31  3  1 17 25 23  9 21            -0.000908857
  -6807048.359 9  -5289513.00147  22452786.737    22452789.3254   22452794.6344
      1265.991         986.486
     23016.697 9     21203.57948  21524824.371    21524827.3894   21524832.5004
     -1026.700        -800.026
  -7446159.973 9  -5785285.62248  20138510.488    20138513.1354   20138518.2054
      1594.649        1242.584
   5830713.984 9   4539519.06646  22976395.019    22976397.5764   22976403.8874
     -2510.653       -1956.353
  -2986818.331 9  -2287476.77545  24863162.129    24863165.2224   24863172.8084
      3795.702        2957.690
   2608402.653 9   2030747.42548  22011213.980    22011216.7894   22011221.9334
     -1140.149        -888.428
  -1867555.670 9  -1446296.27947  23499812.089    23499814.8254   23499820.2714
      -367.249        -286.168
  -2844669.885 9  -2211693.42948  20429160.029    20429162.6224   20429167.5864
       507.242         395.254
 96 11  5 17 17 59.9990000  0  8 31  3  1 17 25 23  9 21            -0.000920519
  -6844719.970 9  -5318867.49247  22445617.812    22445620.6004   22445625.9344
      1245.042         970.163
     54090.562 9     45416.96248  21530737.604    21530740.6034   21530745.7104
     -1045.149        -814.402
  -7493720.163 9  -5822345.50148  20129460.055    20129462.7584   20129467.7974
      1575.882        1227.960
   5906198.571 9   4598338.18046  22990759.227    22990761.8784   22990768.1504
     -2522.106       -1965.277
  -3100706.694 8  -2376220.85645  24841489.493    24841492.9124   24841500.5364
      3796.590        2958.382
   2642675.345 9   2057453.39748  22017735.983    22017738.6874   22017743.7794
     -1144.860        -892.099
  -1856228.674 9  -1437470.02947  23501967.493    23501970.1634   23501975.7344
      -388.202        -302.495
  -2859756.964 9  -2223449.59548  20426288.922    20426291.6474   20426296.6314
       498.488         388.432
 96 11  5 17 18 29.9990000  0  8 31  3  1 17 25 23  9 21            -0.000932122
  -6881759.406 9  -5347729.39247  22438569.586    22438572.2864   22438577.6504
      1223.955         953.731
     85713.057 9     70057.84548  21536755.116    21536758.1794   21536763.3294
     -1063.305        -828.549
  -7540725.464 9  -5858972.99848  20120515.236    20120517.9774   20120522.9714
      1557.567        1213.688
   5982025.058 9   4657423.70046  23005188.512    23005191.2064   23005197.4834
     -2533.151       -1973.884
  -3214622.013 8  -2464985.86845  24819812.343    24819815.5084   24819823.0984
      3797.630        2959.192
   2677078.913 9   2084261.34248  22024282.812    22024285.4784   22024290.5974
     -1149.139        -895.433
  -1844281.156 9  -1428160.25147  23504240.914    23504243.4944   23504249.2764
      -408.409        -318.241
  -2874594.285 9  -2235011.15048  20423465.471    20423468.1924   20423473.1884
       490.215         381.986
 96 11  5 17 18 59.9990000  0  8 31  3  1 17 25 23  9 21            -0.000943674
  -6918175.314 9  -5376105.42947  22431639.817    22431642.5344   22431647.9644
      1203.449         937.752
    117883.103 9     95125.39048  21542876.927    21542879.9354   21542885.0994
     -1081.666        -842.857
  -7587191.196 9  -5895180.05148  20111672.985    20111675.8404   20111680.8224
      1539.688        1199.757
   6058175.768 9   4716761.85746  23019679.420    23019682.1724   23019688.5284
     -2543.733       -1982.130
  -3328574.633 9  -2553780.00445  24798128.449    24798131.0044   24798138.4464
      3799.034        2960.286
   2711615.704 9   2111173.10148  22030854.964    22030857.6304   22030862.7444
     -1153.585        -898.897
  -1831725.610 9  -1418376.66547  23506630.011    23506632.8734   23506638.5164
      -428.856        -334.173
  -2889174.677 9  -2246372.50148  20420690.859    20420693.6584   20420698.6594
       481.475         375.175
 96 11  5 17 19 29.9990000  0  8 31  3  1 17 25 23  9 21            -0.000955179
  -6953970.206 9  -5403997.55247  22424828.169    22424830.9264   22424836.4764
      1182.475         921.409
    150611.641 9    120628.12548  21549104.896    21549107.9904   21549113.1194
     -1100.380        -857.439
  -7633099.106 9  -5930952.43648  20102937.008    20102939.8684   20102944.8574
      1520.453        1184.769
   6134646.255 9   4776349.19546  23034231.203    23034234.1034   23034240.5174
     -2554.552       -1990.560
  -3442576.872 8  -2642612.79145  24776433.974    24776436.9504   24776444.4304
      3801.038        2961.848
   2746302.711 9   2138201.92248  22037455.599    22037458.3334   22037463.4734
     -1159.186        -903.262
  -1818549.343 9  -1408109.40347  23509137.843    23509140.3704   23509146.0014
      -449.523        -350.278
  -2903476.545 9  -2257516.81848  20417969.368    20417972.1204   20417977.0984
       471.806         367.641
 96 11  5 17 19 59.9990000  0  8 31  3  1 17 25 23  9 21            -0.000966648
  -6989132.355 9  -5431396.63447  22418136.913    22418139.7534   22418145.3204
      1161.616         905.155
    183884.245 9    146554.80148  21555436.482    21555439.5704   21555444.7294
     -1117.813        -871.023
  -7678440.290 9  -5966283.21848  20094308.945    20094311.7294   20094316.7124
      1502.425        1170.721
   6211428.723 9   4836179.63446  23048842.715    23048845.3544   23048851.8364
     -2564.232       -1998.103
  -3556653.083 9  -2731503.23745  24754725.965    24754728.9284   24754736.4344
      3804.227        2964.333
   2781150.714 9   2165356.18648  22044087.016    22044089.7254   22044094.8584
     -1163.901        -906.936
  -1804780.424 9  -1397380.35047  23511757.827    23511760.4624   23511766.1604
      -468.419        -365.002
  -2917505.785 9  -2268448.69048  20415299.776    20415302.4704   20415307.4144
       463.520         361.184
 96 11  5 17 20 29.9990000  0  8 31  3  1 17 25 23  9 21            -0.000978077
  -7023657.749 9  -5458299.54847  22411567.331    22411569.8634   22411575.2834
      1140.321         888.562
    217704.010 9    172907.83948  21561872.242    21561875.2854   21561880.4594
     -1136.575        -885.643
  -7723217.950 9  -6001174.88848  20085788.031    20085790.8434   20085795.8044
      1482.870        1155.483
   6288509.747 9   4896242.71846  23063510.800    23063513.4324   23063519.9474
     -2574.093       -2005.787
  -3670815.712 8  -2820461.00745  24733001.265    24733004.3404   24733011.7674
      3806.793        2966.332
   2816164.177 9   2192639.38248  22050749.990    22050752.5844   22050757.7314
     -1170.001        -911.689
  -1790427.205 9  -1386195.99047  23514488.766    23514491.6904   23514497.3564
      -488.244        -380.450
  -2931265.209 9  -2279170.31948  20412681.511    20412684.1694   20412689.0744
       454.053         353.808
 96 11  5 17 20 59.9990000  0  8 31  3  1 17 25 23  9 21            -0.000989475
  -7057552.599 9  -5484711.10547  22405117.049    22405119.8414   22405125.4114
      1118.892         871.864
    252078.079 9    199692.79848  21568413.275    21568416.4304   21568421.6304
     -1155.041        -900.032
  -7767411.605 9  -6035611.49148  20077378.143    20077381.0464   20077386.0254
      1463.094        1140.073
   6365875.786 9   4956527.87846  23078233.034    23078235.6924   23078242.2104
     -2584.009       -2013.514
  -3785065.812 8  -2909486.97945  24711259.937    24711263.0944   24711270.5044
      3809.461        2968.411
   2851351.128 9   2220057.76648  22057445.954    22057448.4634   22057453.6064
     -1175.909        -916.293
  -1775481.809 9  -1374550.19747  23517332.819    23517335.6404   23517341.1584
      -508.303        -396.080
  -2944757.322 9  -2289683.65248  20410113.977    20410116.7274   20410121.5924
       445.336         347.015
 96 11  5 17 21 29.9990000  0  8 31  3  1 17 25 23  9 21            -0.001000835
  -7090797.173 9  -5510615.98047  22398790.802    22398793.6924   22398799.2234
      1097.070         854.860
    286981.946 9    226890.58748  21575055.329    21575058.3944   21575063.6304
     -1172.172        -913.381
  -7811016.377 9  -6069589.22848  20069080.382    20069083.3294   20069088.3044
      1443.764        1125.011
   6443538.569 9   5017044.26546  23093011.553    23093014.3884   23093021.0454
     -2593.888       -2021.211
  -3899393.459 8  -2998573.35345  24689504.131    24689507.1844   24689514.5034
      3811.930        2970.335
   2886712.161 9   2247611.79348  22064174.739    22064177.4134   22064182.5684
     -1181.737        -920.834
  -1759948.125 9  -1362445.98947  23520288.647    23520291.7294   23520296.9554
      -527.545        -411.074
  -2958004.415 9  -2300006.06748  20407593.282    20407595.9034   20407600.7604
       437.563         340.958
 96 11  5 17 21 59.9980000  0  8 31  3  1 17 25 23  9 21            -0.001012133
  -7123367.950 9  -5535995.80447  22392592.813    22392595.6804   22392601.2174
      1074.080         836.945
    322412.516 9    254498.79148  21581797.514    21581800.6154   21581805.8654
     -1190.476        -927.644
  -7854037.013 9  -6103111.80048  20060893.862    20060896.7864   20060901.7344
      1423.919        1109.547
   6521516.714 9   5077806.40146  23107850.622    23107853.2114   23107859.8964
     -2605.222       -2030.043
  -4013764.559 8  -3087693.60746  24667740.314    24667743.0014   24667750.4524
      3812.615        2970.869
   2922256.312 9   2275308.51648  22070938.585    22070941.2744   22070946.4144
     -1188.351        -925.988
  -1743819.987 9  -1349878.58447  23523357.940    23523360.9054   23523366.1204
      -548.222        -427.186
  -2971009.326 9  -2310139.76448  20405118.587    20405121.1604   20405126.0164
       428.923         334.226
 96 11  5 17 22 29.9980000  0  8 31  3  1 17 25 23  9 21            -0.001023380
  -7155287.463 9  -5560868.15847  22386518.588    22386521.5894   22386527.0634
      1052.756         820.329
    358367.035 9    282515.27648  21588639.375    21588642.5294   21588647.7744
     -1207.389        -940.822
  -7896484.484 9  -6136187.74748  20052816.433    20052819.2844   20052824.2464
      1404.939        1094.758
   6599803.360 9   5138808.90646  23122748.220    23122750.7014   23122757.4134
     -2614.801       -2037.507
  -4128185.585 8  -3176852.79645  24645966.287    24645969.3864   24645976.8474
      3814.559        2972.384
   2957972.493 9   2303139.27948  22077735.060    22077737.8174   22077742.9914
     -1193.573        -930.057
  -1727094.342 9  -1336845.63147  23526540.565    23526543.6014   23526549.1614
      -567.607        -442.291
  -2983776.504 9  -2320088.21348  20402688.920    20402691.6254   20402696.4694
       421.242         328.240
 96 11  5 17 22 59.9980000  0  8 31  3  1 17 25 23  9 21            -0.001034567
  -7186524.856 9  -5585208.99147  22380574.211    22380577.2494   22380582.7654
      1030.109         802.682
    394855.862 9    310948.09948  21595582.977    21595586.1604   21595591.4144
     -1224.916        -954.480
  -7938339.797 9  -6168802.27648  20044851.611    20044854.4844   20044859.4634
      1385.773        1079.823
   6678417.032 9   5200066.25946  23137707.779    23137710.5024   23137717.1304
     -2625.870       -2046.132
  -4242636.564 8  -3266035.28345  24624187.001    24624189.9654   24624197.4004
      3815.698        2973.271
   2993871.103 9   2331112.19648  22084566.297    22084569.1284   22084574.2494
     -1199.424        -934.616
  -1709763.643 9  -1323341.21447  23529838.026    23529841.4604   23529846.9274
      -587.446        -457.750
  -2996280.280 9  -2329831.42148  20400309.452    20400312.2324   20400317.0824
       412.603         321.509
 96 11  5 17 23 29.9980000  0  8 31  3  1 17 25 23  9 21            -0.001045699
  -7217100.361 9  -5609034.06847  22374756.162    22374758.9694   22374764.5284
      1006.686         784.431
    431865.608 9    339786.83548  21602625.696    21602628.9174   21602634.1904
     -1244.267        -969.559
  -7979624.484 9  -6200972.16348  20036995.364    20036998.2614   20037003.2644
      1364.904        1063.562
   6757351.860 9   5261573.85546  23152728.630    23152731.3354   23152737.9864
     -2638.137       -2055.691
  -4357134.282 8  -3355254.25545  24602398.684    24602401.7804   24602409.1524
      3815.595        2973.191
   3029945.238 9   2359221.88248  22091430.913    22091433.7754   22091438.9264
     -1207.101        -940.598
  -1691849.975 9  -1309382.47747  23533247.265    23533250.4994   23533255.5704
      -608.639        -474.264
  -3008522.627 9  -2339370.90748  20397979.776    20397982.5794   20397987.4414
       401.895         313.165
 96 11  5 17 23 59.9980000  0  8 31  3  1 17 25 23  9 21            -0.001056789
  -7247045.590 9  -5632368.01047  22369057.686    22369060.5894   22369066.2054
       987.934         769.819
    469405.686 9    369038.81948  21609769.393    21609772.6134   21609777.8544
     -1260.211        -981.983
  -8020346.210 9  -6232703.37848  20029246.324    20029249.1774   20029254.2084
      1347.931        1050.336
   6836596.622 9   5323322.95746  23167808.327    23167811.1574   23167817.8134
     -2646.549       -2062.246
  -4471684.593 8  -3444514.19845  24580600.959    24580603.6154   24580610.8764
      3819.275        2976.058
   3066177.953 9   2387455.14348  22098325.817    22098328.6494   22098333.8484
     -1210.208        -943.019
  -1673355.849 9  -1294971.49547  23536766.712    23536769.8734   23536775.0074
      -626.068        -487.845
  -3020501.345 9  -2348704.96848  20395700.246    20395703.0814   20395707.9604
       394.878         307.697
 96 11  5 17 24 29.9980000  0  8 31  3  1 17 25 23  9 21            -0.001067856
  -7276385.527 9  -5655230.30047  22363474.682    22363477.4304   22363483.0274
       967.838         754.159
    507471.420 9    398700.40348  21617013.087    21617016.3194   21617021.6144
     -1277.515        -995.466
  -8060501.601 9  -6263993.29448  20021605.031    20021607.8884   20021612.9244
      1329.051        1035.624
   6916130.036 9   5385296.98646  23182943.091    23182945.9344   23182952.5924
     -2655.800       -2069.455
  -4586297.978 8  -3533823.26946  24558790.360    24558793.3994   24558800.5124
      3821.506        2977.797
   3102547.354 9   2415794.91148  22105246.516    22105249.5264   22105254.7044
     -1214.432        -946.311
  -1654285.158 9  -1280111.25747  23540395.486    23540398.8154   23540404.1214
      -645.381        -502.894
  -3032218.311 9  -2357835.06048  20393470.639    20393473.3934   20393478.3124
       386.284         301.000
 96 11  5 17 24 59.9980000  0  8 31  3  1 17 25 23  9 21            -0.001078891
  -7305105.519 9  -5677609.51847  22358009.566    22358012.2194   22358017.8374
       947.633         738.415
    546077.351 9    428782.91448  21624359.716    21624362.8274   21624368.1564
     -1295.453       -1009.444
  -8100071.090 9  -6294826.66448  20014075.079    20014078.0534   20014083.0874
      1309.777        1020.605
   6995964.221 9   5447505.38446  23198135.004    23198137.9364   23198144.5594
     -2665.800       -2077.247
  -4700953.259 8  -3623165.00545  24536971.896    24536975.0984   24536982.2884
      3822.833        2978.831
   3139060.691 9   2444246.82848  22112194.708    22112197.7854   22112202.9814
     -1219.149        -949.986
  -1634616.052 9  -1264784.70847  23544138.359    23544141.7004   23544147.0294
      -665.307        -518.421
  -3043660.327 9  -2366750.91448  20391293.331    20391296.0244   20391300.9444
       377.225         293.942
 96 11  5 17 25 29.9980000  0  8 31  3  1 17 25 23  9 21            -0.001089899
  -7333227.245 9  -5699522.55247  22352658.173    22352660.8664   22352666.4324
       927.916         723.051
    585212.889 9    459278.10448  21631807.065    21631810.0824   21631815.4534
     -1312.629       -1022.828
  -8139071.995 9  -6325216.98048  20006653.473    20006656.4274   20006661.4544
      1291.277        1006.190
   7076085.148 9   5509937.21546  23213381.631    23213384.5364   23213391.2384
     -2674.757       -2084.226
  -4815643.684 8  -3712534.12945  24515146.639    24515150.2184   24515157.2444
      3824.039        2979.771
   3175715.414 9   2472808.92148  22119169.919    22119172.9854   22119178.1924
     -1223.521        -953.393
  -1614347.338 9  -1248990.95147  23547995.429    23547998.7454   23548004.0164
      -684.960        -533.735
  -3054829.877 9  -2375454.46248  20389167.788    20389170.5114   20389175.4674
       368.323         287.005
 96 11  5 17 25 59.9980000  0  8 31  3  1 17 25 23  9 21            -0.001100886
  -7360754.970 9  -5720972.73347  22347419.854    22347422.5274   22347428.0114
       907.340         707.018
    624861.986 9    490173.46948  21639351.929    21639355.0774   21639360.4874
     -1330.208       -1036.526
  -8177526.509 9  -6355181.53148  19999335.854    19999338.7894   19999343.8384
      1272.464         991.530
   7156475.094 9   5572578.67846  23228679.526    23228682.2224   23228688.9964
     -2684.183       -2091.571
  -4930367.355 8  -3801929.14945  24493315.121    24493318.9614   24493326.0534
      3824.545        2980.165
   3212501.041 9   2501473.01548  22126170.187    22126173.0644   22126178.2524
     -1228.711        -957.437
  -1593495.282 9  -1232742.62647  23551963.616    23551966.7984   23551971.8704
      -704.864        -549.245
  -3065725.796 9  -2383944.79148  20387094.420    20387097.0974   20387102.0764
       358.435         279.300
 96 11  5 17 26 29.9980000  0  8 31  3  1 17 25 23  9 21            -0.001111855
  -7387673.147 9  -5741947.94147  22342297.287    22342300.0814   22342305.6464
       886.975         691.149
    665015.625 9    521461.98348  21646992.845    21646996.0264   21647001.5124
     -1346.639       -1049.329
  -8215423.037 9  -6384711.28748  19992124.337    19992127.3134   19992132.3724
      1254.144         977.255
   7237124.886 9   5635422.60546  23244026.469    23244029.3444   23244036.1954
     -2692.553       -2098.093
  -5045122.779 8  -3891348.95345  24471478.772    24471481.7144   24471488.8164
      3825.755        2981.108
   3249435.281 9   2530252.91948  22133198.671    22133201.4704   22133206.6544
     -1233.567        -961.221
  -1572059.546 9  -1216039.49147  23556042.840    23556046.0154   23556051.0524
      -724.067        -564.208
  -3076342.330 9  -2392217.41648  20385074.272    20385076.8364   20385081.8134
       349.445         272.295
 96 11  5 17 26 59.9980000  0  8 31  3  1 17 25 23  9 21            -0.001122789
  -7413967.887 9  -5762437.35047  22337293.166    22337296.3284   22337301.9614
       865.525         674.435
    705672.144 9    553142.35348  21654729.557    21654732.7274   21654738.1794
     -1364.100       -1062.935
  -8252765.616 9  -6413809.39648  19985018.191    19985021.2734   19985026.3254
      1235.111         962.424
   7318046.758 9   5698478.54546  23259425.267    23259428.2974   23259435.1944
     -2702.590       -2105.914
  -5159898.638 8  -3980784.64445  24449637.952    24449640.5694   24449647.6454
      3825.582        2980.973
   3286530.746 9   2559158.45148  22140257.729    22140260.5574   22140265.7144
     -1239.884        -966.143
  -1550049.275 9  -1198888.68147  23560231.415    23560234.4994   23560239.6064
      -743.652        -579.469
  -3086679.182 9  -2400272.11848  20383107.107    20383109.8184   20383114.7884
       339.270         264.366
 96 11  5 17 27 29.9980000  0  8 31  3  1 17 25 23  9 21            -0.001133673
  -7439623.502 9  -5782428.73747  22332411.315    22332414.2654   22332419.8734
       843.988         657.653
    746841.093 9    585222.02948  21662563.815    21662566.9604   21662572.4074
     -1381.217       -1076.273
  -8289542.811 9  -6442466.94148  19978019.782    19978022.7974   19978027.8594
      1215.609         947.228
   7399256.688 9   5761758.95146  23274879.161    23274882.1384   23274889.0024
     -2712.281       -2113.466
  -5274676.869 8  -4070222.17245  24427795.911    24427798.9514   24427806.0624
      3825.606        2980.992
   3323813.933 9   2588210.26648  22147352.410    22147355.3444   22147360.5074
     -1246.302        -971.144
  -1527467.978 9  -1181292.92747  23564528.179    23564531.4774   23564536.7604
      -762.501        -594.157
  -3096718.777 9  -2408095.18448  20381196.618    20381199.3654   20381204.3254
       329.317         256.611
 96 11  5 17 27 59.9980000  0  8 31  3  1 17 25 23  9 21            -0.001144527
  -7464638.542 9  -5801920.98647  22327650.783    22327654.0044   22327659.6644
       823.069         641.352
    788514.944 9    617695.13448  21670494.237    21670497.3134   21670502.7234
     -1397.527       -1088.982
  -8325726.897 9  -6470662.32548  19971134.144    19971137.1974   19971142.2524
      1196.006         931.953
   7480755.746 9   5825264.64846  23290388.110    23290390.9884   23290397.7604
     -2721.607       -2120.733
  -5389468.760 8  -4159670.38645  24405951.651    24405954.7654   24405961.8944
      3826.662        2981.814
   3361276.863 9   2617402.14348  22154481.341    22154484.3744   22154489.5334
     -1251.648        -975.310
  -1504329.570 9  -1163263.05047  23568931.046    23568934.5414   23568939.7954
      -780.616        -608.272
  -3106474.573 9  -2415697.10548  20379340.090    20379342.9394   20379347.8514
       320.658         249.863
 96 11  5 17 28 29.9980000  0  8 31  3  1 17 25 23  9 21            -0.001155358
  -7489021.690 9  -5820920.85947  22323011.037    22323014.1384   22323019.6874
       802.957         625.681
    830679.402 9    650550.52548  21678517.744    21678520.9544   21678526.4004
     -1412.949       -1100.999
  -8361313.000 9  -6498391.74548  19964362.328    19964365.3764   19964370.4214
      1177.169         917.274
   7562547.394 9   5888998.33246  23305952.246    23305955.4704   23305962.3434
     -2730.584       -2127.728
  -5504278.577 8  -4249132.53245  24384103.616    24384107.1084   24384114.2374
      3827.876        2982.761
   3398898.064 9   2646717.34548  22161640.477    22161643.5054   22161648.6614
     -1255.828        -978.567
  -1480633.073 9  -1144798.26946  23573440.560    23573443.9204   23573448.8604
      -798.475        -622.188
  -3115976.312 9  -2423101.05748  20377531.992    20377534.8504   20377539.7314
       313.380         244.192
 96 11  5 17 28 59.9980000  0  8 31  3  1 17 25 23  9 21            -0.001166174
  -7512796.146 9  -5839446.42247  22318486.655    22318489.9974   22318495.5324
       782.688         609.887
    873313.956 9    683772.21848  21686630.957    21686634.0664   21686639.5214
     -1428.646       -1113.231
  -8396332.784 9  -6525679.87948  19957698.309    19957701.3474   19957706.3734
      1158.228         902.515
   7644617.326 9   5952948.85446  23321569.952    23321572.8664   23321579.7654
     -2739.904       -2134.990
  -5619125.826 8  -4338623.85545  24362248.451    24362252.2974   24362259.6694
      3829.291        2983.863
   3436648.035 9   2676132.89048  22168823.814    22168827.0594   22168832.2804
     -1260.112        -981.905
  -1456400.793 9  -1125916.00247  23578051.805    23578055.2224   23578060.2944
      -816.522        -636.251
  -3125256.465 9  -2430332.35448  20375765.826    20375768.9204   20375773.7884
       305.874         238.343
 96 11  5 17 29 29.9980000  0  8 31  3  1 17 25 23  9 21            -0.001176975
  -7535962.670 9  -5857498.27047  22314078.482    22314081.5734   22314087.0704
       761.931         593.712
    916417.507 9    717359.37048  21694833.298    21694836.4494   21694841.9064
     -1444.670       -1125.717
  -8430783.358 9  -6552524.46748  19951142.517    19951145.6064   19951150.6304
      1138.713         887.309
   7726962.427 9   6017113.79846  23337239.670    23337242.6984   23337249.5854
     -2749.592       -2142.539
  -5734014.411 8  -4428147.38245  24340386.156    24340389.7484   24340396.9704
      3830.370        2984.704
   3474519.596 9   2705643.18448  22176030.675    22176033.7914   22176039.0054
     -1264.275        -985.149
  -1431617.433 9  -1106604.37747  23582767.867    23582771.2274   23582776.7404
      -835.522        -651.056
  -3134312.946 9  -2437389.36748  20374042.394    20374045.5424   20374050.3994
       298.167         232.338
 96 11  5 17 29 59.9980000  0  8 31  3  1 17 25 23  9 21            -0.001187747
  -7558504.109 9  -5875063.03847  22309789.128    22309792.0944   22309797.5764
       740.767         577.221
    959998.757 9    751318.75248  21703126.503    21703129.6774   21703135.1684
     -1460.812       -1138.295
  -8464662.602 9  -6578923.86448  19944695.533    19944698.5914   19944703.6004
      1120.025         872.747
   7809598.365 9   6081505.35846  23352964.944    23352967.9024   23352974.7324
     -2759.500       -2150.260
  -5848939.333 8  -4517699.21445  24318517.423    24318520.2734   24318527.2694
      3831.212        2985.360
   3512509.695 9   2735245.84948  22183260.204    22183263.1304   22183268.3294
     -1268.570        -988.496
  -1406255.308 9  -1086841.69547  23587594.323    23587597.6764   23587602.8274
      -855.363        -666.517
  -3143151.086 9  -2444276.23448  20372360.677    20372363.7144   20372368.5724
       290.922         226.692
 96 11  5 17 30 29.9980000  0  8 31  3  1 17 25 23  9 21            -0.001198465
  -7580404.719 9  -5892128.45647  22305621.410    22305624.5264   22305630.0534
       719.283         560.480
   1004069.513 9    785659.56448  21711512.846    21711516.0464   21711521.5794
     -1477.264       -1151.115
  -8497989.059 9  -6604892.51848  19938353.730    19938356.7504   19938361.7754
      1101.831         858.570
   7892532.491 9   6146129.28146  23368746.731    23368749.8424   23368756.6984
     -2769.132       -2157.765
  -5963885.932 8  -4607267.93645  24296643.166    24296646.4754   24296653.5634
      3832.111        2986.061
   3550635.490 9   2764954.25748  22190515.443    22190518.2534   22190523.4014
     -1273.120        -992.042
  -1380289.887 9  -1066608.88946  23592535.821    23592538.9054   23592543.8674
      -875.348        -682.089
  -3151762.669 9  -2450986.56448  20370721.951    20370725.0004   20370729.8614
       283.200         220.675
 96 11  5 17 30 59.9980000  0  8 31  3  1 17 25 23  9 21            -0.001209130
  -7601661.140 9  -5908691.91647  22301576.760    22301579.6384   22301585.0704
       698.246         544.088
   1048640.972 9    820390.53548  21719994.542    21719997.7494   21720003.2944
     -1493.687       -1163.912
  -8530766.846 9  -6630433.63248  19932116.291    19932119.3504   19932124.3714
      1083.825         844.539
   7975747.461 9   6210972.03546  23384582.247    23384585.1754   23384592.0234
     -2778.179       -2164.815
  -6078862.525 8  -4696860.03245  24274763.028    24274767.3044   24274774.2374
      3833.347        2987.024
   3588898.678 9   2794769.72048  22197796.801    22197799.5114   22197804.7274
     -1277.342        -995.331
  -1353737.208 9  -1045918.54246  23597588.126    23597591.4144   23597596.6544
      -894.361        -696.905
  -3160132.953 9  -2457508.86848  20369129.172    20369132.2154   20369137.0444
       275.190         214.434
 96 11  5 17 31 29.9980000  0  8 31  3  1 17 25 23  9 21            -0.001219749
  -7622284.982 9  -5924762.44747  22297652.140    22297655.0404   22297660.5674
       677.081         527.596
   1093706.277 9    855506.32748  21728570.298    21728573.4384   21728579.0044
     -1510.138       -1176.731
  -8563002.775 9  -6655552.52148  19925981.956    19925985.0474   19925990.0784
      1065.674         830.395
   8059239.512 9   6276030.69546  23400470.512    23400473.1754   23400480.0464
     -2787.537       -2172.107
  -6193874.447 8  -4786479.63945  24252877.460    24252881.1504   24252888.1744
      3834.588        2987.991
   3627296.842 9   2824690.35748  22205103.640    22205106.4494   22205111.6344
     -1282.130        -999.062
  -1326614.494 9  -1024783.97347  23602749.605    23602752.8624   23602758.0934
      -913.158        -711.552
  -3168259.636 9  -2463841.34648  20367582.890    20367585.7784   20367590.6164
       267.142         208.163
 96 11  5 17 31 59.9980000  0  8 31  3  1 17 25 23  9 21            -0.001230317
  -7642267.497 9  -5940333.22547  22293849.314    22293852.4414   22293858.0444
       655.209         510.552
   1139266.952 9    891008.12548  21737240.061    21737243.3654   21737248.9044
     -1527.177       -1190.008
  -8594696.732 9  -6680249.09448  19919950.736    19919953.8844   19919958.9094
      1047.241         816.032
   8143013.083 9   6341308.72746  23416412.031    23416414.7564   23416421.6054
     -2797.215       -2179.648
  -6308916.322 9  -4876122.60745  24230985.915    24230989.2624   24230996.3984
      3834.895        2988.230
   3665848.851 9   2854730.86847  22212440.036    22212442.6814   22212447.8154
     -1287.987       -1003.626
  -1298922.626 9  -1003205.89646  23608019.441    23608022.4054   23608027.6834
      -932.779        -726.841
  -3176136.059 9  -2469978.80648  20366084.004    20366086.9724   20366091.8004
       257.956         201.005
 96 11  5 17 32 29.9980000  0  8 31  3  1 17 25 23  9 21            -0.001240834
  -7661606.929 9  -5955402.91047  22290169.165    22290172.2774   22290177.8864
       634.448         494.375
   1185325.664 9    926898.00048  21746004.950    21746008.0474   21746013.6074
     -1543.084       -1202.403
  -8625840.055 9  -6704516.60048  19914024.299    19914027.5124   19914032.5224
      1029.264         802.024
   8227060.219 9   6406799.92346  23432405.764    23432408.4874   23432415.2844
     -2805.610       -2186.190
  -6423968.646 8  -4965773.73045  24209092.857    24209095.5164   24209102.5734
      3835.550        2988.740
   3704564.448 9   2884898.85047  22219807.363    22219810.0164   22219815.1414
     -1292.763       -1007.348
  -1270667.433 9   -981188.87546  23613395.788    23613399.0304   23613404.1374
      -950.472        -740.628
  -3183736.141 9  -2475900.94248  20364637.764    20364640.7294   20364645.5624
       249.079         194.088
 96 11  5 17 32 59.9980000  0  8 31  3  1 17 25 23  9 21            -0.001251317
  -7680322.129 9  -5969986.18547  22286608.037    22286610.9294   22286616.5144
       613.509         478.059
   1231857.801 9    963156.77048  21754859.755    21754862.8554   21754868.4354
     -1558.550       -1214.455
  -8656435.950 9  -6728357.53948  19908202.142    19908205.2714   19908210.2864
      1010.813         787.646
   8311369.724 9   6472495.57046  23448449.549    23448452.1014   23448459.0334
     -2814.843       -2193.384
  -6539035.015 8  -5055435.78945  24187196.334    24187199.1874   24187206.0844
      3835.551        2988.741
   3743439.316 9   2915190.94447  22227205.018    22227207.6744   22227212.8014
     -1298.687       -1011.964
  -1241872.468 9   -958751.23547  23618875.624    23618878.7604   23618883.6554
      -969.061        -755.112
  -3191067.101 9  -2481613.36948  20363242.643    20363245.6804   20363250.5354
       240.020         187.029
 96 11  5 17 33 29.9980000  0  8 31  3  1 17 25 23  9 21            -0.001261763
  -7698420.883 9  -5984089.11347  22283163.951    22283166.8234   22283172.3864
       592.560         461.735
   1278829.269 9    999757.88048  21763797.948    21763801.2354   21763806.8554
     -1573.255       -1225.913
  -8686489.771 9  -6751776.08648  19902483.121    19902486.2114   19902491.2244
       992.334         773.247
   8395945.197 9   6538398.46146  23464543.558    23464546.2694   23464553.3134
     -2823.833       -2200.389
  -6654103.996 8  -5145099.87245  24165299.247    24165302.2324   24165309.1544
      3835.264        2988.517
   3782485.959 9   2945616.88747  22234635.265    22234638.0194   22234643.1044
     -1304.749       -1016.688
  -1212516.394 9   -935876.36746  23624461.903    23624465.1264   23624470.0754
      -988.355        -770.147
  -3198140.111 9  -2487124.79848  20361896.742    20361899.7554   20361904.5904
       231.075         180.058
 96 11  5 17 33 59.9980000  0  8 31  3  1 17 25 23  9 21            -0.001272170
  -7715894.279 9  -5997704.74747  22279838.615    22279841.7504   22279847.3424
       572.217         445.883
   1326233.802 9   1036696.44448  21772818.849    21772822.0274   21772827.6684
     -1587.251       -1236.819
  -8715995.484 9  -6774767.53848  19896868.343    19896871.4484   19896876.4684
       974.378         759.255
   8480770.728 9   6604496.19446  23480685.226    23480688.0734   23480695.1284
     -2831.345       -2206.243
  -6769167.180 8  -5234759.45845  24143403.319    24143406.5064   24143413.4354
      3835.442        2988.656
   3821701.713 9   2976174.59847  22242097.718    22242100.5314   22242105.6494
     -1309.827       -1020.644
  -1182578.525 9   -912548.20646  23630158.650    23630161.7554   23630167.0804
     -1007.500        -785.065
  -3204946.700 9  -2492428.62248  20360601.589    20360604.5224   20360609.3424
       222.580         173.439
 96 11  5 17 34 29.9980000  0  8 31  3  1 17 25 23  9 21            -0.001282557
  -7732767.453 9  -6010852.67747  22276628.008    22276630.9024   22276636.4744
       552.599         430.597
   1374056.131 9   1073960.56648  21781918.991    21781922.3254   21781928.0064
     -1600.856       -1247.420
  -8744953.296 9  -6797332.05848  19891357.824    19891360.9644   19891365.9514
       956.174         745.071
   8565822.832 9   6670770.48746  23496870.148    23496872.9264   23496880.0594
     -2838.828       -2212.074
  -6884236.143 8  -5324423.54545  24121506.712    24121509.4204   24121516.4504
      3836.055        2989.134
   3861071.768 9   3006852.54447  22249589.631    22249592.4274   22249597.5644
     -1314.800       -1024.519
  -1152081.578 9   -888784.33346  23635962.306    23635965.3854   23635970.4254
     -1025.679        -799.230
  -3211501.248 9  -2497536.05448  20359354.264    20359357.2344   20359362.0554
       214.464         167.115
 96 11  5 17 34 59.9980000  0  8 31  3  1 17 25 23  9 21            -0.001292931
  -7749044.058 9  -6023535.74347  22273530.682    22273533.6094   22273539.1174
       532.576         414.994
   1422298.001 9   1111551.59748  21791098.951    21791102.4564   21791108.1584
     -1615.155       -1258.562
  -8773354.140 9  -6819462.58148  19885953.289    19885956.4744   19885961.4444
       937.461         730.489
   8651106.508 9   6737225.21446  23513098.875    23513102.0654   23513109.1714
     -2846.505       -2218.056
  -6999326.117 8  -5414104.01446  24099605.301    24099608.3804   24099615.4404
      3836.739        2989.667
   3900596.441 9   3037650.97547  22257111.061    22257113.7494   22257118.8944
     -1319.824       -1028.434
  -1121023.007 9   -864582.86246  23641872.624    23641875.5104   23641880.7774
     -1044.772        -814.108
  -3217806.929 9  -2502449.57248  20358154.398    20358157.3054   20358162.1154
       206.083         160.584
 96 11  5 17 35 29.9980000  0  8 31  3  1 17 25 23  9 21            -0.001303287
  -7764721.758 9  -6035752.13547  22270547.362    22270550.3054   22270555.7454
       512.580         399.413
   1470979.178 9   1149484.95448  21800362.771    21800366.2364   21800371.8934
     -1630.366       -1270.415
  -8801195.531 9  -6841157.16348  19880655.249    19880658.4114   19880663.3874
       918.692         715.864
   8736616.443 9   6803856.28646  23529371.056    23529374.2244   23529381.1904
     -2854.128       -2223.996
  -7114440.115 8  -5503803.20146  24077700.482    24077702.9094   24077709.9364
      3837.648        2990.375
   3940258.567 9   3068556.51347  22264658.478    22264661.2454   22264666.3494
     -1324.178       -1031.827
  -1089397.688 9   -839939.75946  23647890.970    23647893.6894   23647899.1174
     -1063.365        -828.596
  -3223857.089 9  -2507163.97648  20357003.021    20357005.9854   20357010.8254
       197.248         153.700
 96 11  5 17 35 59.9980000  0  8 31  3  1 17 25 23  9 21            -0.001313624
  -7779783.988 9  -6047488.92947  22267681.060    22267684.0344   22267689.4904
       491.877         383.281
   1520135.646 9   1187788.67148  21809717.016    21809720.4454   21809726.0764
     -1646.527       -1283.008
  -8828467.570 9  -6862408.09948  19875465.520    19875468.7144   19875473.6884
       899.617         701.000
   8822366.805 9   6870674.66246  23545688.898    23545692.0394   23545698.9554
     -2862.628       -2230.619
  -7229573.334 9  -5593517.36646  24055791.345    24055793.8894   24055800.7544
      3837.969        2990.625
   3980051.115 9   3099563.68847  22272230.662    22272233.5514   22272238.6124
     -1328.595       -1035.269
  -1057222.066 9   -814867.83646  23654013.581    23654016.2894   23654021.6934
     -1081.502        -842.729
  -3229635.334 9  -2511666.50148  20355903.392    20355906.4254   20355911.2264
       188.288         146.718
 96 11  5 17 36 29.9980000  0  8 31  3  1 17 25 23  9 21            -0.001323945
  -7794243.351 9  -6058755.97147  22264929.591    22264932.5064   22264937.9854
       471.218         367.183
   1569761.385 9   1226458.04548  21819160.553    21819163.9594   21819169.5924
     -1662.359       -1295.345
  -8855180.465 9  -6883223.33348  19870382.220    19870385.4474   19870390.3924
       880.769         686.313
   8908374.754 9   6937693.76446  23562055.632    23562058.7764   23562065.8144
     -2871.900       -2237.844
  -7344726.208 9  -5683246.84646  24033877.658    24033881.1084   24033887.8434
      3838.090        2990.719
   4019961.541 9   3130662.70047  22279825.186    22279828.2644   22279833.3434
     -1332.704       -1038.471
  -1024520.355 9   -789385.99346  23660236.290    23660239.0614   23660244.5474
     -1099.369        -856.651
  -3235160.937 9  -2515972.16248  20354851.894    20354854.9114   20354859.7164
       179.421         139.809
 96 11  5 17 36 59.9980000  0  8 31  3  1 17 25 23  9 21            -0.001334233
  -7808082.243 9  -6069539.53347  22262296.169    22262299.0834   22262304.5094
       450.858         351.318
   1619854.458 9   1265491.56948  21828693.133    21828696.3944   21828702.0064
     -1677.453       -1307.106
  -8881339.845 9  -6903607.26448  19865404.178    19865407.4734   19865412.4144
       862.880         672.374
   8994652.729 9   7004923.27446  23578474.085    23578477.0364   23578484.0424
     -2880.344       -2244.424
  -7459873.471 9  -5772971.95846  24011965.970    24011969.3294   24011976.0974
      3837.839        2990.524
   4059987.361 9   3161851.63647  22287442.078    22287444.9224   22287450.0094
     -1336.135       -1041.144
   -991280.340 9   -763484.67646  23666561.907    23666564.5644   23666569.9074
     -1117.070        -870.444
  -3240424.984 9  -2520074.01648  20353850.217    20353853.1844   20353858.0064
       171.153         133.366
 96 11  5 17 37 29.9980000  0  8 31  3  1 17 25 23  9 21            -0.001344499
  -7821316.139 9  -6079851.67147  22259777.773    22259780.7294   22259786.1744
       431.240         336.031
   1670380.166 9   1304862.20648  21838307.825    21838311.1244   21838316.7624
     -1690.817       -1317.520
  -8906971.461 9  -6923579.95148  19860526.679    19860529.9344   19860534.8564
       846.006         659.225
   9081180.549 9   7072347.46546  23594940.124    23594942.8104   23594949.8064
     -2888.039       -2250.420
  -7575008.785 8  -5862687.74046  23990056.743    23990059.6204   23990066.5314
      3838.013        2990.659
   4100110.063 9   3193116.05147  22295077.190    22295080.0204   22295085.1084
     -1338.702       -1043.144
   -957526.819 9   -737183.21946  23672985.000    23672987.6284   23672993.0134
     -1133.055        -882.900
  -3245453.087 9  -2523992.01348  20352893.363    20352896.3544   20352901.1804
       164.209         127.955
 96 11  5 17 37 59.9980000  0  8 31  3  1 17 25 23  9 21            -0.001354744
  -7833937.966 9  -6089686.86247  22257375.789    22257378.8714   22257384.2944
       410.398         319.791
   1721316.212 9   1344552.58648  21848000.632    21848003.9634   21848009.6554
     -1704.740       -1328.369
  -8932080.285 9  -6943145.26648  19855748.635    19855751.8904   19855756.8324
       828.082         645.259
   9167949.557 9   7139959.58546  23611451.374    23611454.4694   23611461.4654
     -2896.332       -2256.882
  -7690131.631 8  -5952393.82846  23968148.938    23968152.4574   23968159.4124
      3837.099        2989.947
   4140331.879 9   3224457.70647  22302731.330    22302734.0424   22302739.1384
     -1342.783       -1046.324
   -923275.869 9   -710494.17246  23679502.771    23679505.3654   23679510.9524
     -1150.250        -896.299
  -3250268.275 9  -2527744.10748  20351977.097    20351980.0374   20351984.8604
       156.870         122.236
 96 11  5 17 38 29.9980000  0  8 31  3  1 17 25 23  9 21            -0.001364961
  -7845940.243 9  -6099039.29947  22255091.827    22255094.9324   22255100.3814
       390.365         304.180
   1772656.681 9   1384558.10048  21857770.404    21857773.7724   21857779.4374
     -1717.377       -1338.216
  -8956653.685 9  -6962293.36648  19851072.481    19851075.7384   19851080.6784
       810.866         631.844
   9254950.539 9   7207752.47646  23628007.345    23628010.3254   23628017.3874
     -2902.954       -2262.042
  -7805230.825 9  -6042081.47346  23946247.164    23946249.8084   23946256.7094
      3836.985        2989.858
   4180685.834 9   3255902.32547  22310410.430    22310413.1644   22310418.2634
     -1346.714       -1049.388
   -888508.666 9   -683402.83646  23686118.680    23686121.3684   23686126.8464
     -1166.865        -909.245
  -3254861.157 9  -2531322.97448  20351103.152    20351106.0374   20351110.8664
       149.908         116.811
 96 11  5 17 38 59.9980000  0  8 31  3  1 17 25 23  9 21            -0.001375163
  -7857345.023 9  -6107926.15647  22252921.761    22252924.6614   22252930.0974
       370.447         288.660
   1824383.356 9   1424864.55448  21867613.620    21867617.0524   21867622.7354
     -1730.625       -1348.539
  -8980712.861 9  -6981040.77348  19846494.203    19846497.4364   19846502.3584
       793.566         618.363
   9342151.289 9   7275701.01646  23644601.069    23644604.1714   23644611.3674
     -2909.911       -2267.463
  -7920327.018 8  -6131766.79346  23924345.269    23924347.7684   23924354.6374
      3836.637        2989.587
   4221160.423 9   3287440.95047  22318112.664    22318115.3144   22318120.3974
     -1351.149       -1052.843
   -853238.759 9   -655919.76646  23692830.186    23692833.1314   23692838.4444
     -1183.914        -922.530
  -3259243.030 9  -2534737.41948  20350269.283    20350272.1774   20350277.0054
       142.796         111.270
 96 11  5 17 39 29.9980000  0  8 31  3  1 17 25 23  9 21            -0.001385343
  -7868144.799 9  -6116341.56747  22250866.558    22250869.5984   22250874.9074
       349.998         272.726
   1876515.863 9   1465487.24348  21877534.300    21877537.5954   21877543.2874
     -1744.500       -1359.351
  -9004244.182 9  -6999376.86248  19842016.338    19842019.5954   19842024.4984
       775.700         604.442
   9429566.958 9   7343817.04346  23661235.734    23661238.9454   23661246.0974
     -2917.323       -2273.239
  -8035417.959 9  -6221447.98646  23902444.217    23902446.7084   23902453.5654
      3836.622        2989.575
   4261768.857 9   3319083.85747  22325840.211    22325842.8834   22325847.9894
     -1355.629       -1056.334
   -817458.674 9   -628039.15446  23699638.678    23699641.5804   23699646.9384
     -1201.004        -935.847
  -3263411.717 9  -2537985.75448  20349475.971    20349478.8994   20349483.7264
       135.523         105.602
 96 11  5 17 39 59.9980000  0  8 31  3  1 17 25 23  9 21            -0.001395497
  -7878344.227 9  -6124289.18647  22248925.932    22248928.7494   22248934.0814
       330.702         257.690
   1929074.104 9   1506441.67148  21887535.945    21887539.1424   21887544.8324
     -1758.704       -1370.419
  -9027240.144 9  -7017295.78948  19837640.449    19837643.6344   19837648.5034
       757.905         590.575
   9517206.695 9   7412107.66846  23677913.030    23677916.2894   23677923.4634
     -2924.806       -2279.070
  -8150506.510 8  -6311127.31646  23880543.453    23880546.1634   23880552.9174
      3836.461        2989.450
   4302523.991 9   3350841.07947  22333595.729    22333598.3624   22333603.4594
     -1360.743       -1060.319
   -781159.484 9   -599754.04946  23706545.719    23706549.1214   23706554.5584
     -1218.418        -949.417
  -3267348.637 9  -2541053.49048  20348726.823    20348729.7054   20348734.5474
       127.359          99.241
 96 11  5 17 40 29.9980000  0  8 31  3  1 17 25 23  9 21            -0.001405637
  -7887983.362 9  -6131800.21947  22247091.590    22247094.4434   22247099.8654
       311.951         243.079
   1982046.979 9   1547719.18548  21897616.231    21897619.5214   21897625.2334
     -1772.681       -1381.310
  -9049710.026 9  -7034804.78048  19833364.558    19833367.7674   19833372.6104
       740.310         576.865
   9605076.717 9   7480577.70746  23694633.974    23694637.4074   23694644.6124
     -2932.960       -2285.423
  -8265592.886 9  -6400804.92946  23858642.977    23858645.9494   23858652.6894
      3835.991        2989.084
   4343420.623 9   3382708.56047  22341378.031    22341380.7534   22341385.8204
     -1365.252       -1063.833
   -744337.159 9   -571061.33246  23713552.891    23713556.1994   23713561.9284
     -1236.156        -963.238
  -3271039.643 9  -2543929.59848  20348024.535    20348027.3384   20348032.1744
       118.934          92.676
 96 11  5 17 40 59.9980000  0  8 31  3  1 17 25 23  9 21            -0.001415763
  -7897065.514 9  -6138877.21947  22245363.458    22245366.2024   22245371.6224
       292.850         228.195
   2035438.756 9   1589323.12648  21907776.553    21907779.6734   21907785.3454
     -1787.079       -1392.529
  -9071658.376 9  -7051907.38448  19829187.989    19829191.1704   19829195.9914
       722.532         563.012
   9693186.684 9   7549234.74346  23711400.958    23711404.2674   23711411.6094
     -2941.278       -2291.905
  -8380665.951 9  -6490472.17046  23836744.259    23836748.0944   23836755.0304
      3835.091        2988.383
   4384429.167 9   3414663.24147  22349181.689    22349184.4334   22349189.5434
     -1369.186       -1066.898
   -706991.986 9   -541961.18946  23720659.363    23720662.7304   23720668.2674
     -1253.866        -977.038
  -3274486.669 9  -2546615.59548  20347368.589    20347371.4004   20347376.2074
       110.494          86.099
 96 11  5 17 41 29.9980000  0  8 31  3  1 17 25 23  9 21            -0.001425868
  -7905573.003 9  -6145506.44047  22243744.456    22243747.2464   22243752.6524
       273.953         213.470
   2089254.755 9   1631257.62148  21918017.264    21918020.5594   21918026.2584
     -1800.865       -1403.271
  -9093074.857 9  -7068595.54348  19825112.596    19825115.7864   19825120.5944
       705.013         549.361
   9781532.802 9   7618075.77746  23728212.807    23728216.0104   23728223.3344
     -2948.698       -2297.687
  -8495713.919 9  -6580119.84946  23814851.580    23814855.0664   23814862.0594
      3834.503        2987.924
   4425557.069 9   3446710.92847  22357007.844    22357010.8154   22357015.9314
     -1373.165       -1069.999
   -669119.642 9   -512450.24346  23727866.050    23727869.5554   23727874.7944
     -1271.286        -990.612
  -3277677.894 9  -2549102.26748  20346761.244    20346764.1464   20346768.9194
       101.871          79.380
 96 11  5 17 41 59.9980000  0  8 31  3  1 17 25 23  9 21            -0.001435954
  -7913519.283 9  -6151698.35947  22242232.059    22242235.0314   22242240.5724
       255.814         199.335
   2143476.065 9   1673507.94348  21928335.292    21928338.5414   21928344.3024
     -1813.559       -1413.163
  -9113975.402 9  -7084881.67548  19821135.349    19821138.5534   19821143.3884
       688.522         536.511
   9870096.450 9   7687086.34646  23745066.204    23745069.2384   23745076.4824
     -2955.358       -2302.876
  -8610743.477 9  -6669753.16946  23792961.849    23792965.6254   23792972.6084
      3834.323        2987.784
   4466813.935 9   3478859.11247  22364858.620    22364861.7414   22364866.9084
     -1377.066       -1073.038
   -630717.453 9   -482526.49746  23735173.945    23735177.3304   23735182.9314
     -1288.603       -1004.106
  -3280605.690 9  -2551383.67148  20346204.108    20346207.0214   20346211.7894
        93.530          72.880
 96 11  5 17 42 29.9980000  0  8 31  3  1 17 25 23  9 21            -0.001446010
  -7920881.651 9  -6157435.28947  22240831.160    22240834.0914   22240839.6234
       235.346         183.386
   2198089.544 9   1716063.84748  21938728.029    21938731.1614   21938736.9204
     -1826.764       -1423.452
  -9134364.071 9  -7100768.93848  19817255.539    19817258.7204   19817263.5674
       671.254         523.055
   9958869.747 9   7756260.23946  23761959.478    23761962.2644   23761969.5464
     -2962.225       -2308.227
  -8725748.991 9  -6759367.77246  23771077.305    23771080.8094   23771087.7104
      3833.282        2986.973
   4508197.667 9   3511106.14647  22372733.697    22372736.8254   22372741.9944
     -1381.259       -1076.306
   -591774.691 8   -452181.47646  23742584.593    23742587.7954   23742593.4104
     -1306.705       -1018.212
  -3283277.689 9  -2553465.75148  20345695.645    20345698.5734   20345703.3164
        85.220          66.405
 96 11  5 17 42 59.9980000  0  8 31  3  1 17 25 23  9 21            -0.001456034
  -7927629.902 9  -6162693.66147  22239546.860    22239549.9434   22239555.4924
       214.910         167.462
   2253092.808 9   1758923.48648  21949194.595    21949197.9754   21949203.7584
     -1839.667       -1433.507
  -9154237.271 9  -7116254.54048  19813473.781    19813476.9804   19813481.8014
       654.076         509.670
  10047841.435 9   7825588.74646  23778890.067    23778893.0454   23778900.4334
     -2968.726       -2313.293
  -8840731.943 9  -6848964.78346  23749196.583    23749200.2894   23749207.0524
      3832.681        2986.505
   4549710.078 9   3543453.45047  22380633.024    22380636.3834   22380641.6064
     -1386.027       -1080.021
   -552305.551 9   -421426.31146  23750094.793    23750098.3114   23750103.8284
     -1324.157       -1031.811
  -3285709.860 9  -2555360.94448  20345232.799    20345235.7454   20345240.5004
        77.295          60.230
 96 11  5 17 43 29.9980000  0  8 31  3  1 17 25 23  9 21            -0.001466021
  -7933771.606 9  -6167479.42047  22238378.142    22238381.2104   22238386.8214
       195.721         152.510
   2308479.202 9   1802081.66048  21959734.239    21959737.6194   21959743.4794
     -1851.617       -1442.818
  -9173593.107 9  -7131336.99748  19809790.502    19809793.6744   19809798.5074
       637.481         496.738
  10137011.033 9   7895071.45046  23795858.393    23795861.5424   23795868.8204
     -2974.745       -2317.983
  -8955695.482 9  -6938546.67746  23727319.766    23727323.3164   23727330.1354
      3832.792        2986.591
   4591380.371 9   3575923.78047  22388562.847    22388566.0434   22388571.2964
     -1390.741       -1083.694
   -512309.021 9   -390260.17746  23757705.955    23757709.6004   23757714.9814
     -1341.106       -1045.018
  -3287903.056 9  -2557069.93348  20344815.415    20344818.4004   20344823.1634
        70.136          54.651
 96 11  5 17 43 59.9980000  0  8 31  3  1 17 25 23  9 21            -0.001475985
  -7939325.250 9  -6171806.92847  22237321.748    22237324.4044   22237330.0354
       174.716         136.142
   2364232.675 9   1845525.87148  21970343.646    21970347.1474   21970353.0504
     -1865.000       -1453.247
  -9192439.985 9  -7146022.86648  19806204.021    19806207.2114   19806212.0594
       619.174         482.473
  10226372.243 9   7964703.46146  23812863.801    23812866.3954   23812873.8754
     -2982.438       -2323.978
  -9070653.836 9  -7028124.53746  23705443.430    23705447.4114   23705454.3374
      3831.252        2985.391
   4633190.394 9   3608502.99347  22396519.219    22396522.2264   22396527.5494
     -1396.181       -1087.933
   -471804.553 9   -358698.24846  23765413.627    23765417.3214   23765422.7274
     -1358.797       -1058.803
  -3289880.091 9  -2558610.48148  20344439.211    20344442.1974   20344446.9504
        61.929          48.256
 96 11  5 17 44 29.9980000  0  8 31  3  1 17 25 23  9 21            -0.001485916
  -7944252.857 9  -6175646.63447  22236384.196    22236386.7664   22236392.3694
       154.461         120.359
   2420386.859 9   1889282.33248  21981029.450    21981032.9634   21981038.8654
     -1878.106       -1463.459
  -9210737.911 9  -7160280.97948  19802722.039    19802725.2424   19802730.0584
       601.192         468.461
  10315959.427 9   8034511.56146  23829911.668    23829914.4134   23829921.7994
     -2989.496       -2329.477
  -9185565.519 9  -7117666.03946  23683576.151    23683580.3424   23683587.3204
      3830.081        2984.479
   4675149.500 9   3641198.37747  22404503.677    22404506.8244   22404512.1164
     -1400.533       -1091.324
   -430786.510 9   -326736.16246  23773219.227    23773222.7594   23773228.4144
     -1375.035       -1071.456
  -3291620.090 9  -2559966.32548  20344107.959    20344111.0664   20344115.8444
        54.571          42.523
 96 11  5 17 44 59.9980000  0  8 31  3  1 17 25 23  9 21            -0.001495834
  -7948597.010 9  -6179031.67947  22235557.509    22235560.1284   22235565.6994
       135.245         105.386
   2476930.697 9   1933342.41848  21991789.470    21991792.9484   21991798.8234
     -1891.233       -1473.688
  -9228505.650 9  -7174125.95748  19799340.898    19799344.1214   19799348.9364
       583.612         454.763
  10405751.327 9   8104479.17346  23846998.295    23847001.2764   23847008.6594
     -2996.426       -2334.877
  -9300445.598 9  -7207182.93146  23661716.038    23661719.4224   23661726.3454
      3828.801        2983.481
   4717235.414 9   3673992.56947  22412512.417    22412515.5224   22412520.8264
     -1404.972       -1094.783
   -389287.806 9   -294399.52646  23781116.425    23781119.8634   23781125.3884
     -1391.495       -1084.282
  -3293138.897 9  -2561149.80948  20343818.861    20343822.0564   20343826.8354
        46.829          36.490
 96 11  5 17 45 29.9980000  0  8 31  3  1 17 25 23  9 21            -0.001505739
  -7952365.502 9  -6181968.17947  22234840.541    22234843.0594   22234848.5314
       115.629          90.101
   2533857.593 9   1977700.98548  22002622.497    22002625.8144   22002631.6944
     -1904.066       -1483.688
  -9245749.505 9  -7187562.71448  19796059.498    19796062.7134   19796067.5314
       565.832         440.908
  10495744.747 8   8174603.80546  23864123.467    23864126.5474   23864134.0224
     -3003.466       -2340.363
  -9415288.057 9  -7296670.53046  23639861.883    23639865.6384   23639872.5504
      3827.145        2982.191
   4759443.473 9   3706881.94147  22420544.386    22420547.5024   22420552.8264
     -1409.108       -1098.006
   -347296.940 9   -261679.31146  23789107.001    23789110.3444   23789115.5894
     -1408.109       -1097.228
  -3294428.723 9  -2562154.87148  20343573.607    20343576.6144   20343581.3974
        38.859          30.280
 96 11  5 17 45 59.9980000  0  8 31  3  1 17 25 23  9 21            -0.001515613
  -7955526.628 9  -6184431.39647  22234239.154    22234241.5984   22234247.0284
        95.428          74.359
   2591177.760 9   2022366.00948  22013530.188    22013533.5684   22013539.4244
     -1916.919       -1493.703
  -9262454.340 9  -7200579.45448  19792880.598    19792883.8564   19792888.6734
       548.196         427.166
  10585966.878 8   8244906.66446  23881291.942    23881295.3494   23881302.9164
     -3011.220       -2346.405
  -9530065.082 9  -7386107.13946  23618021.078    23618024.2474   23618031.1174
      3824.833        2980.389
   4801783.414 9   3739874.07247  22428601.494    22428604.5614   22428609.9224
     -1413.509       -1101.436
   -304796.742 9   -228562.37246  23797194.388    23797197.7154   23797203.6764
     -1425.046       -1110.425
  -3295465.931 9  -2562963.08748  20343376.207    20343379.2484   20343384.0364
        30.401          23.689
 96 11  5 17 46 29.9980000  0  8 31  3  1 17 25 23  9 21            -0.001525459
  -7958100.820 9  -6186437.25947  22233748.806    22233751.6434   22233757.1944
        76.259          59.422
   2648865.439 9   2067317.39448  22024507.618    22024511.2274   22024517.0824
     -1928.783       -1502.948
  -9278643.523 9  -7213194.39448  19789799.920    19789803.1314   19789807.9684
       531.250         413.961
  10676410.417 8   8315382.04046  23898503.363    23898506.4124   23898513.8614
     -3018.110       -2351.774
  -9644779.675 9  -7475495.10346  23596191.390    23596194.6994   23596201.6334
      3823.041        2978.993
   4844259.325 9   3772972.16247  22436684.380    22436687.5324   22436692.8434
     -1418.038       -1104.965
   -261790.663 9   -195051.15546  23805378.505    23805381.7954   23805387.5684
     -1441.845       -1123.515
  -3296249.526 9  -2563573.67948  20343227.179    20343230.1674   20343234.9264
        22.024          17.162
 96 11  5 17 46 59.9980000  0  8 31  3  1 17 25 23  9 21            -0.001535279
  -7960097.607 9  -6187993.20047  22233368.838    22233371.6404   22233377.2034
        56.962          44.386
   2706905.166 9   2112543.10948  22035552.181    22035555.8584   22035561.7024
     -1940.235       -1511.871
  -9294321.719 9  -7225411.16048  19786816.438    19786819.6584   19786824.4714
       514.148         400.635
  10767065.280 8   8386022.07546  23915754.219    23915757.5704   23915764.9494
     -3025.285       -2357.365
  -9759435.242 9  -7564837.09446  23574372.683    23574376.4994   23574383.3224
      3821.079        2977.464
   4886874.221 9   3806178.54647  22444793.896    22444796.9194   22444802.2134
     -1422.825       -1108.695
   -218274.066 8   -161142.09446  23813659.383    23813662.7514   23813668.2504
     -1458.883       -1136.792
  -3296774.876 9  -2563983.04648  20343127.235    20343130.2294   20343134.9774
        13.182          10.272
 96 11  5 17 47 29.9980000  0  8 31  3  1 17 25 23  9 21            -0.001545077
  -7961517.198 9  -6189099.38947  22233098.799    22233101.5254   22233107.0594
        37.579          29.282
   2765279.087 9   2158029.24048  22046660.458    22046664.1144   22046669.9204
     -1951.612       -1520.737
  -9309484.251 9  -7237226.11248  19783931.052    19783934.2944   19783939.1054
       496.606         386.966
  10857936.982 8   8456831.08146  23933046.535    23933049.9284   23933057.3734
     -3032.829       -2363.243
  -9874042.466 9  -7654141.40546  23552563.505    23552567.3654   23552574.1784
      3819.325        2976.097
   4929632.230 9   3839496.44747  22452930.568    22452933.5304   22452938.7954
     -1427.841       -1112.603
   -174254.358 9   -126841.10546  23822035.826    23822039.1954   23822044.8004
     -1475.757       -1149.941
  -3297035.769 9  -2564186.34648  20343077.527    20343080.6154   20343085.3364
         4.100           3.195
 96 11  5 17 47 59.9980000  0  8 31  3  1 17 25 23  9 21            -0.001554862
  -7962371.109 9  -6189764.78547  22232935.965    22232939.0344   22232944.5704
        19.579          15.256
   2823991.135 9   2203778.84848  22057833.107    22057836.6674   22057842.4944
     -1962.149       -1528.947
  -9324131.180 9  -7248639.29748  19781143.906    19781147.0584   19781151.8924
       480.133         374.130
  10949021.067 8   8527805.58846  23950379.512    23950382.7454   23950390.1234
     -3039.048       -2368.089
  -9988610.261 9  -7743414.99646  23530762.059    23530765.8204   23530772.6824
      3818.883        2975.753
   4972530.578 9   3872923.70647  22461093.758    22461096.8114   22461102.0904
     -1431.586       -1115.522
   -129746.042 9    -92159.31046  23830505.789    23830509.0854   23830514.4294
     -1491.257       -1162.018
  -3297038.464 9  -2564188.45348  20343077.128    20343080.1264   20343084.8194
        -3.508          -2.734
 96 11  5 17 48 29.9980000  0  8 31  3  1 17 25 23  9 21            -0.001564649
  -7962671.467 9  -6189998.84147  22232878.503    22232881.8624   22232887.4264
         0.764           0.595
   2883037.724 9   2249789.13548  22069069.293    22069072.8534   22069078.7244
     -1973.763       -1537.997
  -9338259.066 9  -7259648.03648  19778455.420    19778458.5984   19778463.4484
       462.324         360.252
  11040292.758 8   8598926.26145  23967747.942    23967751.1954   23967758.7214
     -3045.087       -2372.795
 -10103154.732 9  -7832670.40746  23508965.086    23508968.7694   23508975.5804
      3818.117        2975.156
   5015548.665 9   3906444.26147  22469280.086    22469282.9024   22469288.1784
     -1435.495       -1118.568
    -84762.798 9    -57107.48846  23839065.958    23839069.1724   23839074.5654
     -1507.077       -1174.346
  -3296798.352 9  -2564001.36348  20343122.747    20343125.8414   20343130.5294
       -11.759          -9.163
 96 11  5 17 48 59.9980000  0  9 31  3  1 17 25 23  9 21 15         -0.001574443
  -7962407.472 9  -6189793.12747  22232928.701    22232932.0864   22232937.6214
       -18.267         -14.234
   2942431.867 9   2296070.23748  22080371.963    22080375.2104   22080381.1454
     -1985.675       -1547.279
  -9351855.982 9  -7270243.03048  19775867.923    19775871.1984   19775876.0144
       444.271         346.185
  11131741.262 8   8670184.75145  23985150.193    23985153.3114   23985160.7174
     -3051.470       -2377.769
 -10217684.420 9  -7921914.29346  23487170.820    23487174.4714   23487181.3554
      3817.400        2974.597
   5058670.624 9   3940045.75447  22477485.894    22477488.7714   22477494.0404
     -1439.257       -1121.499
    -39311.482 9    -21690.92546  23847715.028    23847718.2394   23847723.7024
     -1523.016       -1186.766
  -3296325.282 9  -2563632.74348  20343212.764    20343215.8974   20343220.5434
       -19.593         -15.267
   -343897.64319   -255821.87056  23964133.668           0.0005   23964143.6685
      4087.467        3185.039
 96 11  5 17 49 29.9980000  0  9 31  3  1 17 25 23  9 21 15         -0.001584235
  -7961553.292 9  -6189127.53847  22233091.196    22233094.6424   22233100.1424
       -38.283         -29.831
   3002205.257 9   2342646.86548  22091746.287    22091749.7344   22091755.6954
     -1999.003       -1557.665
  -9364897.667 9  -7280405.38248  19773386.173    19773389.4474   19773394.2684
       425.579         331.620
  11223400.570 8   8741607.46845  24002592.362    24002595.5654   24002602.9124
     -3058.752       -2383.443
 -10332175.802 9  -8011128.33146  23465384.045    23465387.5174   23465394.2834
      3815.434        2973.065
   5101928.775 9   3973753.37747  22485717.773    22485720.5534   22485725.8104
     -1444.171       -1125.328
      6643.370 9     14117.99546  23856459.854    23856463.1574   23856468.5874
     -1540.239       -1200.186
  -3295609.100 9  -2563074.68448  20343349.026    20343352.1884   20343356.8424
       -27.779         -21.646
   -466474.857 9   -351336.54746  23940803.711    23940810.3835   23940818.2364
      4084.689        3182.875
 96 11  5 17 49 59.9980000  0  9 31  3  1 17 25 23  9 21 15         -0.001594004
  -7960110.673 9  -6188003.41847  22233365.682    22233369.2024   22233374.7054
       -57.841         -45.071
   3062368.100 9   2389526.94848  22103195.066    22103198.3574   22103204.3694
     -2011.719       -1567.573
  -9377392.555 9  -7290141.65248  19771008.478    19771011.7594   19771016.5254
       407.620         317.626
  11315266.493 8   8813191.18545  24020074.210    24020077.2334   24020084.7174
     -3065.454       -2388.665
 -10446611.207 9  -8100298.73646  23443608.172    23443611.1214   23443617.9404
      3813.637        2971.665
   5145317.144 9   4007562.46147  22493974.261    22493977.0844   22493982.3964
     -1448.254       -1128.510
     53096.925 9     50315.52246  23865299.938    23865303.2644   23865308.6514
     -1556.545       -1212.892
  -3294668.260 9  -2562341.57248  20343528.092    20343531.2244   20343535.8974
       -35.038         -27.302
   -588981.873 9   -446796.56856  23917492.961    23917498.1515   23917504.9755
      4082.427        3181.112
 96 11  5 17 50 29.9980000  0  9 31  3  1 17 25 23  9 21 15         -0.001603742
  -7958074.654 9  -6186416.91447  22233752.883    22233756.5914   22233762.1844
       -77.592         -60.461
   3122920.411 9   2436710.52548  22114717.766    22114721.1124   22114727.0944
     -2024.687       -1577.678
  -9389343.337 9  -7299453.94248  19768734.322    19768737.6184   19768742.3424
       389.516         303.519
  11407337.236 9   8884934.51245  24037594.739    24037597.8404   24037605.2974
     -3072.270       -2393.977
 -10560975.158 9  -8189413.45446  23421844.994    23421848.3844   23421855.1604
      3810.849        2969.493
   5188844.039 9   4041479.49147  22502257.135    22502259.9664   22502265.3784
     -1453.259       -1132.410
    100047.577 8     86900.36446  23874234.125    23874237.5014   23874243.0874
     -1573.183       -1225.857
  -3293485.187 9  -2561419.70448  20343753.322    20343756.3604   20343761.0444
       -43.565         -33.947
   -711409.221 9   -542194.45146  23894196.200    23894200.4614   23894207.8474
      4079.567        3178.883
 96 11  5 17 50 59.9980000  0  9 31  3  1 17 25 23  9 21 15         -0.001613444
  -7955469.874 9  -6184387.21947  22234248.976    22234252.2234   22234257.8854
       -95.773         -74.628
   3183842.434 9   2484182.19448  22126310.619    22126314.1994   22126320.1924
     -2036.468       -1586.858
  -9400774.193 9  -7308361.09548  19766559.097    19766562.3874   19766567.0914
       372.834         290.520
  11499611.959 8   8956836.78745  24055154.398    24055157.3014   24055164.6734
     -3079.098       -2399.297
 -10675259.239 9  -8278465.92946  23400097.756    23400100.8164   23400107.5814
      3808.251        2967.468
   5232511.232 9   4075505.84347  22510566.684    22510569.5094   22510575.0474
     -1457.755       -1135.913
    147493.603 9    123871.25346  23883262.624    23883266.2364   23883271.6784
     -1589.611       -1238.658
  -3292060.911 9  -2560309.88848  20344024.175    20344027.3834   20344032.0764
       -51.182         -39.882
   -833758.585 9   -637531.61846  23870914.718    23870918.4984   23870925.8024
      4077.202        3177.041
 96 11  5 17 51 29.9980000  0  9 31  3  1 17 25 23  9 21 15         -0.001623124
  -7952338.644 9  -6181947.30947  22234844.714    22234848.0134   22234853.7404
      -112.923         -87.992
   3245100.618 9   2531915.80048  22137967.696    22137971.2874   22137977.2954
     -2047.194       -1595.216
  -9411729.106 9  -7316897.37948  19764474.459    19764477.7304   19764482.4464
       357.681         278.712
  11592067.173 8   9028879.70245  24072747.813    24072750.9014   24072758.3384
     -3084.399       -2403.428
 -10789472.835 9  -8367463.47146  23378363.163    23378366.5984   23378373.4424
      3806.021        2965.731
   5276299.608 9   4109626.63547  22518899.303    22518902.1814   22518907.7714
     -1461.145       -1138.554
    195411.150 9    161209.48946  23892381.436    23892384.8164   23892390.3004
     -1604.580       -1250.322
  -3290417.815 9  -2559029.56148  20344336.781    20344340.0784   20344344.7684
       -58.229         -45.373
   -956047.736 9   -732821.82446  23847644.067    23847647.6314   23847654.8454
      4075.612        3175.802
 96 11  5 17 51 59.9980000  0  9 31  3  1 17 25 23  9 21 15         -0.001632777
  -7948658.079 9  -6179079.33647  22235545.187    22235548.4364   22235554.1494
      -132.274        -103.071
   3306700.612 9   2579915.75548  22149689.862    22149693.3994   22149699.4414
     -2059.079       -1604.477
  -9422206.716 9  -7325061.73548  19762480.617    19762483.8874   19762488.5984
       341.234         265.897
  11684701.873 9   9101062.46645  24090375.708    24090378.7734   24090386.1694
     -3090.833       -2408.441
 -10903591.845 9  -8456387.30446  23356647.066    23356650.4374   23356657.3344
      3802.271        2962.809
   5320207.907 9   4143840.85147  22527254.794    22527257.5924   22527263.2384
     -1465.728       -1142.126
    243799.769 9    198914.86746  23901589.550    23901593.0254   23901598.1814
     -1621.077       -1263.177
  -3288534.235 9  -2557561.83548  20344695.314    20344698.5284   20344703.2354
       -67.132         -52.311
  -1078261.273 9   -828053.12246  23824387.770    23824391.2484   23824398.4724
      4072.244        3173.177
 96 11  5 17 52 29.9980000  0  9 31  3  1 17 25 23  9 21 15         -0.001642388
  -7944405.188 9  -6175765.38747  22236354.596    22236357.7604   22236363.4364
      -151.118        -117.754
   3368644.150 9   2628183.41148  22161477.380    22161480.8914   22161486.9284
     -2070.188       -1613.134
  -9432204.355 9  -7332852.09148  19760578.161    19760581.3924   19760586.0934
       325.465         253.609
  11777520.855 8   9173388.82845  24108038.271    24108041.5964   24108049.2204
     -3096.833       -2413.117
 -11017600.984 9  -8545225.52646  23334951.773    23334955.2624   23334962.1194
      3798.734        2960.052
   5364248.569 9   4178158.22047  22535635.349    22535638.1964   22535643.9214
     -1469.984       -1145.442
    292688.115 9    237009.62546  23910892.586    23910896.0154   23910901.3524
     -1637.848       -1276.245
  -3286381.704 9  -2555884.54148  20345104.800    20345108.1454   20345112.8724
       -75.773         -59.044
  -1200375.907 9   -923207.38546  23801150.405    23801153.5314   23801160.6854
      4069.095        3170.723
 96 11  5 17 52 59.9980000  0  9 31  3  1 17 25 23  9 21 15         -0.001651964
  -7939587.307 9  -6172011.19747  22237271.979    22237274.5784   22237280.2394
      -170.201        -132.624
   3430911.977 9   2676703.74948  22173326.661    22173330.1224   22173336.1304
     -2081.036       -1621.586
  -9441735.576 9  -7340279.00148  19758764.392    19758767.6224   19758772.3284
       309.984         241.546
  11870508.053 8   9245846.28545  24125733.405    24125736.6114   24125744.0644
     -3102.129       -2417.243
 -11131519.958 9  -8633993.48246  23313273.626    23313277.1744   23313283.9934
      3795.941        2957.876
   5408402.691 9   4212564.00047  22544037.804    22544040.4974   22544046.1954
     -1473.493       -1148.176
    342069.053 9    275488.21347  23920289.495    23920293.1634   23920298.6634
     -1654.000       -1288.831
  -3283993.038 9  -2554023.23648  20345559.524    20345562.6924   20345567.4164
       -83.412         -64.996
  -1322405.557 9  -1018295.25746  23777929.343    23777931.9244   23777939.3084
      4066.296        3168.542
 96 11  5 17 53 29.9980000  0  9 31  3  1 17 25 23  9 21 15         -0.001661544
  -7934169.804 9  -6167789.77647  22238302.312    22238305.5094   22238311.1484
      -190.424        -148.382
   3493516.484 9   2725486.44048  22185239.903    22185243.4144   22185249.3874
     -2091.963       -1630.101
  -9450785.670 9  -7347331.00748  19757042.243    19757045.4134   19757050.1424
       293.862         228.983
  11963663.005 8   9318434.43645  24143460.406    24143463.5284   24143471.0124
     -3107.426       -2421.371
 -11245345.383 9  -8722688.55446  23291612.512    23291616.9144   23291623.7034
      3792.919        2955.521
   5452676.129 9   4247062.75047  22552462.738    22552465.4584   22552471.1704
     -1477.402       -1151.222
    391939.067 8    314347.90346  23929779.363    23929783.0254   23929788.6714
     -1669.991       -1301.292
  -3281358.097 9  -2551970.02648  20346060.932    20346064.0974   20346068.8214
       -91.598         -71.375
  -1444341.950 8  -1113310.79946  23754725.847    23754728.5294   23754735.5424
      4063.345        3166.243
 96 11  5 17 53 59.9980000  0  9 31  3  1 17 25 23  9 21 15         -0.001671048
  -7928148.369 9  -6163097.75447  22239448.559    22239451.3124   22239456.9714
      -210.615        -164.115
   3556438.697 9   2774516.69348  22197213.496    22197217.1634   22197223.1034
     -2102.660       -1638.436
  -9459349.507 9  -7354004.11048  19755412.552    19755415.7544   19755420.4814
       277.162         215.970
  12056967.695 8   9391139.29845  24161215.891    24161218.9254   24161226.4174
     -3112.752       -2425.521
 -11359083.442 9  -8811315.53646  23269969.272    23269973.2104   23269980.0364
      3789.894        2953.164
   5497064.152 9   4281650.78547  22560909.466    22560912.2404   22560917.9354
     -1481.656       -1154.537
    442286.018 9    353579.22546  23939359.846    23939363.6424   23939369.2404
     -1686.251       -1313.962
  -3278478.016 9  -2549725.80048  20346609.157    20346612.1404   20346616.8874
      -100.258         -78.123
  -1566192.407 9  -1208259.02446  23731537.678    23731540.9214   23731548.2814
      4060.180        3163.777
 96 11  5 17 54 29.9980000  0  9 31  3  1 17 25 23  9 21 15         -0.001680534
  -7921541.275 9  -6157949.37447  22240705.885    22240708.5804   22240714.2524
      -230.536        -179.638
   3619670.590 9   2823788.26048  22209246.253    22209249.8404   22209255.7784
     -2113.563       -1646.932
  -9467405.112 9  -7360281.19048  19753879.565    19753882.8124   19753887.5164
       258.984         201.806
  12150424.160 8   9463962.39845  24179000.068    24179003.1364   24179010.7964
     -3118.577       -2430.060
 -11472742.227 9  -8899880.75246  23248340.351    23248344.5694   23248351.3814
      3786.684        2950.663
   5541576.896 9   4316335.99647  22569379.979    22569382.8074   22569388.4274
     -1486.709       -1158.475
    493106.689 9    393179.70446  23949031.126    23949034.6974   23949040.1864
     -1702.561       -1326.671
  -3275339.499 9  -2547280.19648  20347206.499    20347209.3834   20347214.1464
      -109.519         -85.339
  -1687954.847 8  -1303138.75246  23708367.720    23708370.3795   23708377.5814
      4056.541        3160.941
 96 11  5 17 54 59.9980000  0  9 31  3  1 17 25 23  9 21 15         -0.001690006
  -7914342.291 9  -6152339.78047  22242075.949    22242078.5474   22242084.2014
      -249.884        -194.715
   3683218.893 9   2873306.36348  22221339.368    22221342.7314   22221348.6954
     -2123.665       -1654.804
  -9474910.221 9  -7366129.31348  19752451.386    19752454.6234   19752459.3534
       240.941         187.746
  12244060.149 8   9536925.40745  24196818.238    24196821.5204   24196829.3864
     -3124.576       -2434.735
 -11586312.332 9  -8988376.87646  23226728.895    23226732.9164   23226739.6214
      3783.941        2948.525
   5586240.883 9   4351139.06547  22577879.054    22577882.0934   22577887.7154
     -1491.481       -1162.193
    544404.257 9    433151.76546  23958792.610    23958796.3774   23958801.9704
     -1717.835       -1338.573
  -3271930.668 9  -2544623.95648  20347855.001    20347858.0524   20347862.8364
      -118.330         -92.205
  -1809612.817 9  -1397937.15346  23685216.704    23685219.6964   23685226.7984
      4053.357        3158.460
 96 11  5 17 55 29.9980000  0  9 31  3  1 17 25 23  9 21 15         -0.001699472
  -7906582.933 9  -6146293.52747  22243552.428    22243555.0954   22243560.8644
      -268.093        -208.904
   3747073.704 9   2923063.32048  22233490.424    22233493.9364   22233499.9264
     -2133.941       -1662.811
  -9481874.525 9  -7371556.03248  19751126.093    19751129.3524   19751134.0994
       222.724         173.551
  12337872.574 8   9610025.87045  24214669.986    24214673.4834   24214681.2554
     -3130.514       -2439.361
 -11699793.615 9  -9076803.78746  23205134.289    23205138.1804   23205144.7444
      3780.698        2945.998
   5631049.344 9   4386054.71547  22586405.778    22586408.9234   22586414.5924
     -1496.522       -1166.121
    596157.627 9    473479.03146  23968640.963    23968644.8254   23968650.4224
     -1733.139       -1350.498
  -3268257.086 9  -2541761.41948  20348553.979    20348557.1064   20348561.8884
      -127.368         -99.248
  -1931171.985 9  -1492658.38146  23662084.708    23662087.4204   23662094.9194
      4049.791        3155.681
 96 11  5 17 55 59.9980000  0  9 31  3  1 17 25 23  9 21 15         -0.001708929
  -7898277.572 9  -6139821.82247  22245132.689    22245135.5544   22245141.2934
      -286.149        -222.973
   3811239.865 9   2973062.88547  22245700.642    22245704.3574   22245710.3764
     -2144.317       -1670.896
  -9488290.810 9  -7376555.72448  19749905.128    19749908.3584   19749913.0944
       204.738         159.536
  12431882.163 8   9683279.99045  24232559.856    24232563.0894   24232570.8244
     -3137.282       -2444.635
 -11813177.211 9  -9165154.58046  23183558.130    23183561.9774   23183568.5274
      3777.795        2943.736
   5676012.561 9   4421090.94547  22594961.995    22594965.1564   22594970.7654
     -1501.458       -1169.967
    648374.873 9    514167.76046  23978577.564    23978581.5014   23978587.1334
     -1748.495       -1362.464
  -3264305.237 9  -2538682.05148  20349306.160    20349309.0914   20349313.9064
      -136.516        -106.376
  -2052617.113 8  -1587291.02046  23638974.576    23638977.3804   23638984.5754
      4046.087        3152.795
 96 11  5 17 56 29.9980000  0  9 31  3  1 17 25 23  9 21 15         -0.001718378
  -7889429.548 9  -6132927.26647  22246816.640    22246819.3254   22246824.9774
      -304.022        -236.900
   3875714.185 9   3023302.56947  22257969.805    22257973.4084   22257979.4984
     -2154.261       -1678.645
  -9494170.724 9  -7381137.46448  19748786.090    19748789.4364   19748794.1654
       187.249         145.908
  12526096.768 8   9756693.85745  24250487.813    24250491.6764   24250499.3144
     -3143.744       -2449.671
 -11926475.171 9  -9253438.64146  23161998.119    23162002.0494   23162008.6084
      3775.196        2941.711
   5721124.904 9   4456243.38547  22603546.491    22603549.8124   22603555.4664
     -1506.240       -1173.694
    701052.099 9    555214.93346  23988601.712    23988605.6994   23988611.3104
     -1763.599       -1374.233
  -3260088.019 9  -2535395.90548  20350108.621    20350111.5824   20350116.3894
      -144.754        -112.795
  -2173948.296 9  -1681834.73346  23615885.464    23615888.8774   23615895.8884
      4042.470        3149.977
 96 11  5 17 56 59.9980000  0  9 31  3  1 17 25 23  9 21 15         -0.001727815
  -7880047.857 9  -6125616.85747  22248601.567    22248604.6224   22248610.2364
      -322.260        -251.112
   3940492.232 9   3073778.92747  22270296.794    22270300.2944   22270306.3944
     -2165.146       -1687.127
  -9499552.694 9  -7385331.19648  19747761.977    19747765.2754   19747770.0034
       170.945         133.204
  12620501.891 8   9830256.17945  24268453.282    24268456.3864   24268464.1804
     -3150.530       -2454.958
 -12039697.333 9  -9341663.63846  23140452.844    23140456.5514   23140463.1144
      3772.057        2939.265
   5766370.470 9   4491499.62947  22612156.717    22612159.8584   22612165.4304
     -1510.881       -1177.310
    754175.122 9    596609.45846  23998710.737    23998714.5964   23998720.4014
     -1778.739       -1386.030
  -3255636.139 9  -2531926.90248  20350955.680    20350958.7124   20350963.5444
      -152.880        -119.127
  -2295176.167 9  -1776297.91846  23592816.482    23592819.6054   23592826.9104
      4038.597        3146.959
 96 11  5 17 57 29.9980000  0  9 31  3  1 17 25 23  9 21 15         -0.001737217
  -7870112.449 9  -6117874.99147  22250492.629    22250495.2914   22250500.8924
      -340.886        -265.625
   4005599.771 9   3124512.01647  22282686.400    22282689.8994   22282695.9964
     -2175.770       -1695.405
  -9504444.735 9  -7389143.16748  19746831.079    19746834.3684   19746839.0574
       154.680         120.530
  12715103.410 8   9903971.54145  24286456.031    24286458.3774   24286466.2674
     -3156.813       -2459.854
 -12152817.135 9  -9429808.86747  23118926.900    23118930.5664   23118937.0644
      3768.741        2936.681
   5811758.959 9   4526867.23447  22620793.723    22620797.0064   22620802.5294
     -1515.672       -1181.043
    807767.809 9    638369.97946  24008909.161    24008913.0774   24008918.7854
     -1794.525       -1398.331
  -3250934.828 9  -2528263.54148  20351850.141    20351853.3274   20351858.1654
      -161.144        -125.567
  -2416285.359 9  -1870668.60446  23569770.365    23569773.3344   23569780.5844
      4034.761        3143.970
 96 11  5 17 57 59.9980000  0  9 31  3  1 17 25 23  9 21 15         -0.001746587
  -7859607.769 9  -6109689.52947  22252491.372    22252494.2924   22252499.9214
      -359.780        -280.348
   4071015.468 9   3175485.24947  22295134.661    22295138.1764   22295144.2354
     -2185.712       -1703.152
  -9508855.826 9  -7392580.37848  19745991.662    19745994.9504   19745999.6354
       138.995         108.308
  12809882.875 8   9977825.54745  24304491.178    24304494.3834   24304502.2804
     -3162.120       -2463.990
 -12265840.800 9  -9517879.17047  23097419.154    23097422.7384   23097429.2994
      3765.663        2934.283
   5857289.607 9   4562345.60947  22629457.838    22629461.1974   22629466.7584
     -1520.254       -1184.614
    861828.038 9    680494.84846  24019196.677    24019200.5034   24019206.1454
     -1809.833       -1410.259
  -3245987.704 9  -2524408.63448  20352791.685    20352794.7354   20352799.5714
      -169.067        -131.740
  -2537285.609 9  -1964954.49446  23546745.209    23546747.6254   23546754.8084
      4031.427        3141.372
 96 11  5 17 58 29.9980000  0  9 31  3  1 17 25 23  9 21 15         -0.001755904
  -7848508.728 9  -6101040.92547  22254603.406    22254606.3404   22254611.9654
      -379.216        -295.493
   4136762.257 9   3226716.46147  22307645.991    22307649.3954   22307655.5024
     -2196.779       -1711.776
  -9512763.402 9  -7395625.23748  19745248.080    19745251.3664   19745256.0504
       122.144          95.177
  12904851.598 8  10051827.03145  24322563.254    24322566.2394   24322574.4444
     -3168.232       -2468.752
 -12378732.342 9  -9605846.53347  23075936.437    23075940.1404   23075946.6504
      3761.104        2930.730
   5902995.798 9   4597960.78947  22638155.476    22638158.8844   22638164.3864
     -1526.004       -1189.094
    916379.576 9    723002.52246  24029577.288    24029581.2294   24029586.8584
     -1826.165       -1422.986
  -3240777.334 9  -2520348.60448  20353783.014    20353786.2204   20353791.0624
      -177.660        -138.436
  -2658153.086 9  -2059136.78546  23523744.611    23523747.1544   23523754.4934
      4027.141        3138.032
 96 11  5 17 58 59.9980000  0  9 31  3  1 17 25 23  9 21 15         -0.001765175
  -7836845.908 9  -6091953.01247  22256822.689    22256825.6834   22256831.3774
      -398.023        -310.148
   4202834.143 9   3278201.00347  22320219.009    22320222.4494   22320228.5384
     -2207.363       -1720.023
  -9516178.361 9  -7398286.24248  19744598.254    19744601.5334   19744606.2084
       105.895          82.516
  12999990.118 8  10125960.81945  24340667.414    24340670.4894   24340678.7434
     -3173.893       -2473.163
 -12491484.897 9  -9693705.60147  23054480.585    23054484.0134   23054490.4244
      3756.200        2926.909
   5948865.148 9   4633703.10547  22646884.425    22646887.5794   22646893.0684
     -1531.468       -1193.352
    971408.214 9    765882.01446  24040049.152    24040052.9434   24040058.5114
     -1842.094       -1435.398
  -3235316.875 9  -2516093.69548  20354822.228    20354825.3274   20354830.1474
      -185.990        -144.927
  -2778902.016 9  -2153226.85546  23500766.862    23500769.4984   23500776.5584
      4023.219        3134.976
 96 11  5 17 59 29.9980000  0  9 31  3  1 17 25 23  9 21 15         -0.001774403
  -7824618.747 9  -6082425.36847  22259149.313    22259152.3914   22259158.1754
      -416.203        -324.314
   4269205.512 9   3329918.89147  22332849.069    22332852.5224   22332858.6314
     -2216.483       -1727.130
  -9519097.682 9  -7400561.03748  19744042.808    19744046.0224   19744050.6694
        89.588          69.809
  13095299.384 8  10200227.64445  24358803.931    24358807.3794   24358815.7254
     -3179.257       -2477.343
 -12604090.341 9  -9781450.03747  23033052.054    23033055.8774   23033062.2524
      3751.867        2923.533
   5994900.077 9   4669574.44447  22655644.483    22655647.7644   22655653.3034
     -1536.503       -1197.275
   1026924.586 9    809141.52046  24050613.505    24050617.4004   24050623.0244
     -1857.803       -1447.639
  -3229602.271 9  -2511640.75648  20355909.831    20355912.7954   20355917.6084
      -194.046        -151.205
  -2899529.868 9  -2247222.45546  23477812.419    23477814.6434   23477821.9844
      4019.571        3132.133
 96 11  5 17 59 59.9980000  0  9 31  3  1 17 25 23  9 21 15         -0.001783597
  -7811846.198 9  -6072472.73647  22261580.207    22261583.0124   22261588.7604
      -434.600        -338.649
   4335866.253 9   3381862.27547  22345534.258    22345537.6704   22345543.7444
     -2226.821       -1735.185
  -9521518.410 9  -7402447.31248  19743582.007    19743585.3934   19743590.0244
        72.578          56.554
  13190773.234 8  10274622.73345  24376972.129    24376975.6424   24376983.8094
     -3185.058       -2481.863
 -12716557.475 9  -9869086.69347  23011650.091    23011653.9664   23011660.4124
      3746.739        2919.537
   6041092.616 9   4705568.59447  22664434.530    22664437.8654   22664443.5234
     -1542.091       -1201.629
   1082912.751 9    852768.66646  24061267.758    24061271.4324   24061277.2204
     -1873.985       -1460.248
  -3223631.335 9  -2506988.07848  20357046.067    20357049.0434   20357053.8504
      -203.325        -158.435
  -3020035.254 9  -2341122.74446  23454881.323    23454883.1134   23454890.3524
      4014.783        3128.402
 96 11  5 18  0 29.9980000  0  9 31  3  1 17 25 23  9 21 15         -0.001792765
  -7798537.818 9  -6062102.58347  22264112.325    22264115.5024   22264121.2674
      -452.915        -352.921
   4402819.725 9   3434033.75947  22358274.719    22358278.5374   22358284.6374
     -2236.869       -1743.015
  -9523441.718 9  -7403945.98748  19743216.014    19743219.4264   19743224.0484
        55.329          43.114
  13286421.262 8  10349153.53845  24395173.543    24395176.9054   24395185.0844
     -3191.577       -2486.943
 -12828892.596 9  -9956620.49147  22990273.620    22990277.2284   22990283.7464
      3742.143        2915.956
   6087427.452 9   4741673.62947  22673251.885    22673255.1524   22673260.7594
     -1546.951       -1205.416
   1139380.339 8    896769.44646  24072013.304    24072016.8454   24072022.4504
     -1890.667       -1473.247
  -3217395.804 9  -2502129.22348  20358232.560    20358235.6344   20358240.4154
      -212.615        -165.674
  -3140410.212 9  -2434921.30846  23431974.398    23431976.4564   23431983.6404
      4009.981        3124.660
 96 11  5 18  0 59.9980000  0  9 31  3  1 17 25 23  9 21 15         -0.001801911
  -7784691.370 9  -6051313.13947  22266747.625    22266750.4394   22266756.1854
      -471.017        -367.026
   4470050.264 9   3486421.14147  22371068.476    22371072.1334   22371078.2284
     -2245.777       -1749.956
  -9524868.140 9  -7405057.48048  19742944.579    19742948.0044   19742952.5994
        39.163          30.517
  13382242.388 8  10423819.23945  24413408.539    24413411.2344   24413419.2934
     -3197.087       -2491.237
 -12941114.375 9 -10044065.97847  22968918.169    22968922.0554   22968928.6364
      3738.760        2913.319
   6133886.471 9   4777875.42347  22682092.661    22682095.9824   22682101.5904
     -1551.012       -1208.581
   1196328.134 9    941144.40146  24082850.333    24082853.7384   24082859.4264
     -1906.455       -1485.549
  -3210893.240 9  -2497062.28748  20359470.004    20359473.0534   20359477.8134
      -221.486        -172.586
  -3260655.881 9  -2528619.12446  23409092.075    23409094.3994   23409101.4674
      4005.713        3121.335
 96 11  5 18  1 29.9980000  0  9 31  3  1 17 25 23  9 21 15         -0.001811033
  -7770293.527 9  -6040094.04547  22269487.568    22269490.2644   22269495.9734
      -489.517        -381.442
   4537561.706 9   3539027.40547  22383915.773    22383919.1874   22383925.3204
     -2255.819       -1757.781
  -9525792.916 9  -7405778.07748  19742768.612    19742772.0324   19742776.6344
        21.799          16.986
  13478234.585 8  10498618.22545  24431674.562    24431677.8794   24431686.3974
     -3203.026       -2495.864
 -13053226.230 9 -10131425.81447  22947584.060    22947587.8664   22947594.4124
      3734.699        2910.155
   6180477.651 9   4814180.20347  22690958.515    22690961.9864   22690967.5444
     -1555.644       -1212.190
   1253755.394 8    985892.88246  24093777.879    24093781.5514   24093787.5544
     -1922.266       -1497.870
  -3204112.483 9  -2491778.58148  20360760.342    20360763.4064   20360768.1664
      -231.248        -180.193
  -3380760.437 9  -2622206.98846  23386236.754    23386239.0914   23386246.1004
      4000.617        3117.364
 96 11  5 18  1 59.9980000  0  9 31  3  1 17 25 23  9 21 15         -0.001820133
  -7755340.848 9  -6028442.61747  22272332.661    22272335.6344   22272341.3894
      -507.457        -395.421
   4605381.916 9   3591874.26347  22396821.639    22396825.0034   22396831.1584
     -2265.262       -1765.139
  -9526196.004 9  -7406092.16448  19742691.948    19742695.3454   19742699.9444
         5.295           4.126
  13574395.259 8  10573548.52845  24449973.533    24449976.9184   24449985.1624
     -3207.759       -2499.552
 -13165212.787 9 -10218688.01847  22926273.982    22926277.4854   22926284.0414
      3731.193        2907.423
   6227203.934 9   4850590.26047  22699850.283    22699853.7554   22699859.3384
     -1559.400       -1215.117
   1311643.991 9   1031001.00646  24104793.561    24104797.5134   24104802.9304
     -1936.861       -1509.242
  -3197032.944 9  -2486262.06048  20362107.426    20362110.6174   20362115.3544
      -240.506        -187.407
  -3500714.240 8  -2715677.39745  23363410.052    23363412.8514   23363419.9014
      3996.391        3114.071
 96 11  5 18  2 29.9980000  0  9 31  3  1 17 25 23  9 21 15         -0.001829214
  -7739829.136 9  -6016355.56047  22275284.684    22275287.4504   22275293.1714
      -526.519        -410.275
   4673494.727 9   3644949.13747  22409783.237    22409786.5044   22409792.6594
     -2275.445       -1773.074
  -9526090.525 9  -7406009.96148  19742711.975    19742715.4334   19742720.0084
       -12.171          -9.484
  13670718.852 8  10648605.82945  24468303.109    24468306.8014   24468315.0514
     -3213.508       -2504.032
 -13277079.554 9 -10305856.88847  22904986.635    22904989.9054   22904996.4524
      3726.532        2903.791
   6274062.724 9   4887103.56647  22708767.118    22708770.6774   22708776.2764
     -1564.550       -1219.130
   1369981.718 9   1076459.03046  24115894.732    24115898.7574   24115904.3914
     -1952.046       -1521.075
  -3189670.099 9  -2480524.77748  20363508.469    20363511.7294   20363516.4644
      -250.199        -194.960
  -3620527.261 9  -2809038.17346  23340609.816    23340613.1804   23340619.9414
      3991.290        3110.096
 96 11  5 18  2 59.9980000  0  9 31  3  1 17 25 23  9 21 15         -0.001838309
  -7723754.668 9  -6003830.00347  22278342.911    22278346.3594   22278352.0204
      -545.124        -424.772
   4741910.899 9   3698260.37947  22422802.489    22422805.7064   22422811.8724
     -2285.552       -1780.950
  -9525475.318 9  -7405530.56548  19742829.108    19742832.5004   19742837.0814
       -28.602         -22.287
  13767199.126 8  10723785.18245  24486662.871    24486666.2604   24486674.6734
     -3218.228       -2507.710
 -13388793.409 9 -10392906.61447  22883727.973    22883731.4454   22883737.8644
      3721.165        2899.609
   6321081.842 9   4923741.80247  22717714.750    22717718.1484   22717723.7524
     -1570.054       -1223.419
   1428758.501 9   1122259.04846  24127079.440    24127083.3324   24127089.4234
     -1966.274       -1532.162
  -3182022.806 9  -2474565.85148  20364963.750    20364966.9564   20364971.6874
      -259.397        -202.127
  -3740192.848 9  -2902283.99346  23317838.124    23317841.4354   23317848.3434
      3986.548        3106.401
 96 11  5 18  3 29.9980000  0  9 31  3  1 17 25 23  9 21 15         -0.001847316
  -7707120.947 9  -5990868.66147  22281508.087    22281511.6444   22281517.2724
      -563.476        -439.072
   4810632.844 9   3751809.90247  22435879.657    22435883.0644   22435889.2474
     -2295.348       -1788.583
  -9524365.158 9  -7404665.49848  19743040.316    19743043.7544   19743048.3424
       -45.006         -35.070
  13863825.005 8  10799077.99945  24505050.323    24505053.6754   24505061.8754
     -3223.173       -2511.563
 -13500336.774 9 -10479823.50047  22862501.713    22862505.3524   22862511.8514
      3715.473        2895.174
   6368274.283 9   4960515.08847  22726695.208    22726698.5654   22726704.1654
     -1575.556       -1227.706
   1487963.910 9   1168393.26346  24138345.843    24138349.8974   24138355.5284
     -1980.280       -1543.075
  -3174097.360 9  -2468390.18048  20366471.952    20366475.1374   20366479.8784
      -268.536        -209.249
  -3859709.178 9  -2995413.56146  23295094.709    23295098.3174   23295104.9234
      3981.650        3102.584
 96 11  5 18  3 59.9980000  0  9 31  3  1 17 25 23  9 21 15         -0.001856266
  -7689912.341 9  -5977459.36647  22284783.215    22284786.3434   22284791.9474
      -583.396        -454.594
   4879647.999 9   3805587.89147  22449012.862    22449016.2604   22449022.4544
     -2305.230       -1796.283
  -9522756.717 9  -7403412.15548  19743346.447    19743349.8184   19743354.4214
       -61.809         -48.163
  13960616.486 8  10874499.91845  24523469.622    24523472.5234   24523480.5644
     -3229.258       -2516.305
 -13611702.625 9 -10566602.06847  22841309.440    22841313.0944   22841319.5804
      3709.251        2890.325
   6415648.469 9   4997429.99947  22735710.322    22735713.6224   22735719.1864
     -1582.380       -1233.023
   1547612.809 9   1214872.94446  24149696.523    24149700.7004   24149706.4004
     -1996.040       -1555.356
  -3165882.776 9  -2461989.20648  20368035.150    20368038.3194   20368043.0514
      -278.563        -217.062
  -3979066.123 9  -3088418.88746  23272381.819    23272385.3234   23272392.1024
      3975.758        3097.993
 96 11  5 18  4 29.9980000  0  9 31  3  1 17 25 23  9 21 15         -0.001865152
  -7672126.053 9  -5963599.93047  22288167.675    22288170.9144   22288176.6124
      -602.515        -469.492
   4948941.434 9   3859582.72047  22462199.080    22462202.3944   22462208.6334
     -2314.810       -1803.748
  -9520665.058 9  -7401782.28048  19743744.437    19743747.8184   19743752.4404
       -77.995         -60.775
  14057580.388 8  10950056.19445  24541921.373    24541924.5154   24541932.4824
     -3234.972       -2520.757
 -13722887.811 9 -10653239.86347  22820151.612    22820155.2174   22820161.6624
      3702.808        2885.305
   6463218.047 9   5034497.17347  22744762.798    22744765.8874   22744771.4574
     -1589.082       -1238.246
   1607720.683 9   1261710.24846  24161134.964    24161138.9314   24161144.6734
     -2011.475       -1567.383
  -3157393.410 9  -2455374.11648  20369650.667    20369653.8134   20369658.5444
      -287.646        -224.140
  -4098260.096 9  -3181297.22846  23249699.963    23249703.5404   23249710.2434
      3970.158        3093.630
 96 11  5 18  4 59.9980000  0  9 31  3  1 17 25 23  9 21 15         -0.001873967
  -7653763.976 9  -5949291.83347  22291661.157    22291665.0814   22291670.8284
      -621.090        -483.966
   5018527.704 9   3913805.72647  22475441.033    22475444.2254   22475450.4954
     -2323.733       -1810.701
  -9518082.404 9  -7399769.81048  19744235.910    19744239.2654   19744243.9094
       -93.702         -73.014
  14154715.940 8  11025746.17445  24560405.271    24560408.7034   24560417.3744
     -3240.256       -2524.875
 -13833874.102 9 -10739722.66947  22799031.711    22799035.2484   22799041.7344
      3697.053        2880.821
   6510989.858 9   5071721.92447  22753853.499    22753856.6264   22753862.1714
     -1594.935       -1242.806
   1668299.008 9   1308914.10046  24172662.441    24172666.5134   24172672.4114
     -2026.484       -1579.078
  -3148628.343 9  -2448544.19348  20371318.398    20371321.7384   20371326.4914
      -296.033        -230.675
  -4217275.094 9  -3274036.11046  23227052.321    23227055.7174   23227062.3854
      3964.775        3089.435
 96 11  5 18  5 29.9980000  0  9 31  3  1 17 25 23  9 21 15         -0.001882743
  -7634850.637 9  -5934554.17347  22295260.724    22295264.1944   22295269.9304
      -639.749        -498.506
   5088375.433 9   3968232.47147  22488732.500    22488735.8384   22488742.1434
     -2332.650       -1817.649
  -9515021.511 9  -7397384.69348  19744818.249    19744821.7024   19744826.3974
      -110.299         -85.947
  14252011.519 8  11101560.91345  24578920.461    24578923.4634   24578931.6994
     -3246.080       -2529.413
 -13944698.263 9 -10826079.14747  22777942.601    22777946.1454   22777952.6354
      3691.379        2876.399
   6558915.953 9   5109066.89347  22762973.731    22762976.7034   22762982.2584
     -1599.927       -1246.696
   1729327.385 9   1356468.73246  24184275.783    24184279.8814   24184285.5784
     -2041.894       -1591.086
  -3139615.195 9  -2441520.95948  20373033.559    20373036.8894   20373041.6534
      -304.766        -237.480
  -4336131.132 9  -3366651.15846  23204434.913    23204438.1154   23204444.6944
      3959.109        3085.020
 96 11  5 18  5 59.9980000  0  9 31  3  1 17 25 23  9 21 15         -0.001891482
  -7615369.656 9  -5919374.21347  22298968.318    22298971.3074   22298977.0544
      -658.831        -513.375
   5158508.078 9   4022881.22447  22502078.185    22502081.6564   22502088.0334
     -2342.750       -1825.519
  -9511448.495 9  -7394600.51448  19745498.231    19745501.6044   19745506.3244
      -127.634         -99.455
  14349498.583 8  11177524.82745  24597472.109    24597474.8134   24597483.2304
     -3252.666       -2534.545
 -14055338.339 9 -10912292.16447  22756888.408    22756891.9924   22756898.5034
      3684.724        2871.214
   6607001.686 9   5146536.25447  22772124.334    22772127.1964   22772132.7454
     -1605.523       -1251.057
   1790821.356 9   1404386.10346  24195977.856    24195981.6944   24195987.4814
     -2057.560       -1603.293
  -3130322.437 9  -2434279.83948  20374802.032    20374805.2504   20374810.0234
      -314.511        -245.074
  -4454807.291 9  -3459126.00846  23181851.361    23181854.6354   23181861.2084
      3952.794        3080.099
 96 11  5 18  6 29.9980000  0  9 31  3  1 17 25 23  9 21 15         -0.001900194
  -7595351.016 9  -5903775.26847  22302776.747    22302780.6804   22302786.4364
      -676.418        -527.079
   5228928.479 9   4077754.21147  22515478.990    22515482.2444   22515488.6974
     -2352.495       -1833.113
  -9507384.034 9  -7391433.39748  19746271.645    19746275.0254   19746279.7504
      -144.064        -112.258
  14447145.298 8  11253613.20245  24616053.041    24616056.2924   24616064.9404
     -3257.568       -2538.365
 -14165796.100 9 -10998363.11647  22735868.754    22735872.5844   22735879.0734
      3678.698        2866.518
   6655218.512 9   5184107.76047  22781299.454    22781302.5814   22781308.1254
     -1609.451       -1254.118
   1852753.745 9   1452645.01546  24207763.448    24207766.9444   24207773.0294
     -2071.962       -1614.516
  -3120769.791 9  -2426836.22048  20376619.829    20376623.0564   20376627.8194
      -323.119        -251.781
  -4573320.349 9  -3551473.75046  23159299.148    23159302.3214   23159308.9444
      3947.498        3075.972
 96 11  5 18  6 59.9980000  0  8 31  3  1 25 23  9 21 15            -0.001908881
  -7574777.700 9  -5887744.13947  22306691.954    22306695.7214   22306701.4364
      -694.684        -541.312
   5299658.724 9   4132868.63547  22528938.640    22528941.8064   22528948.2644
     -2362.250       -1840.714
  -9502792.960 9  -7387855.92948  19747145.179    19747148.6614   19747153.4144
      -161.532        -125.869
 -14276062.153 9 -11084284.67247  22714886.196    22714889.6594   22714896.0824
      3672.767        2861.896
   6703572.156 9   5221785.87747  22790500.725    22790503.9934   22790509.6664
     -1613.729       -1257.451
   1915144.299 8   1501261.00846  24219636.163    24219639.5194   24219645.6314
     -2086.966       -1626.207
  -3110923.920 9  -2419164.11148  20378493.408    20378496.6484   20378501.4194
      -332.887        -259.392
  -4691650.141 9  -3643678.74546  23136781.182    23136784.8994   23136791.3534
      3941.642        3071.409
 96 11  5 18  7 29.9980000  0  8 31  3  1 25 23  9 21 15            -0.001917547
  -7553654.804 9  -5871284.76947  22310711.445    22310715.2684   22310721.0314
      -713.419        -555.911
   5370681.630 9   4188211.11547  22542453.846    22542457.0374   22542463.4934
     -2372.270       -1848.522
  -9497675.940 9  -7383868.63548  19748118.885    19748122.4034   19748127.1414
      -179.271        -139.692
 -14386141.182 9 -11170060.47647  22693938.594    22693942.2964   22693948.7334
      3665.953        2856.587
   6752062.538 9   5259570.55947  22799728.034    22799731.4714   22799737.0924
     -1618.957       -1261.525
   1977989.482 8   1550231.31846  24231595.142    24231598.5124   24231604.5484
     -2102.301       -1638.157
  -3100772.555 9  -2411253.95148  20380425.083    20380428.3724   20380433.1544
      -343.638        -267.770
  -4809798.615 9  -3735742.40846  23114298.290    23114301.9274   23114308.5194
      3935.089        3066.303
 96 11  5 18  7 59.9980000  0  8 31  3  1 25 23  9 21 15            -0.001926173
  -7531982.300 9  -5854397.12247  22314835.558    22314839.4734   22314845.2054
      -731.483        -569.987
   5441987.391 9   4243773.99047  22556023.160    22556026.1464   22556032.5824
     -2381.377       -1855.618
  -9492045.790 9  -7379481.49648  19749190.305    19749193.7444   19749198.5284
      -195.974        -152.707
 -14496023.906 9 -11255683.29847  22673028.610    22673032.2854   22673038.7324
      3659.525        2851.578
   6800715.055 9   5297481.55847  22808986.343    22808989.7294   22808995.4434
     -1624.633       -1265.948
   2041278.164 8   1599547.07246  24243638.480    24243641.9114   24243648.1544
     -2117.032       -1649.635
  -3090308.079 9  -2403099.81648  20382416.471    20382419.6804   20382424.4654
      -353.831        -275.712
  -4927757.315 9  -3827658.19546  23091851.701    23091855.1134   23091861.6234
      3928.752        3061.365
 96 11  5 18  8 29.9980000  0  8 31  3  1 25 23  9 21 15            -0.001934763
  -7509783.113 9  -5837099.07147  22319060.110    22319063.8224   22319069.5764
      -748.297        -583.089
   5513545.304 9   4299533.34447  22569640.521    22569643.2254   22569649.6114
     -2388.796       -1861.399
  -9485926.595 9  -7374713.28948  19750354.720    19750358.1784   19750362.9804
      -211.869        -165.093
 -14605725.845 9 -11341165.23047  22652152.717    22652156.6974   22652163.1224
      3654.274        2847.486
   6849534.349 9   5335522.53147  22818276.356    22818279.7914   22818285.4604
     -1629.806       -1269.979
   2104999.919 9   1649200.33346  24255764.386    24255767.8414   24255773.9244
     -2130.886       -1660.431
  -3079563.448 9  -2394727.36848  20384461.070    20384464.3024   20384469.0934
      -362.329        -282.334
  -5045532.703 9  -3919431.16946  23069439.771    23069443.1774   23069449.6004
      3923.111        3056.970
 96 11  5 18  8 59.9980000  0  8 31  3  1 25 23  9 21 15            -0.001943328
  -7487074.552 9  -5819404.10647  22323381.749    22323385.1484   22323390.8524
      -765.770        -596.704
   5585314.078 9   4355457.02147  22583297.437    22583300.3984   22583306.7904
     -2396.089       -1867.082
  -9479320.734 9  -7369565.85648  19751611.852    19751615.2194   19751620.0294
      -228.532        -178.077
 -14715268.231 9 -11426522.81347  22631307.886    22631311.4314   22631317.8534
      3648.178        2842.736
   6898524.340 9   5373696.49647  22827598.929    22827602.2434   22827608.0414
     -1636.308       -1275.045
   2169140.965 8   1699180.38646  24267970.355    24267973.5434   24267979.3964
     -2145.120       -1671.522
  -3068557.170 9  -2386151.04248  20386555.510    20386558.7074   20386563.5014
      -371.532        -289.505
  -5163132.104 9  -4011066.99646  23047061.263    23047064.7044   23047071.1184
      3916.614        3051.907
 96 11  5 18  9 29.9980000  0  8 31  3  1 25 23  9 21 15            -0.001951841
  -7463831.083 9  -5801292.31647  22327805.115    22327808.2384   22327813.9414
      -783.549        -610.558
   5657318.147 9   4411564.03247  22596999.100    22597002.3134   22597008.7324
     -2403.854       -1873.133
  -9472214.924 9  -7364028.85648  19752964.031    19752967.3884   19752972.2174
      -244.861        -190.801
 -14824611.632 9 -11511725.33147  22610500.009    22610504.0114   22610510.4064
      3641.854        2837.808
   6947715.872 9   5412027.51747  22836959.840    22836963.1034   22836968.9564
     -1642.746       -1280.062
   2233714.853 8   1749497.60246  24280257.902    24280261.1774   24280267.2954
     -2159.353       -1682.613
  -3057267.783 9  -2377354.11548  20388703.698    20388706.9804   20388711.8004
      -380.812        -296.737
  -5280521.337 9  -4102539.01946  23024722.837    23024726.2344   23024732.7814
      3909.743        3046.553
 96 11  5 18  9 59.9980000  0  8 31  3  1 25 23  9 21 15            -0.001960329
  -7440090.236 9  -5782792.98547  22332322.873    22332325.9834   22332331.6864
      -799.932        -623.324
   5729521.343 9   4467826.21747  22610738.724    22610742.1884   22610748.5594
     -2410.532       -1878.337
  -9464653.968 9  -7358137.19848  19754402.738    19754406.1604   19754411.0244
      -260.056        -202.641
 -14933806.246 9 -11596811.89547  22589721.333    22589724.8794   22589731.2424
      3637.019        2834.041
   6997064.771 9   5450481.14447  22846350.551    22846353.9104   22846359.8244
     -1647.768       -1283.975
   2298684.201 9   1800123.00146  24292621.164    24292624.6264   24292630.6524
     -2172.814       -1693.102
  -3045730.309 9  -2368363.87348  20390899.276    20390902.4914   20390907.3134
      -389.112        -303.204
  -5397740.821 9  -4193878.83146  23002416.531    23002420.1244   23002426.5524
      3904.142        3042.189
 96 11  5 18 10 29.9980000  0  8 31  3  1 25 23  9 21 15            -0.001968792
  -7415835.302 9  -5763893.04147  22336938.122    22336941.5844   22336947.2834
      -816.897        -636.543
   5801947.548 9   4524262.15647  22624520.930    22624524.5074   22624530.8974
     -2417.789       -1883.991
  -9456608.599 9  -7351868.08048  19755933.719    19755937.1304   19755941.9974
      -276.068        -215.118
 -15042835.611 9 -11681769.69547  22568973.622    22568977.2314   22568983.5484
      3631.771        2829.951
   7046572.366 9   5489058.45547  22855771.759    22855774.9364   22855780.8944
     -1652.293       -1287.501
   2364082.547 8   1851082.76846  24305065.992    24305069.7034   24305075.4874
     -2186.639       -1703.875
  -3033926.067 9  -2359165.76348  20393145.630    20393148.7834   20393153.5974
      -397.747        -309.933
  -5514775.441 9  -4285074.59446  22980146.069    22980149.1244   22980155.4624
      3898.433        3037.740
 96 11  5 18 10 59.9980000  0  8 31  3  1 25 23  9 21 15            -0.001977233
  -7391051.928 9  -5744581.33847  22341655.123    22341657.6604   22341663.4254
      -834.909        -650.578
   5874614.077 9   4580885.36247  22638349.087    22638352.5164   22638358.9754
     -2426.312       -1890.633
  -9448076.026 9  -7345219.31748  19757557.313    19757560.8294   19757565.6654
      -292.171        -227.666
 -15151685.038 9 -11766587.27547  22548260.046    22548263.7914   22548270.0364
      3625.205        2824.835
   7096219.626 9   5527744.59647  22865219.502    22865222.5474   22865228.5444
     -1657.025       -1291.188
   2429906.498 8   1902374.06646  24317591.536    24317595.4534   24317601.6554
     -2200.994       -1715.060
  -3021836.616 9  -2349745.41148  20395446.208    20395449.3374   20395454.1504
      -407.822        -317.783
  -5631624.995 9  -4376126.11246  22957910.156    22957913.2684   22957919.7434
      3891.960        3032.696
 96 11  5 18 11 29.9980000  0  8 31  3  1 25 23  9 21 15            -0.001985641
  -7365735.918 9  -5724854.59447  22346472.507    22346475.1314   22346480.8204
      -852.827        -664.541
   5947536.542 9   4637708.01447  22652225.812    22652229.2394   22652235.7634
     -2435.081       -1897.466
  -9439075.934 9  -7338206.25348  19759269.950    19759273.5054   19759278.3434
      -307.850        -239.883
 -15260341.090 9 -11851254.17847  22527583.397    22527587.1404   22527593.3514
      3618.529        2819.633
   7145996.998 9   5566532.11147  22874691.752    22874694.9124   22874700.9614
     -1661.589       -1294.745
   2496154.347 9   1953995.74746  24330198.353    24330202.1734   24330208.1744
     -2215.511       -1726.372
  -3009445.541 9  -2340090.03248  20397804.105    20397807.2944   20397812.1124
      -418.315        -325.960
  -5748288.130 9  -4467032.39046  22935709.979    22935713.0964   22935719.4714
      3885.564        3027.712
 96 11  5 18 11 59.9980000  0  8 31  3  1 25 23  9 21 15            -0.001994011
  -7339895.124 9  -5704718.92147  22351389.688    22351392.4904   22351398.1884
      -869.961        -677.892
   6020720.781 9   4694734.65147  22666151.922    22666155.7534   22666162.3094
     -2443.787       -1904.250
  -9429608.118 9  -7330828.73748  19761071.676    19761075.1974   19761079.9974
      -323.420        -252.016
 -15368786.958 9 -11935757.30747  22506946.726    22506950.4584   22506956.6104
      3611.056        2813.810
   7195914.757 9   5605429.02747  22884190.850    22884193.9314   22884200.0014
     -1666.245       -1298.373
   2562831.347 8   2005951.83245  24342886.656    24342890.4594   24342896.3364
     -2229.618       -1737.365
  -2996744.835 9  -2330193.38548  20400220.975    20400224.1344   20400228.9714
      -428.202        -333.664
  -5864759.132 9  -4557788.94046  22913546.071    22913549.3244   22913555.5834
      3879.152        3022.716
 96 11  5 18 12 29.9980000  0  8 31  3  1 25 23  9 21 15            -0.002002341
  -7313532.882 9  -5684176.92747  22356405.812    22356409.0834   22356414.7744
      -887.364        -691.452
   6094164.053 9   4751963.13547  22680127.496    22680131.5444   22680138.1494
     -2452.153       -1910.769
  -9419675.470 9  -7323089.01248  19762961.790    19762965.3314   19762970.0954
      -338.511        -263.775
 -15476995.285 9 -12020075.35447  22486355.011    22486358.9984   22486365.1154
      3603.170        2807.665
   7245972.327 9   5644434.87547  22893716.575    22893719.5794   22893725.6644
     -1670.857       -1301.966
   2629925.754 9   2058233.16346  24355654.611    24355658.0894   24355664.0144
     -2243.043       -1747.826
  -2983758.501 9  -2320074.16348  20402692.094    20402695.3694   20402700.1924
      -437.371        -340.809
  -5981035.990 9  -4648394.20746  22891419.311    22891422.4884   22891428.7864
      3872.804        3017.769
 96 11  5 18 12 59.9970000  0  8 31  3  1 25 23  9 21 15            -0.002010618
  -7286647.719 9  -5663227.47347  22361521.893    22361525.1994   22361530.8504
      -904.523        -704.823
   6167853.198 9   4809383.18347  22694149.880    22694154.1224   22694160.7724
     -2459.981       -1916.868
  -9409290.546 9  -7314996.86548  19764938.092    19764941.5544   19764946.2874
      -353.383        -275.363
 -15584965.527 9 -12104207.87447  22465809.187    22465812.8754   22465818.9364
      3595.587        2801.756
   7296185.745 9   5683562.15647  22903271.863    22903274.9394   22903281.0324
     -1676.503       -1306.366
   2697428.607 8   2110832.76546  24368499.727    24368503.3944   24368509.4874
     -2256.681       -1758.453
  -2970489.084 9  -2309734.36748  20405217.286    20405220.4744   20405225.2984
      -446.755        -348.121
  -6097109.214 9  -4738840.79846  22869331.340    22869334.4614   22869340.7924
      3866.162        3012.594
 96 11  5 18 13 29.9970000  0  8 31  3  1 25 23  9 21 15            -0.002018847
  -7259250.832 9  -5641879.27147  22366735.435    22366738.6774   22366744.4184
      -921.935        -718.391
   6241765.566 9   4866977.19047  22708215.102    22708219.2224   22708225.8694
     -2467.400       -1922.649
  -9398450.926 9  -7306550.40648  19767000.829    19767004.3164   19767009.0094
      -369.249        -287.726
 -15692719.471 9 -12188171.88647  22445304.081    22445307.8944   22445313.8714
      3588.006        2795.849
   7346577.482 9   5722828.42247  22912861.075    22912864.2804   22912870.2224
     -1682.932       -1311.376
   2765340.459 8   2163751.01846  24381422.965    24381426.7234   24381432.7424
     -2270.609       -1769.306
  -2956947.885 9  -2299182.79148  20407794.078    20407797.3034   20407802.0994
      -455.863        -355.218
  -6212986.056 9  -4829134.34446  22847280.243    22847283.7774   22847290.0724
      3859.043        3007.046
 96 11  5 18 13 59.9970000  0  8 31  3  1 25 23  9 21 15            -0.002027036
  -7231336.391 9  -5620127.77147  22372047.577    22372050.6114   22372056.3114
      -938.949        -731.649
   6315887.938 9   4924734.82147  22722320.555    22722324.2564   22722330.9704
     -2473.815       -1927.648
  -9387133.860 9  -7297731.91048  19769154.397    19769157.9194   19769162.5594
      -385.065        -300.051
 -15800256.429 9 -12271966.81247  22424840.694    22424844.2314   22424850.1664
      3581.319        2790.638
   7397157.775 9   5762241.57047  22922486.172    22922489.3494   22922495.4154
     -1688.881       -1316.011
   2833663.036 8   2216989.42146  24394424.266    24394428.0964   24394433.8654
     -2284.016       -1779.753
  -2943155.161 9  -2288435.21248  20410418.784    20410421.9974   20410426.7804
      -463.478        -361.152
  -6328658.012 9  -4919268.27946  22825268.781    22825272.0954   22825278.3144
      3852.600        3002.026
 96 11  5 18 14 29.9970000  0  8 31  3  1 25 23  9 21 15            -0.002035191
  -7202892.925 9  -5597964.04347  22377460.268    22377463.2494   22377468.9594
      -956.770        -745.535
   6390201.566 9   4982641.49847  22736462.095    22736465.7274   22736472.4724
     -2480.087       -1932.535
  -9375334.796 9  -7288537.82848  19771399.757    19771403.2284   19771407.8324
      -401.126        -312.566
 -15907586.578 9 -12355600.59547  22404416.454    22404419.8594   22404425.8274
      3574.538        2785.354
   7447930.916 9   5801805.02646  22932148.008    22932151.1854   22932157.1504
     -1695.583       -1321.234
   2902403.424 9   2270553.37946  24407505.240    24407508.9864   24407514.7204
     -2298.157       -1790.772
  -2929118.076 9  -2277497.21748  20413090.113    20413093.1654   20413097.9484
      -472.185        -367.936
  -6444124.711 9  -5009242.27946  22803296.538    22803299.5144   22803305.6854
      3845.489        2996.485
 96 11  5 18 14 59.9970000  0  8 31  3  1 25 23  9 21 15            -0.002043301
  -7173915.785 9  -5575384.46647  22382974.432    22382977.4294   22382983.1804
      -974.631        -759.453
   6464717.157 9   5040705.54347  22750641.993    22750645.6454   22750652.3634
     -2487.247       -1938.115
  -9363038.342 9  -7278956.16648  19773739.642    19773743.1714   19773747.7694
      -418.176        -325.851
 -16014702.228 9 -12439067.25747  22384033.002    22384036.3284   22384042.2414
      3566.828        2779.346
   7498916.850 9   5841534.29346  22941850.178    22941853.4854   22941859.4724
     -1702.960       -1326.982
   2971578.236 9   2324455.71246  24420669.013    24420672.5594   24420678.6704
     -2312.987       -1802.328
  -2914797.862 9  -2266338.60748  20415815.052    20415818.2204   20415822.9964
      -482.093        -375.657
  -6559361.865 9  -5099037.40146  22781367.417    22781370.5314   22781376.6364
      3837.437        2990.211
 96 11  5 18 15 29.9970000  0  8 31  3  1 25 23  9 21 15            -0.002051376
  -7144424.713 9  -5552404.42647  22388585.790    22388589.4404   22388595.1864
      -991.239        -772.394
   6539428.933 9   5098922.47047  22764859.557    22764862.8554   22764869.5934
     -2493.341       -1942.863
  -9350250.683 9  -7268991.74748  19776172.956    19776176.5994   19776181.1604
      -433.926        -338.124
 -16121599.294 9 -12522363.61247  22363690.549    22363694.4074   22363700.2964
      3559.849        2773.908
   7550095.775 9   5881413.93547  22951589.240    22951592.5054   22951598.6054
     -1708.653       -1331.418
   3041176.297 9   2378688.01346  24433913.075    24433916.7384   24433922.6704
     -2326.637       -1812.964
  -2900202.351 9  -2254965.48048  20418592.413    20418595.6534   20418600.4414
      -490.884        -382.507
  -6674378.193 9  -5188660.41446  22759479.964    22759483.5154   22759489.8174
      3830.537        2984.834
 96 11  5 18 15 59.9970000  0  8 31  3  1 25 23  9 21 15            -0.002059415
  -7114433.889 9  -5529034.96547  22394293.096    22394296.5624   22394302.2774
     -1007.959        -785.423
   6614339.485 9   5157294.27247  22779114.562    22779117.9134   22779124.6104
     -2500.364       -1948.336
  -9336991.279 9  -7258659.73448  19778696.247    19778699.7794   19778704.3154
      -449.760        -350.462
 -16228274.476 9 -12605487.08147  22343391.236    22343394.7814   22343400.5854
      3552.024        2767.811
   7601449.127 9   5921429.48046  22961361.397    22961364.7174   22961370.9244
     -1714.594       -1336.047
   3111192.516 8   2433246.16545  24447236.459    24447240.1224   24447246.1044
     -2340.908       -1824.084
  -2885328.030 9  -2243375.09548  20421422.966    20421426.1584   20421430.9494
      -500.619        -390.093
  -6789175.669 9  -5278112.94246  22737634.665    22737638.2984   22737644.4684
      3822.929        2978.906
 96 11  5 18 16 29.9970000  0  8 31  3  1 25 23  9 21 15            -0.002067403
  -7083935.628 9  -5505270.10747  22400096.470    22400100.1384   22400105.9094
     -1025.184        -798.845
   6689464.369 9   5215833.09947  22793410.178    22793413.7974   22793420.5304
     -2507.897       -1954.205
  -9323257.152 9  -7247957.80848  19781309.791    19781313.2774   19781317.8054
      -465.751        -362.923
 -16334698.350 9 -12688414.72947  22323138.998    22323142.9984   22323148.6634
      3543.113        2760.867
   7652984.805 9   5961587.11246  22971168.145    22971171.6744   22971177.8534
     -1720.844       -1340.917
   3181641.820 9   2488141.69746  24460642.576    24460646.2574   24460652.2374
     -2355.446       -1835.412
  -2870135.363 9  -2231536.65148  20424313.905    20424317.2154   20424322.0374
      -512.009        -398.968
  -6903731.542 9  -5367377.21646  22715835.127    22715838.9894   22715845.0844
      3814.340        2972.213
 96 11  5 18 16 59.9970000  0  8 31  3  1 25 23  9 21 15            -0.002075344
  -7052933.804 9  -5481112.86047  22405996.186    22405999.6674   22406005.3714
     -1041.777        -811.774
   6764808.719 9   5274542.93847  22807747.657    22807751.3454   22807758.1264
     -2515.063       -1959.789
  -9309049.820 9  -7236887.14848  19784013.331    19784016.8464   19784021.3424
      -481.427        -375.138
 -16440870.205 9 -12771146.04047  22302935.331    22302939.1564   22302944.7384
      3534.887        2754.457
   7704685.812 9   6001873.56746  22981006.644    22981010.0304   22981016.2304
     -1725.942       -1344.890
   3252503.541 8   2543358.62946  24474127.315    24474130.9824   24474136.8214
     -2368.565       -1845.635
  -2854617.334 9  -2219444.67248  20427267.010    20427270.2274   20427275.0384
      -522.393        -407.059
  -7018048.757 9  -5456455.49946  22694081.284    22694085.0604   22694091.1744
      3806.828        2966.359
 96 11  5 18 17 29.9970000  0  8 31  3  1 25 23  9 21 15            -0.002083247
  -7021422.445 9  -5456558.58047  22411992.799    22411996.0874   22412001.7674
     -1058.687        -824.951
   6840375.331 9   5333425.96247  22822127.869    22822131.2324   22822137.9804
     -2522.267       -1965.403
  -9294370.034 9  -7225448.34548  19786806.778    19786810.3124   19786814.8034
      -496.706        -387.044
 -16546789.740 9 -12853680.71647  22282779.342    22282783.2824   22282788.8374
      3526.815        2748.168
   7756542.609 9   6042281.40946  22990874.675    22990878.0934   22990884.3784
     -1730.737       -1348.626
   3323761.467 8   2598884.27946  24487687.254    24487690.8584   24487696.7144
     -2381.434       -1855.663
  -2838782.812 9  -2207106.08348  20430280.268    20430283.4554   20430288.2704
      -532.909        -415.254
  -7132135.922 9  -5545354.51546  22672371.337    22672374.9724   22672381.1974
      3799.333        2960.519
 96 11  5 18 17 59.9970000  0  8 31  3  1 25 23  9 21 15            -0.002091095
  -6989375.390 9  -5431586.84447  22418091.249    22418094.4284   22418100.1034
     -1076.596        -838.906
   6916187.120 9   5392500.04647  22836554.473    22836557.7704   22836564.6004
     -2530.645       -1971.931
  -9279209.691 9  -7213635.08248  19789691.620    19789695.2174   19789699.7104
      -512.749        -399.545
 -16652435.427 9 -12936002.01547  22262675.910    22262679.5204   22262685.0784
      3517.376        2740.812
   7808566.211 9   6082819.24946  23000774.600    23000777.9364   23000784.2404
     -1736.357       -1353.005
   3395420.230 9   2654722.32146  24501323.437    24501327.1824   24501332.9684
     -2394.583       -1865.909
  -2822603.445 9  -2194498.78648  20433359.083    20433362.2964   20433367.1044
      -544.404        -424.211
  -7245969.766 9  -5634056.19646  22650709.608    22650713.2134   22650719.2274
      3790.805        2953.874
 96 11  5 18 18 29.9970000  0  8 31  3  1 25 23  9 21 15            -0.002098901
  -6956801.549 9  -5406204.63447  22424290.128    22424293.0414   22424298.6904
     -1094.642        -852.968
   6992228.880 9   5451753.32047  22851024.348    22851028.1034   22851034.9534
     -2538.616       -1978.142
  -9263588.062 9  -7201462.37348  19792664.318    19792667.9264   19792672.3934
      -528.434        -411.767
 -16757820.618 9 -13018120.34847  22242621.493    22242625.3204   22242630.8634
      3508.496        2733.893
   7860735.901 9   6123470.92046  23010702.148    23010705.5064   23010711.7804
     -1741.424       -1356.954
   3467453.356 8   2710851.99346  24515030.690    24515034.6224   24515040.6154
     -2407.250       -1875.779
  -2806101.902 9  -2181640.43348  20436499.338    20436502.4604   20436507.2484
      -555.303        -432.704
  -7359568.669 9  -5722574.72346  22629092.454    22629095.8844   22629101.9754
      3782.739        2947.589
 96 11  5 18 18 59.9970000  0  8 31  3  1 25 23  9 21 15            -0.002106655
  -6923683.894 9  -5380398.67947  22430592.024    22430595.0884   22430600.8244
     -1112.767        -867.091
   7068528.992 9   5511207.90647  22865543.904    22865547.5674   22865554.4394
     -2547.533       -1985.091
  -9247480.398 9  -7188910.93848  19795729.534    19795733.1184   19795737.5734
      -544.935        -424.625
 -16862924.314 9 -13100019.32647  22222621.046    22222624.8034   22222630.2494
      3498.754        2726.302
   7913071.543 9   6164251.89546  23020661.172    23020664.7714   23020671.0214
     -1747.339       -1361.563
   3539871.507 8   2767281.76046  24528811.084    24528815.2934   24528821.2014
     -2420.380       -1886.010
  -2789267.516 9  -2168522.73248  20439702.723    20439705.9384   20439710.7174
      -566.459        -441.397
  -7472911.623 9  -5810893.86346  22607523.796    22607527.3764   22607533.4024
      3773.776        2940.605
 96 11  5 18 19 29.9970000  0  8 31  3  1 25 23  9 21 15            -0.002114362
  -6890051.015 9  -5354191.25747  22436992.297    22436995.2154   22437000.9594
     -1129.327        -879.995
   7145057.839 9   5570840.72347  22880106.936    22880110.4884   22880117.4004
     -2554.195       -1990.282
  -9230908.461 9  -7175997.73048  19798883.071    19798886.6194   19798891.1104
      -559.832        -436.233
 -16967757.696 9 -13181707.67447  22202671.765    22202675.6894   22202681.0904
      3490.307        2719.720
   7965566.639 9   6205157.13546  23030650.940    23030654.2784   23030660.4074
     -1752.357       -1365.473
   3612670.502 8   2824008.30346  24542664.324    24542668.4374   24542674.5634
     -2432.793       -1895.683
  -2772126.146 9  -2155165.82248  20442964.456    20442967.8454   20442972.6434
      -576.187        -448.977
  -7586004.450 9  -5899018.08946  22586002.912    22586006.4864   22586012.6344
      3765.727        2934.333
 96 11  5 18 19 59.9970000  0  8 31  3  1 25 23  9 21 15            -0.002122040
  -6855935.792 9  -5327607.97447  22443484.272    22443487.1344   22443492.9024
     -1144.850        -892.091
   7221768.162 9   5630614.96447  22894704.113    22894708.0104   22894714.9404
     -2559.719       -1994.586
  -9213888.557 9  -7162735.45848  19802121.976    19802125.4064   19802129.8624
      -574.862        -447.944
 -17072344.924 9 -13263204.20347  22182769.776    22182773.3684   22182778.7934
      3482.333        2713.506
   8018211.360 9   6246178.96046  23040669.100    23040672.2944   23040678.5684
     -1757.335       -1369.352
   3685836.789 8   2881020.98945  24556587.307    24556591.3584   24556597.6164
     -2444.944       -1905.151
  -2754710.265 9  -2141595.01048  20446278.698    20446281.9974   20446286.7734
      -584.700        -455.610
  -7698860.677 9  -5986957.94747  22564527.147    22564530.5624   22564536.7354
      3758.045        2928.347
 96 11  5 18 20 29.9970000  0  8 31  3  1 25 23  9 21 15            -0.002129687
  -6821337.996 9  -5300648.65547  22450067.723    22450070.8484   22450076.5904
     -1161.200        -904.831
   7298652.997 9   5690525.17347  22909334.747    22909338.7494   22909345.7194
     -2565.457       -1999.057
  -9196393.659 9  -7149103.05848  19805451.075    19805454.5364   19805459.0414
      -591.087        -460.587
 -17176675.284 9 -13344500.56647  22162916.436    22162919.9414   22162925.3934
      3473.355        2706.510
   8071034.921 9   6287340.11646  23050721.146    23050724.3374   23050730.5294
     -1763.817       -1374.403
   3759394.430 8   2938338.61246  24570584.573    24570588.8374   24570594.9684
     -2458.351       -1915.598
  -2737019.583 9  -2127810.07048  20449645.119    20449648.4284   20449653.1824
      -594.235        -463.040
  -7811464.981 9  -6074701.49947  22543099.297    22543102.5454   22543108.7014
      3749.309        2921.539
 96 11  5 18 20 59.9970000  0  7 31  3  1 25 23 21 15               -0.002137292
  -6786255.548 9  -5273311.68847  22456743.307    22456746.7884   22456752.5794
     -1176.907        -917.070
   7375709.298 9   5750569.00047  22923998.384    22924002.1314   22924009.1074
     -2570.766       -2003.194
  -9178410.539 9  -7135090.23148  19808873.080    19808876.5694   19808881.0974
      -606.796        -472.828
 -17280729.716 9 -13425581.90547  22143115.128    22143119.0134   22143124.5294
      3464.548        2699.648
   8124066.494 9   6328663.40446  23060812.810    23060816.0284   23060821.9944
     -1770.829       -1379.867
  -2719039.196 9  -2113799.39348  20453066.720    20453069.9764   20453074.7174
      -603.763        -470.465
  -7923799.846 9  -6162235.10747  22521722.800    22521726.0144   22521732.0804
      3740.511        2914.684
 96 11  5 18 21 29.9970000  0  7 31  3  1 25 23 21 15               -0.002144859
  -6750709.827 9  -5245613.73347  22463507.622    22463510.9574   22463516.8044
     -1192.939        -929.563
   7452911.647 9   5810726.64547  22938689.526    22938693.2674   22938700.2494
     -2576.270       -2007.483
  -9159967.099 9  -7120718.70948  19812382.714    19812386.2234   19812390.7404
      -622.718        -485.235
 -17384536.101 9 -13506469.95047  22123361.564    22123365.3364   22123370.8124
      3455.935        2692.936
   8177298.999 9   6370143.21446  23070942.274    23070945.8244   23070951.9794
     -1777.865       -1385.349
  -2700778.678 9  -2099570.42548  20456541.607    20456544.8744   20456549.5664
      -613.788        -478.276
  -8035878.987 9  -6249569.42547  22500394.916    22500397.9604   22500404.0514
      3731.501        2907.663
 96 11  5 18 21 59.9970000  0  7 31  3  1 25 23 21 15               -0.002152376
  -6714690.343 9  -5217546.61147  22470361.791    22470365.2274   22470371.1094
     -1208.540        -941.719
   7530289.679 9   5871021.16447  22953414.592    22953417.8624   22953424.8024
     -2582.417       -2012.273
  -9141055.814 9  -7105982.63448  19815981.307    19815984.8874   19815989.3964
      -638.010        -497.151
 -17488081.054 9 -13587154.26347  22103657.644    22103661.3824   22103666.7954
      3447.064        2686.024
   8230739.145 9   6411784.86046  23081111.417    23081115.1424   23081121.2344
     -1784.616       -1390.610
  -2682213.830 9  -2085104.32048  20460074.560    20460077.6554   20460082.3464
      -623.983        -486.221
  -8147692.754 9  -6336696.98247  22479117.798    22479120.5924   22479126.6154
      3722.707        2900.811
 96 11  5 18 22 29.9970000  0  7 31  3  1 25 23 21 15               -0.002159844
  -6678205.469 9  -5189116.83447  22477305.339    22477308.0994   22477313.9644
     -1224.019        -953.781
   7607853.753 9   5931460.64747  22968174.158    22968177.7754   22968184.7544
     -2588.775       -2017.227
  -9121705.783 9  -7090904.67948  19819663.430    19819667.0634   19819671.5984
      -652.195        -508.204
 -17591369.333 9 -13667638.56547  22084002.678    22084006.2674   22084011.6594
      3438.522        2679.368
   8284361.890 9   6453568.78246  23091315.723    23091319.2964   23091325.5144
     -1790.408       -1395.123
  -2663344.888 9  -2070401.26348  20463665.154    20463668.2964   20463673.0094
      -634.100        -494.104
  -8259251.338 9  -6423625.69047  22457888.821    22457891.6804   22457897.6844
      3714.277        2894.242
 96 11  5 18 22 59.9970000  0  7 31  3  1 25 23 21 15               -0.002167270
  -6641266.643 9  -5160333.34147  22484334.042    22484337.3204   22484343.1684
     -1238.861        -965.346
   7685609.794 9   5992049.72447  22982970.920    22982974.3064   22982981.3524
     -2595.062       -2022.126
  -9101933.812 9  -7075497.94048  19823426.029    19823429.5544   19823434.0464
      -666.263        -519.166
 -17694405.855 9 -13747926.68647  22064395.403    22064399.0224   22064404.4284
      3430.522        2673.134
   8338146.490 9   6495478.81946  23101550.516    23101554.2394   23101560.3814
     -1795.425       -1399.032
  -2644175.215 9  -2055463.87048  20467312.929    20467316.1644   20467320.8654
      -644.175        -501.954
  -8370560.615 9  -6510360.13447  22436707.054    22436710.2074   22436716.1364
      3706.063        2887.841
 96 11  5 18 23 29.9970000  0  7 31  3  1 25 23 21 15               -0.002174665
  -6603872.516 9  -5131195.07747  22491450.020    22491453.1374   22491459.0084
     -1254.466        -977.506
   7763550.893 9   6052782.99547  22997802.531    22997806.1024   22997813.0944
     -2601.261       -2026.957
  -9081722.862 9  -7059749.13848  19827272.106    19827275.5354   19827280.0314
      -681.356        -530.927
 -17797195.398 9 -13828022.34047  22044834.989    22044838.7464   22044844.1854
      3421.664        2666.232
   8392075.502 9   6537501.38246  23111813.067    23111816.6004   23111822.7464
     -1800.126       -1402.696
  -2624702.203 9  -2040290.11248  20471018.447    20471021.7764   20471026.4624
      -654.203        -509.769
  -8481614.763 9  -6596895.78347  22415574.300    22415577.3294   22415583.2754
      3697.298        2881.011
 96 11  5 18 23 59.9970000  0  7 31  3  1 25 23 21 15               -0.002182036
  -6566019.611 9  -5101699.31747  22498652.985    22498656.3324   22498662.2334
     -1268.876        -988.735
   7841658.659 9   6113646.14447  23012666.069    23012669.5324   23012676.5484
     -2605.534       -2030.286
  -9061070.136 9  -7043656.10648  19831202.081    19831205.6254   19831210.1014
      -695.180        -541.699
 -17899712.193 9 -13907905.46147  22025326.695    22025330.3944   22025335.8114
      3413.099        2659.558
   8446145.372 9   6579633.71946  23122102.249    23122105.8114   23122111.9644
     -1804.157       -1405.837
  -2604942.054 9  -2024892.60848  20474778.807    20474782.0204   20474786.7024
      -662.814        -516.478
  -8592411.441 9  -6683230.81447  22394490.348    22394493.3944   22394499.2174
      3689.436        2874.885
 96 11  5 18 24 29.9970000  0  7 31  3  1 25 23 21 15               -0.002189396
  -6527720.388 9  -5071855.77647  22505940.986    22505944.5084   22505950.3444
     -1284.583       -1000.974
   7919898.161 9   6174611.94547  23027554.477    23027558.0414   23027565.1244
     -2610.545       -2034.191
  -9039988.422 9  -7027228.78948  19835213.810    19835217.3424   19835221.8094
      -710.461        -553.606
 -18001963.405 9 -13987581.63447  22005868.906    22005872.6134   22005877.9934
      3403.341        2651.954
   8500348.207 9   6621869.65146  23132416.708    23132420.3034   23132426.5394
     -1809.713       -1410.166
  -2584915.175 9  -2009287.26248  20478589.876    20478593.0274   20478597.7274
      -672.550        -524.065
  -8702960.965 9  -6769373.22047  22373453.175    22373456.3824   22373462.3344
      3680.287        2867.756
 96 11  5 18 24 59.9970000  0  7 31  3  1 25 23 21 15               -0.002196740
  -6488980.143 9  -5041668.58347  22513313.214    22513316.5554   22513322.3934
     -1298.267       -1011.637
   7998248.446 9   6235664.06047  23042464.299    23042467.6494   23042474.7724
     -2612.897       -2036.024
  -9018474.747 9  -7010464.88548  19839307.703    19839311.2354   19839315.7284
      -723.807        -564.005
 -18103946.689 9 -14067049.04547  21986462.122    21986465.7974   21986471.1274
      3395.518        2645.858
   8554696.592 9   6664219.01646  23142758.979    23142762.4404   23142768.6944
     -1813.594       -1413.190
  -2564617.419 9  -1993470.84548  20482452.418    20482455.5664   20482460.2934
      -680.764        -530.465
  -8813259.034 9  -6855319.70747  22352463.764    22352467.3024   22352473.2634
      3672.811        2861.931
 96 11  5 18 25 29.9970000  0  7 31  3  1 25 23 21 15               -0.002204061
  -6449785.661 9  -5011127.42947  22520771.744    22520775.0154   22520780.8634
     -1313.871       -1023.796
   8076700.879 9   6296795.76447  23057393.275    23057396.6864   23057403.8344
     -2616.753       -2039.028
  -8996533.543 9  -6993367.84248  19843483.057    19843486.4994   19843490.9924
      -737.973        -575.044
 -18205652.901 9 -14146300.55047  21967107.999    21967111.6654   21967116.9654
      3385.680        2638.192
   8609199.583 9   6706688.84946  23153130.641    23153134.1834   23153140.4114
     -1819.237       -1417.587
  -2544046.336 9  -1977441.43948  20486366.982    20486370.0874   20486374.8254
      -689.834        -537.533
  -8923299.309 9  -6941065.33647  22331523.840    22331527.2814   22331533.1804
      3663.971        2855.042
 96 11  5 18 25 59.9970000  0  7 31  3  1 25 23 21 15               -0.002211341
  -6410134.617 9  -4980230.53547  22528316.813    22528320.3394   22528326.2164
     -1328.967       -1035.559
   8155277.032 9   6358023.86847  23072345.900    23072349.2664   23072356.3934
     -2621.259       -2042.539
  -8974184.148 9  -6975952.73248  19847736.022    19847739.4644   19847743.9504
      -751.440        -585.538
 -18307070.155 9 -14225326.90247  21947808.823    21947812.4994   21947817.8284
      3376.162        2630.776
   8663874.980 9   6749293.00946  23163535.105    23163538.4414   23163544.7904
     -1825.085       -1422.144
  -2523201.275 9  -1961198.54548  20490333.594    20490336.7704   20490341.5594
      -699.303        -544.911
  -9033079.600 9  -7026608.37247  22310633.499    22310636.7384   22310642.5594
      3655.241        2848.240
 96 11  5 18 26 29.9970000  0  7 31  3  1 25 23 21 15               -0.002218566
  -6370010.364 9  -4948964.88947  22535952.805    22535955.7794   22535961.5534
     -1345.451       -1048.403
   8234008.048 9   6419372.66647  23087327.658    23087331.2814   23087338.4204
     -2626.950       -2046.974
  -8951415.929 9  -6958211.26648  19852068.697    19852072.1034   19852076.5804
      -766.007        -596.889
 -18408198.249 9 -14304127.94147  21928564.426    21928568.3914   21928573.6934
      3366.104        2622.938
   8718737.042 9   6792042.63746  23173975.104    23173978.4624   23173984.7474
     -1832.037       -1427.561
  -2502056.176 9  -1944721.85348  20494357.580    20494360.5614   20494365.3564
      -709.941        -553.201
  -9142584.780 9  -7111937.06247  22289795.287    22289798.5374   22289804.2724
      3645.472        2840.628
 96 11  5 18 26 59.9970000  0  7 31  3  1 25 23 21 15               -0.002225743
  -6329415.495 9  -4917332.55447  22543678.138    22543680.7464   22543686.5234
     -1360.986       -1060.509
   8312880.645 9   6480831.76647  23102336.593    23102340.2894   23102347.4284
     -2631.251       -2050.325
  -8928233.442 9  -6940146.99248  19856480.248    19856483.5904   19856488.0634
      -779.525        -607.422
 -18509046.817 9 -14382711.16847  21909373.871    21909377.5254   21909382.7834
      3357.185        2615.988
   8773783.038 9   6834935.58546  23184449.966    23184453.2464   23184459.6444
     -1837.624       -1431.915
  -2480613.834 9  -1928013.55348  20498437.961    20498440.9264   20498445.6784
      -719.523        -560.667
  -9251819.802 9  -7197055.19847  22269008.319    22269011.7714   22269017.5194
      3636.830        2833.894
 96 11  5 18 27 29.9970000  0  7 31  3  1 25 23 21 15               -0.002232860
  -6288320.319 9  -4885310.34847  22551497.942    22551500.9104   22551506.6654
     -1376.696       -1072.750
   8391919.832 9   6542420.69847  23117377.627    23117380.9814   23117388.1264
     -2636.190       -2054.174
  -8904608.335 9  -6921737.81948  19860975.893    19860979.2994   19860983.7654
      -793.649        -618.428
 -18609595.216 9 -14461060.51447  21890239.976    21890243.7484   21890248.9764
      3347.975        2608.812
   8829031.596 9   6877986.37246  23194963.314    23194966.6984   23194973.2194
     -1843.704       -1436.652
  -2458856.796 9  -1911060.02848  20502578.059    20502581.1654   20502585.9384
      -729.185        -568.196
  -9360762.953 9  -7281945.90647  22248277.055    22248280.5664   22248286.3864
      3627.858        2826.902
 96 11  5 18 27 59.9970000  0  7 31  3  1 25 23 21 15               -0.002239945
  -6246772.452 9  -4852935.40247  22559404.352    22559407.2334   22559413.0014
     -1392.730       -1085.244
   8471090.841 9   6604112.32947  23132443.177    23132446.7754   23132453.9454
     -2641.368       -2058.209
  -8880567.997 9  -6903005.08848  19865550.597    19865553.9994   19865558.4964
      -808.675        -630.136
 -18709887.730 9 -14539210.45747  21871154.886    21871158.6254   21871163.8944
      3338.555        2601.471
   8884448.389 9   6921168.25146  23205508.663    23205512.1174   23205518.6294
     -1850.309       -1441.799
  -2436810.007 9  -1893880.72848  20506773.370    20506776.5324   20506781.2964
      -740.183        -576.766
  -9469445.404 9  -7366633.50647  22227595.054    22227599.0004   22227604.7974
      3618.019        2819.236
 96 11  5 18 28 29.9970000  0  7 31  3  1 25 23 21 15               -0.002246992
  -6204759.932 9  -4820198.38747  22567399.126    22567401.9434   22567407.7654
     -1408.020       -1097.158
   8550393.842 9   6665906.81647  23147534.069    23147537.6594   23147544.8854
     -2645.513       -2061.439
  -8856088.395 9  -6883930.07148  19870208.847    19870212.3124   19870216.8134
      -823.347        -641.569
 -18809910.076 9 -14617149.88847  21852121.188    21852124.9034   21852130.2204
      3329.398        2594.336
   8940044.770 9   6964490.07646  23216088.290    23216091.7904   23216098.2534
     -1856.099       -1446.311
  -2414449.803 9  -1876457.21148  20511028.305    20511031.5524   20511036.3124
      -750.529        -584.828
  -9577845.614 9  -7451101.14947  22206967.189    22206971.0414   22206976.8354
      3608.573        2811.875
 96 11  5 18 28 59.9970000  0  7 31  3  1 25 23 21 15               -0.002253997
  -6162286.067 9  -4787101.88847  22575481.803    22575484.4484   22575490.2954
     -1423.336       -1109.093
   8629839.331 9   6727812.34647  23162651.952    23162655.6494   23162662.8834
     -2650.717       -2065.494
  -8831158.357 9  -6864504.06748  19874952.815    19874956.3354   19874960.8534
      -838.323        -653.239
 -18909630.646 9 -14694854.17447  21833144.955    21833148.6344   21833153.9764
      3318.901        2586.157
   8995825.784 9   7007955.75946  23226703.231    23226706.5994   23226713.0384
     -1862.242       -1451.098
  -2391763.677 9  -1858779.72248  20515345.327    20515348.5834   20515353.3304
      -761.608        -593.461
  -9685944.825 9  -7535334.26347  22186396.572    22186400.4184   22186406.1564
      3598.271        2803.848
 96 11  5 18 29 29.9970000  0  7 31  3  1 25 23 21 15               -0.002260963
  -6119375.633 9  -4753665.20647  22583647.097    22583649.9964   22583655.9084
     -1437.566       -1120.181
   8709436.070 9   6789835.69447  23177798.340    23177802.4534   23177809.7044
     -2655.858       -2069.500
  -8805797.871 9  -6844742.65548  19879778.764    19879782.2574   19879786.7874
      -852.503        -664.288
 -19009045.936 9 -14772320.58447  21814226.661    21814230.4994   21814235.8184
      3308.545        2578.087
   9051772.402 9   7051550.49246  23237349.531    23237352.9604   23237359.3284
     -1867.800       -1455.428
  -2368760.064 9  -1840854.85148  20519722.754    20519726.0464   20519730.8064
      -772.168        -601.689
  -9793744.891 9  -7619334.27647  22165883.185    22165886.6444   22165892.4094
      3588.169        2795.976
 96 11  5 18 29 59.9970000  0  7 31  3  1 25 23 21 15               -0.002267887
  -6076050.400 9  -4719905.29747  22591891.459    22591894.5724   22591900.4604
     -1451.561       -1131.086
   8789175.267 9   6851970.07047  23192972.480    23192976.3894   23192983.6014
     -2660.642       -2073.227
  -8780028.629 9  -6824662.72848  19884682.580    19884685.9674   19884690.4994
      -866.009        -674.812
 -19108150.922 9 -14849545.20447  21795367.855    21795371.4454   21795376.7094
      3297.719        2569.651
   9107880.915 9   7095271.36246  23248026.659    23248029.9744   23248036.5694
     -1873.433       -1459.818
  -2345447.202 9  -1822688.99848  20524159.035    20524162.3394   20524167.1234
      -782.533        -609.766
  -9901247.762 9  -7703102.69647  22145426.123    22145429.4714   22145435.2254
      3578.160        2788.177
 96 11  5 18 30 29.9970000  0  7 31  3  1 25 23 21 15               -0.002274767
  -6032304.512 9  -4685817.61247  22600216.075    22600219.2024   22600225.0374
     -1465.284       -1141.780
   8869056.009 9   6914214.74747  23208173.441    23208177.2474   23208184.4494
     -2665.012       -2076.633
  -8753856.482 9  -6804268.84948  19889662.920    19889666.3794   19889670.8994
      -879.111        -685.022
 -19206921.628 9 -14926509.34047  21776572.345    21776575.9534   21776581.2364
      3286.694        2561.060
   9164151.627 9   7139118.60346  23258734.703    23258738.0734   23258744.6624
     -1878.176       -1463.514
  -2321830.708 9  -1804286.54848  20528653.098    20528656.4304   20528661.2074
      -792.306        -617.381
 -10008451.685 9  -7786638.20347  22125025.649    22125029.2824   22125034.9924
      3568.407        2780.577
 96 11  5 18 30 59.9970000  0  7 31  3  1 25 23 21 15               -0.002281595
  -5988134.744 9  -4651399.63947  22608621.213    22608624.4124   22608630.2764
     -1479.468       -1152.832
   8949084.893 9   6976574.84947  23223402.765    23223406.2724   23223413.5164
     -2670.006       -2080.524
  -8727283.091 9  -6783562.31448  19894719.630    19894723.1284   19894727.6434
      -892.446        -695.412
 -19305345.492 9 -15003203.21447  21757842.801    21757846.4504   21757851.7884
      3275.176        2552.085
   9220588.763 9   7183095.54646  23269474.726    23269477.6944   23269484.2384
     -1884.045       -1468.087
  -2297903.752 9  -1785642.18148  20533206.228    20533209.6034   20533214.3824
      -802.718        -625.495
 -10115345.318 9  -7869931.92847  22104684.400    22104688.0404   22104693.6224
      3557.906        2772.394
 96 11  5 18 31 29.9970000  0  7 31  3  1 25 23 21 15               -0.002288373
  -5943530.756 9  -4616643.29547  22617109.125    22617112.3584   22617118.1424
     -1493.932       -1164.103
   9029251.078 9   7039041.93447  23238658.012    23238661.4624   23238668.7384
     -2674.071       -2083.692
  -8700300.394 9  -6762536.83648  19899854.266    19899857.7804   19899862.2614
      -906.126        -706.072
 -19403429.232 9 -15079632.05347  21739177.928    21739181.6984   21739187.0754
      3263.952        2543.339
   9277201.265 9   7227209.13646  23280247.599    23280250.6864   23280257.2674
     -1889.857       -1472.616
  -2273666.583 9  -1766756.08448  20537818.367    20537821.8124   20537826.5754
      -812.749        -633.311
 -10221921.379 9  -7952978.16847  22084403.482    22084407.2584   22084412.8554
      3547.454        2764.250
 96 11  5 18 31 59.9970000  0  7 31  3  1 25 23 21 15               -0.002295112
  -5898491.937 9  -4581548.14047  22625679.579    22625682.9074   22625688.7954
     -1508.801       -1175.689
   9109524.852 9   7101592.86747  23253933.824    23253937.0644   23253944.3564
     -2677.727       -2086.541
  -8672910.504 9  -6741194.06448  19905066.353    19905069.9104   19905074.3724
      -920.172        -717.017
 -19501179.703 9 -15155801.19747  21720576.663    21720580.3514   21720585.7474
      3252.555        2534.458
   9333983.181 9   7271454.72546  23291052.821    23291055.9624   23291062.5774
     -1895.807       -1477.252
  -2249133.291 9  -1747639.24448  20542487.031    20542490.3264   20542495.1124
      -822.954        -641.263
 -10328189.541 9  -8035784.49747  22064181.052    22064185.0974   22064190.7294
      3536.898        2756.024
 96 11  5 18 32 29.9970000  0  7 31  3  1 25 23 21 15               -0.002301818
  -5853019.188 9  -4546114.85547  22634332.764    22634336.1244   22634341.9984
     -1522.559       -1186.410
   9189902.093 9   7164224.40747  23269228.588    23269232.4064   23269239.6834
     -2680.580       -2088.764
  -8645101.250 9  -6719524.51649  19910358.355    19910361.8444   19910366.3044
      -933.648        -727.518
 -19598599.380 9 -15231712.58347  21702038.149    21702041.9514   21702047.3424
      3242.297        2526.465
   9390932.692 9   7315830.92346  23301889.950    23301893.1014   23301899.6884
     -1900.876       -1481.202
  -2224304.726 9  -1728292.31648  20547211.845    20547215.0584   20547219.8544
      -832.228        -648.489
 -10434142.693 9  -8118345.34947  22044019.158    22044022.8544   22044028.3354
      3526.727        2748.099
 96 11  5 18 32 59.9970000  0  7 31  3  1 25 23 21 15               -0.002308505
  -5807143.149 9  -4510367.31847  22643062.678    22643066.0704   22643071.9544
     -1536.145       -1196.996
   9270351.176 9   7226911.91546  23284537.581    23284541.4204   23284548.7324
     -2682.831       -2090.518
  -8616886.691 9  -6697539.14448  19915727.228    19915730.8844   19915735.3424
      -947.533        -738.337
 -19695711.834 9 -15307384.56847  21683558.220    21683562.0204   21683567.3994
      3231.714        2518.219
   9448038.062 9   7360328.55346  23312756.598    23312759.9174   23312766.5574
     -1906.454       -1485.549
  -2199202.932 9  -1708732.48648  20551988.509    20551991.7914   20551996.5734
      -841.296        -655.555
 -10539793.133 9  -8200670.35547  22023914.652    22023918.2434   22023923.6904
      3516.499        2740.129
 96 11  5 18 33 29.9970000  0  7 31  3  1 25 23 21 15               -0.002315166
  -5760836.488 9  -4474284.23347  22651874.582    22651877.9324   22651883.8494
     -1550.559       -1208.228
   9350875.532 9   7289658.10547  23299861.155    23299864.8064   23299872.0764
     -2685.303       -2092.444
  -8588235.956 9  -6675213.89449  19921179.346    19921182.9544   19921187.3974
      -962.122        -749.705
 -19792488.861 9 -15382795.18947  21665142.276    21665145.9314   21665151.3014
      3220.380        2509.387
   9505330.544 9   7404972.00646  23323659.337    23323662.4764   23323668.9044
     -1912.801       -1490.494
  -2173820.331 9  -1688953.84648  20556818.781    20556821.9294   20556826.7454
      -850.671        -662.861
 -10645118.986 9  -8282742.39747  22003871.158    22003875.3884   22003880.8354
      3505.612        2731.646
 96 11  5 18 33 59.9970000  0  7 31  3  1 25 23 21 15               -0.002321806
  -5714120.769 9  -4437882.38447  22660764.083    22660767.6334   22660773.5054
     -1563.495       -1218.308
   9431462.886 9   7352453.37046  23315196.692    23315200.1224   23315207.3544
     -2686.926       -2093.709
  -8559161.777 9  -6652558.68449  19926712.054    19926715.6094   19926720.0394
      -975.825        -760.383
 -19888940.130 9 -15457951.96748  21646788.121    21646791.8354   21646797.1754
      3210.128        2501.398
   9562808.429 9   7449759.88946  23334596.827    23334600.1644   23334606.7844
     -1918.629       -1495.036
  -2148159.353 9  -1668958.28348  20561701.916    20561705.0814   20561709.9004
      -859.733        -669.922
 -10750134.511 9  -8364572.64147  21983887.604    21983891.5724   21983896.9254
      3495.764        2723.972
 96 11  5 18 34 29.9970000  0  7 31  3  1 25 23 21 15               -0.002328428
  -5667009.152 9  -4401172.06747  22669729.076    22669732.6814   22669738.5884
     -1577.167       -1228.961
   9512110.785 9   7415295.84446  23330543.179    23330546.9284   23330554.2024
     -2689.348       -2095.596
  -8529672.981 9  -6629580.39349  19932323.569    19932327.1584   19932331.5624
      -989.731        -771.219
 -19985079.758 9 -15532865.90148  21628493.354    21628497.0484   21628502.3394
      3199.373        2493.018
   9620466.502 9   7494688.23646  23345568.999    23345572.2064   23345578.5974
     -1925.031       -1500.024
  -2122221.996 9  -1648747.35648  20566637.671    20566640.8164   20566645.6374
      -869.293        -677.371
 -10854847.135 9  -8446166.88247  21963961.389    21963965.4564   21963970.7884
      3485.310        2715.826
 96 11  5 18 34 59.9970000  0  7 31  3  1 25 23 21 15               -0.002335011
  -5619465.945 9  -4364125.41647  22678776.169    22678779.8034   22678785.6854
     -1592.031       -1240.544
   9592844.856 9   7478205.40446  23345906.562    23345910.1574   23345917.3494
     -2692.711       -2098.216
  -8499755.927 9  -6606268.39649  19938016.623    19938020.1674   19938024.5854
     -1004.263        -782.543
 -20080876.145 9 -15607512.38348  21610263.774    21610267.5744   21610272.8274
      3187.481        2483.751
   9678326.908 9   7539774.21246  23356579.515    23356582.7664   23356589.2374
     -1931.955       -1505.419
  -2095973.824 9  -1628294.23248  20571632.465    20571635.6924   20571640.5124
      -880.312        -685.957
 -10959232.816 9  -8527506.34547  21944097.344    21944101.4554   21944106.7564
      3474.068        2707.066
 96 11  5 18 35 29.9970000  0  7 31  3  1 25 23 21 15               -0.002341550
  -5571495.067 9  -4326745.53347  22687904.653    22687908.3454   22687914.2734
     -1606.336       -1251.690
   9673673.385 9   7541188.59846  23361287.911    23361291.4214   23361298.5454
     -2696.489       -2101.160
  -8469435.852 9  -6582642.36049  19943786.382    19943789.8914   19943794.3244
     -1017.548        -792.894
 -20176344.280 9 -15681903.09148  21592096.732    21592100.5374   21592105.7664
      3176.553        2475.236
   9736370.866 9   7585003.18546  23367624.761    23367628.1234   23367634.7234
     -1938.124       -1510.226
  -2069406.001 9  -1607592.03548  20576688.149    20576691.3954   20576696.2304
      -891.353        -694.561
 -11063301.191 9  -8608598.54647  21924293.918    21924297.8474   21924303.1554
      3463.294        2698.671
 96 11  5 18 35 59.9970000  0  7 31  3  1 25 23 21 15               -0.002348036
  -5523107.072 9  -4289040.64747  22697112.837    22697116.2774   22697122.3084
     -1619.659       -1262.072
   9754620.029 9   7604263.79646  23376691.692    23376695.1094   23376702.2544
     -2700.074       -2103.954
  -8438726.695 9  -6558713.14349  19949630.201    19949633.6634   19949638.1044
     -1029.768        -802.417
 -20271488.024 9 -15756041.02448  21573991.526    21573995.2404   21574000.4484
      3166.158        2467.136
   9794594.431 9   7630372.16446  23378704.487    23378707.8244   23378714.2964
     -1943.292       -1514.254
  -2042509.590 9  -1586633.78948  20581806.387    20581809.6314   20581814.4844
      -901.694        -702.619
 -11167048.525 9  -8689440.58047  21904551.551    21904555.3444   21904560.7474
      3453.030        2690.673
 96 11  5 18 36 29.9970000  0  7 31  3  1 25 23 21 15               -0.002354476
  -5474320.984 9  -4251025.55047  22706396.337    22706399.9224   22706405.9654
     -1632.501       -1272.079
   9835677.448 9   7667425.33146  23392116.694    23392119.8724   23392127.0604
     -2703.442       -2106.578
  -8407658.603 9  -6534504.24149  19955542.296    19955545.7014   19955550.1694
     -1041.114        -811.258
 -20366314.319 9 -15829931.60348  21555946.611    21555950.3584   21555955.5534
      3155.887        2459.133
   9852970.227 9   7675859.75146  23389812.879    23389816.3654   23389822.8104
     -1948.260       -1518.125
  -2015307.799 9  -1565437.59548  20586982.722    20586985.9814   20586990.8204
      -911.524        -710.278
 -11270477.968 9  -8770034.93647  21884869.452    21884873.3424   21884878.7094
      3442.514        2682.478
 96 11  5 18 36 59.9970000  0  7 31  3  1 25 23 21 15               -0.002360865
  -5425153.010 9  -4212712.86047  22715752.876    22715756.3334   22715762.3264
     -1644.783       -1281.649
   9916835.768 9   7730665.47846  23407560.242    23407563.8834   23407571.0514
     -2706.598       -2109.037
  -8376242.338 9  -6510024.03549  19961520.569    19961524.0194   19961528.4854
     -1052.946        -820.477
 -20460827.803 9 -15903578.43148  21537961.494    21537965.0144   21537970.2114
      3145.446        2450.997
   9911499.978 9   7721467.27446  23400950.681    23400954.2464   23400960.8664
     -1953.278       -1522.035
  -1987800.410 9  -1544003.26748  20592217.256    20592220.4734   20592225.3204
      -921.653        -718.171
 -11373584.692 9  -8850377.82047  21865249.065    21865252.7764   21865258.0634
      3431.751        2674.092
 96 11  5 18 37 29.9970000  0  7 31  3  1 25 23 21 15               -0.002367209
  -5375616.627 9  -4174113.11347  22725179.444    22725182.8594   22725188.8804
     -1658.660       -1292.462
   9998092.858 9   7793982.61946  23423022.966    23423026.6494   23423033.8074
     -2711.255       -2112.666
  -8344455.211 9  -6485254.84349  19967569.414    19967572.9184   19967577.3984
     -1067.229        -831.607
 -20555022.731 9 -15976977.03848  21520036.629    21520040.2914   21520045.4784
      3133.147        2441.413
   9970194.716 9   7767203.36446  23412119.933    23412123.5274   23412130.1004
     -1960.619       -1527.755
  -1959991.385 9  -1522333.89648  20597509.211    20597512.3684   20597517.2254
      -933.048        -727.050
 -11476357.737 9  -8930460.67147  21845692.022    21845695.7184   21845701.0944
      3418.880        2664.062
 96 11  5 18 37 59.9970000  0  7 31  3  1 25 23 21 15               -0.002373535
  -5325741.006 9  -4135249.03647  22734670.580    22734673.9034   22734679.8974
     -1668.294       -1299.969
  10079401.798 9   7857340.12446  23438495.837    23438499.2294   23438506.5344
     -2711.004       -2112.471
  -8312306.055 9  -6460203.55649  19973687.211    19973690.7114   19973695.1914
     -1077.890        -839.914
 -20648911.849 9 -16050137.36248  21502169.993    21502173.7304   21502178.8924
      3124.319        2434.534
  10029034.713 9   7813052.66346  23423316.894    23423320.5454   23423326.9574
     -1963.732       -1530.181
  -1931917.995 9  -1500458.52648  20602851.305    20602854.5674   20602859.4034
      -940.440        -732.810
 -11578814.949 9  -9010297.44047  21826195.064    21826198.7514   21826204.1224
      3409.827        2657.008
 96 11  5 18 38 29.9970000  0  7 31  3  1 25 23 21 15               -0.002379838
  -5275508.485 9  -4096106.83747  22744229.525    22744232.9154   22744238.8524
     -1680.783       -1309.701
  10160754.844 9   7920732.00246  23453976.484    23453980.3384   23453987.6354
     -2712.437       -2113.587
  -8279766.811 9  -6434848.30449  19979879.318    19979882.7374   19979887.2354
     -1091.381        -850.427
 -20742471.690 9 -16123041.10448  21484366.042    21484369.8564   21484375.0084
      3113.089        2425.784
  10088041.502 9   7859031.89146  23434545.470    23434549.1264   23434555.6764
     -1970.145       -1535.178
  -1903546.777 9  -1478351.08648  20608250.254    20608253.4134   20608258.2734
      -950.995        -741.035
 -11680935.981 9  -9089872.25047  21806762.093    21806765.7724   21806771.0774
      3398.301        2648.027
 96 11  5 18 38 59.9970000  0  7 31  3  1 25 23 21 15               -0.002386112
  -5224901.349 9  -4056672.73547  22753859.711    22753863.1294   22753869.1004
     -1693.864       -1319.894
  10242144.925 9   7984152.73846  23469464.399    23469468.3894   23469475.7524
     -2714.208       -2114.967
  -8246824.427 9  -6409178.91849  19986147.973    19986151.5074   19986155.9864
     -1105.375        -861.331
 -20835690.052 9 -16195678.75448  21466627.218    21466630.9694   21466636.0974
      3100.720        2416.145
  10147231.401 8   7905153.84046  23445809.241    23445812.6744   23445819.1454
     -1976.530       -1540.153
  -1874863.884 9  -1456000.79048  20613708.335    20613711.6044   20613716.4484
      -961.733        -749.402
 -11782719.930 9  -9169184.38447  21787393.482    21787396.8844   21787402.2854
      3386.618        2638.923
 96 11  5 18 39 29.9970000  0  7 31  3  1 25 23 21 15               -0.002392359
  -5173905.128 9  -4016935.44547  22763563.942    22763567.3624   22763573.3524
     -1706.214       -1329.517
  10323576.708 9   8047605.97046  23484960.617    23484964.3244   23484971.8664
     -2714.815       -2115.440
  -8213480.440 9  -6383196.59549  19992493.329    19992496.6844   19992501.1464
     -1117.674        -870.915
 -20928541.661 9 -16268030.63648  21448958.025    21448961.8724   21448967.0084
      3089.203        2407.171
  10206606.291 8   7951419.90746  23457107.893    23457111.4054   23457117.8994
     -1981.999       -1544.415
  -1845874.877 9  -1433411.96348  20619224.729    20619228.0584   20619232.8944
      -971.106        -756.706
 -11884164.081 9  -9248231.73847  21768089.332    21768092.6984   21768098.0774
      3376.024        2630.668
 96 11  5 18 39 59.9970000  0  7 31  3  1 25 23 21 15               -0.002398545
  -5122478.855 9  -3976863.04147  22773349.870    22773353.4984   22773359.4134
     -1720.925       -1340.981
  10405094.485 9   8111126.18346  23500473.147    23500476.6644   23500484.3014
     -2718.492       -2118.305
  -8179714.339 9  -6356885.34949  19998918.755    19998922.1914   19998926.6184
     -1132.062        -882.126
 -21020986.870 9 -16340065.83248  21431366.246    21431370.1404   21431375.2934
      3075.189        2396.251
  10266205.383 8   7997860.69746  23468449.298    23468452.8904   23468459.1694
     -1989.979       -1550.633
  -1816537.413 9  -1410551.60748  20624807.578    20624810.8254   20624815.6724
      -983.550        -766.403
 -11985228.489 9  -9326983.20247  21748857.116    21748860.8064   21748866.1334
      3362.897        2620.439
 96 11  5 18 40 29.9970000  0  7 31  3  1 25 23 21 15               -0.002404708
  -5070699.286 9  -3936515.35347  22783203.466    22783206.8434   22783212.7424
     -1733.363       -1350.672
  10486631.683 9   8174661.52446  23515989.571    23515992.7384   23516000.4474
     -2719.767       -2119.299
  -8145615.209 9  -6330314.60949  20005407.627    20005411.0664   20005415.4354
     -1143.491        -891.032
 -21113103.686 9 -16411845.14348  21413836.876    21413840.8324   21413846.0024
      3063.620        2387.236
  10325951.006 8   8044415.67746  23479818.860    23479822.2074   23479828.3944
     -1995.348       -1554.817
  -1786924.981 9  -1387476.99548  20630442.466    20630445.8554   20630450.7204
      -992.873        -773.667
 -12085988.542 9  -9405497.48847  21729683.081    21729686.7554   21729692.1164
      3352.069        2612.002
 96 11  5 18 40 59.9970000  0  7 31  3  1 25 23 21 15               -0.002410825
  -5018519.458 9  -3895855.77247  22793132.882    22793136.3944   22793142.2954
     -1745.420       -1360.068
  10568249.376 9   8238259.59846  23531521.017    23531524.2024   23531531.8514
     -2721.561       -2120.697
  -8111139.474 9  -6303450.40249  20011968.237    20011971.6014   20011975.9354
     -1155.163        -900.127
 -21204832.185 9 -16483321.87048  21396381.690    21396385.4364   21396390.5924
      3051.454        2377.756
  10385881.888 9   8091114.97846  23491223.245    23491226.6554   23491232.9864
     -2000.203       -1558.600
  -1757006.817 9  -1364164.14748  20636135.750    20636139.1004   20636143.9804
     -1001.875        -780.682
 -12186385.606 9  -9483728.90347  21710578.078    21710581.7304   21710587.2154
      3340.770        2603.197
 96 11  5 18 41 29.9970000  0  7 31  3  1 25 23 21 15               -0.002416914
  -4965982.764 9  -3854918.13947  22803130.521    22803133.8474   22803139.7664
     -1757.200       -1369.247
  10649924.317 9   8301902.29846  23547063.195    23547066.5024   23547074.1444
     -2723.629       -2122.308
  -8076304.878 9  -6276306.56749  20018597.077    20018600.4184   20018604.7374
     -1167.364        -909.634
 -21296205.007 9 -16554521.44348  21378994.082    21378997.7964   21379002.9234
      3040.006        2368.836
  10445964.950 9   8137932.87946  23502656.835    23502660.1724   23502666.5754
     -2005.371       -1562.627
  -1726806.958 9  -1340631.80548  20641882.714    20641885.9504   20641890.8414
     -1011.724        -788.356
 -12286435.542 9  -9561689.87747  21691539.038    21691542.8634   21691548.3074
      3328.996        2594.023
 96 11  5 18 41 59.9970000  0  7 31  3  1 25 23 21 15               -0.002423015
  -4913163.664 9  -3813760.42847  22813181.698    22813185.0454   22813190.9384
     -1766.190       -1376.252
  10731598.241 9   8365544.23646  23562605.276    23562608.5994   23562616.2194
     -2723.107       -2121.901
  -8041171.716 9  -6248930.08449  20025282.639    20025286.0234   20025290.3514
     -1176.844        -917.021
 -21387300.474 9 -16625504.89048  21361659.241    21361662.9124   21361668.0094
      3030.894        2361.736
  10506128.535 8   8184813.52846  23514105.508    23514109.0324   23514115.4504
     -2007.549       -1564.324
  -1696372.555 9  -1316916.69848  20647674.211    20647677.4374   20647682.3274
     -1019.306        -794.264
 -12386194.109 9  -9639423.79247  21672555.534    21672559.3964   21672564.8694
      3319.586        2586.690
 96 11  5 18 42 29.9970000  0  7 31  3  1 25 23 21 15               -0.002429100
  -4860013.228 9  -3772344.52847  22823295.960    22823299.2934   22823305.0854
     -1777.110       -1384.761
  10813307.109 9   8429213.36746  23578153.880    23578157.3904   23578164.9754
     -2724.036       -2122.625
  -8005690.819 9  -6221282.63849  20032034.417    20032037.8274   20032042.1504
     -1188.469        -926.080
 -21478050.087 9 -16696218.84748  21344390.200    21344393.8224   21344398.9224
      3019.178        2352.606
  10566418.828 8   8231792.91146  23525578.452    23525581.9024   23525588.1914
     -2011.838       -1567.666
  -1665650.779 9  -1292977.66948  20653520.417    20653523.6014   20653528.4974
     -1028.792        -801.656
 -12485607.410 9  -9716888.66147  21653637.892    21653641.6274   21653647.1514
      3308.026        2577.683
 96 11  5 18 42 59.9970000  0  7 31  3  1 25 23 21 15               -0.002435171
  -4806546.292 9  -3730682.01447  22833470.371    22833473.7284   22833479.5324
     -1787.502       -1392.859
  10895042.969 9   8492903.53446  23593708.083    23593711.3414   23593718.9294
     -2724.807       -2123.226
  -7969860.211 9  -6193362.69449  20038852.820    20038856.1734   20038860.4864
     -1200.086        -935.132
 -21568452.678 9 -16766662.38848  21327187.017    21327190.7444   21327195.8564
      3007.815        2343.752
  10626839.183 8   8278873.61246  23537076.276    23537079.6194   23537086.0204
     -2016.199       -1571.064
  -1634633.836 9  -1268808.63348  20659422.643    20659425.9004   20659430.8544
     -1038.862        -809.503
 -12584675.108 9  -9794084.25547  21634785.774    21634789.6884   21634795.1254
      3296.634        2568.806
 96 11  5 18 43 29.9970000  0  7 31  3  1 25 23 21 15               -0.002441229
  -4752766.641 9  -3688775.82547  22843704.128    22843707.6844   22843713.4614
     -1798.138       -1401.146
  10976792.573 9   8556604.43546  23609264.277    23609267.8654   23609275.4644
     -2725.071       -2123.432
  -7933689.391 9  -6165177.64749  20045735.876    20045739.2544   20045743.5564
     -1211.225        -943.812
 -21658525.347 9 -16836848.85248  21310046.834    21310050.4444   21310055.5744
      2996.892        2335.241
  10687388.779 9   8326055.08046  23548598.588    23548601.9854   23548608.2354
     -2020.582       -1574.479
  -1603320.747 9  -1244408.83748  20665381.330    20665384.5634   20665389.5624
     -1048.606        -817.096
 -12683408.510 9  -9871019.34847  21615997.794    21616001.3104   21616006.7814
      3285.556        2560.174
 96 11  5 18 43 59.9970000  0  7 31  3  1 25 23 21 15               -0.002447259
  -4698641.137 9  -3646600.12747  22854003.955    22854007.4824   22854013.2024
     -1809.784       -1410.221
  11058553.498 9   8620314.13746  23624822.881    23624826.5454   23624834.1104
     -2725.109       -2123.461
  -7897176.783 9  -6136726.27449  20052683.968    20052687.3754   20052691.6784
     -1222.440        -952.551
 -21748237.484 9 -16906754.37648  21292975.114    21292978.7644   21292983.8964
      2984.454        2325.549
  10748091.729 8   8373355.98346  23560150.340    23560153.4974   23560159.9474
     -2025.802       -1578.547
  -1571702.701 9  -1219771.41748  20671397.960    20671401.2634   20671406.2804
     -1058.598        -824.882
 -12781794.080 9  -9947683.40447  21597275.607    21597279.1164   21597284.5594
      3274.030        2551.192
 96 11  5 18 44 29.9970000  0  7 31  3  1 25 23 21 15               -0.002453267
  -4644170.831 9  -3604155.75547  22864369.343    22864372.8764   22864378.5694
     -1821.612       -1419.438
  11140303.062 9   8684014.99846  23640379.593    23640383.0884   23640390.6374
     -2724.949       -2123.337
  -7860331.524 9  -6108015.69149  20059695.444    20059698.7884   20059703.1104
     -1233.948        -961.518
 -21837592.399 9 -16976381.54448  21275971.351    21275975.0934   21275980.2214
      2972.686        2316.379
  10808951.065 8   8420778.73946  23571731.069    23571734.5384   23571741.1144
     -2031.373       -1582.888
  -1539797.404 9  -1194910.16348  20677469.459    20677472.6674   20677477.6874
     -1068.372        -832.498
 -12879840.761 9 -10024083.38847  21578617.935    21578621.4564   21578626.8844
      3262.392        2542.124
 96 11  5 18 44 59.9970000  0  7 31  3  1 25 23 21 15               -0.002459242
  -4589337.281 9  -3561428.35547  22874803.960    22874807.3724   22874813.1794
     -1833.371       -1428.601
  11222044.898 9   8747709.81146  23655934.466    23655938.0504   23655945.6404
     -2723.969       -2122.573
  -7823143.252 9  -6079037.82249  20066772.048    20066775.4754   20066779.7904
     -1244.568        -969.793
 -21926601.000 9 -17045738.86248  21259033.577    21259037.3044   21259042.4184
      2961.777        2307.878
  10869973.476 8   8468328.64546  23583343.333    23583346.8434   23583353.2424
     -2036.222       -1586.666
  -1507600.177 9  -1169821.43548  20683596.407    20683599.6134   20683604.6054
     -1077.287        -839.444
 -12977535.452 9 -10100209.10547  21560026.998    21560030.7864   21560036.2154
      3251.190        2533.395
 96 11  5 18 45 29.9970000  0  7 31  3  1 25 23 21 15               -0.002465184
  -4534125.973 9  -3518406.60247  22885310.266    22885313.7214   22885319.5534
     -1846.778       -1439.048
  11303779.849 9   8811399.26346  23671488.019    23671491.7444   23671499.4034
     -2724.639       -2123.095
  -7785616.178 9  -6049795.95049  20073913.352    20073916.6214   20073920.9564
     -1256.797        -979.322
 -22015245.354 9 -17114812.34848  21242165.012    21242168.8254   21242173.9084
      2948.227        2297.320
  10931159.160 8   8516005.68346  23594986.558    23594990.0284   23594996.7804
     -2042.543       -1591.592
  -1475116.738 9  -1144509.67848  20689777.760    20689781.0344   20689786.0374
     -1087.983        -847.779
 -13074867.005 9 -10176051.84147  21541505.295    21541509.1564   21541514.6274
      3237.951        2523.079
 96 11  5 18 45 59.9970000  0  7 31  3  1 25 23 21 15               -0.002471096
  -4478565.853 9  -3475113.01547  22895883.096    22895886.4804   22895892.2854
     -1856.859       -1446.903
  11385498.202 9   8875075.80446  23687038.633    23687042.3494   23687050.0404
     -2723.109       -2121.903
  -7747766.279 9  -6020302.52649  20081115.812    20081119.1744   20081123.5594
     -1266.388        -986.796
 -22103523.113 9 -17183600.17948  21225366.237    21225370.0804   21225375.1654
      2937.247        2288.764
  10992498.375 8   8563802.41746  23606659.129    23606662.5924   23606669.0644
     -2046.302       -1594.521
  -1442344.525 9  -1118972.91048  20696014.175    20696017.4304   20696022.3884
     -1096.618        -854.508
 -13171841.282 9 -10251616.20547  21523051.812    21523055.5794   21523060.9954
      3227.198        2514.700
 96 11  5 18 46 29.9970000  0  7 31  3  1 25 23 21 15               -0.002476983
  -4422671.323 9  -3431558.87247  22906519.367    22906522.8824   22906528.7924
     -1869.096       -1456.438
  11467217.846 9   8938753.33246  23702589.583    23702593.2114   23702600.9254
     -2724.389       -2122.901
  -7709579.310 9  -5990546.45449  20088382.634    20088385.9264   20088390.3294
     -1278.987        -996.613
 -22191431.610 9 -17252100.27048  21208637.903    21208641.6434   21208646.7114
      2923.609        2278.137
  11053984.115 8   8611713.30946  23618359.615    23618363.0184   23618369.6244
     -2052.208       -1599.123
  -1409274.786 9  -1093204.30248  20702307.146    20702310.4274   20702315.3714
     -1107.678        -863.126
 -13268446.239 9 -10326892.77047  21504668.453    21504672.2314   21504677.6764
      3213.487        2504.016
 96 11  5 18 46 59.9970000  0  7 31  3  1 25 23 21 15               -0.002482827
  -4366415.042 9  -3387722.83947  22917224.727    22917228.0864   22917234.0244
     -1880.750       -1465.519
  11548979.026 9   9002463.20746  23718148.344    23718151.9304   23718159.7064
     -2725.929       -2124.101
  -7671020.274 9  -5960500.45749  20095720.085    20095723.4874   20095727.8794
     -1291.088       -1006.043
 -22278920.351 9 -17320273.28448  21191989.367    21191993.0784   21191998.1544
      2909.401        2267.066
  11115645.886 8   8659761.35246  23630093.397    23630096.8494   23630103.7364
     -2058.187       -1603.782
  -1375876.365 9  -1067179.57148  20708662.715    20708665.9734   20708670.9064
     -1118.380        -871.465
 -13364641.589 9 -10401850.17147  21486362.932    21486366.8614   21486372.2904
      3200.016        2493.519
 96 11  5 18 47 29.9970000  0  7 31  3  1 25 23 21 15               -0.002488682
  -4309903.952 9  -3343688.24847  22927978.311    22927981.7514   22927987.7494
     -1888.445       -1471.515
  11630714.888 9   9066153.42746  23733702.305    23733705.7754   23733713.6764
     -2724.613       -2123.075
  -7632174.725 9  -5930231.20749  20103112.186    20103115.5444   20103119.9224
     -1300.233       -1013.168
 -22366062.652 9 -17388176.34248  21175406.717    21175410.4494   21175415.5024
      2898.598        2258.648
  11177413.215 8   8707891.67446  23641847.186    23641850.7454   23641857.6284
     -2061.251       -1606.170
  -1342238.446 9  -1040968.22148  20715063.943    20715067.1054   20715072.0294
     -1125.762        -877.217
 -13460514.067 9 -10476555.98547  21468119.008    21468122.9214   21468128.3204
      3189.842        2485.591
 96 11  5 18 47 59.9970000  0  7 31  3  1 25 23 21 15               -0.002494526
  -4253103.917 9  -3299428.49947  22938787.182    22938790.5174   22938796.5524
     -1898.025       -1478.981
  11712461.009 9   9129851.59846  23749257.886    23749261.5974   23749269.5934
     -2724.839       -2123.251
  -7593001.217 9  -5899706.40449  20110566.664    20110570.0144   20110574.4004
     -1311.022       -1021.576
 -22452836.015 9 -17455791.92048  21158894.335    21158898.0324   21158903.0404
      2886.432        2249.168
  11239323.634 8   8756133.45946  23653628.713    23653632.1454   23653639.1734
     -2065.812       -1609.724
  -1308335.978 9  -1014550.73848  20721515.363    20721518.5734   20721523.4574
     -1134.117        -883.728
 -13556030.260 9 -10550984.15747  21449942.664    21449946.7544   21449952.1414
      3178.075        2476.422
 96 11  5 18 48 29.9970000  0  7 31  3  1 25 23 21 15               -0.002500363
  -4196014.799 9  -3254943.51047  22949650.690    22949654.2404   22949660.2734
     -1908.340       -1487.018
  11794216.258 9   9193556.85546  23764815.663    23764819.1844   23764827.1194
     -2725.874       -2124.058
  -7553506.181 9  -5868931.06149  20118082.316    20118085.6734   20118090.0354
     -1322.309       -1030.371
 -22539230.240 9 -17523112.06348  21142454.064    21142457.7294   21142462.7424
      2872.835        2238.573
  11301378.803 8   8804488.06946  23665437.242    23665440.8304   23665447.8204
     -2071.544       -1614.190
  -1274184.326 9   -987939.07148  20728014.224    20728017.4434   20728022.3354
     -1143.142        -890.760
 -13651185.589 9 -10625131.14647  21431835.198    21431839.2894   21431844.6504
      3165.242        2466.422
 96 11  5 18 48 59.9970000  0  7 31  3  1 25 23 21 15               -0.002506174
  -4138619.933 9  -3210220.27447  22960572.555    22960576.1294   22960582.1604
     -1918.203       -1494.704
  11876001.094 9   9257285.20446  23780378.680    23780382.3784   23780390.3394
     -2726.648       -2124.661
  -7513679.135 9  -5837897.00949  20125661.219    20125664.5034   20125668.8754
     -1333.123       -1038.797
 -22625221.032 9 -17590117.84448  21126090.500    21126094.2034   21126099.2004
      2859.566        2228.233
  11363604.204 8   8852975.27446  23677278.197    23677281.8874   23677289.0484
     -2077.120       -1618.535
  -1239760.186 9   -961115.09048  20734564.949    20734568.1474   20734573.0194
     -1152.250        -897.857
 -13745959.326 9 -10698980.78647  21413800.593    21413804.4144   21413809.7764
      3152.684        2456.637
 96 11  5 18 49 29.9970000  0  7 31  3  1 25 23 21 15               -0.002511965
  -4080938.462 9  -3165273.68947  22971549.001    22971552.5824   22971558.6054
     -1928.189       -1502.485
  11957799.461 9   9321024.13846  23795944.415    23795948.1604   23795956.1574
     -2727.207       -2125.096
  -7473530.182 9  -5806612.12349  20133301.315    20133304.6234   20133308.9974
     -1344.130       -1047.374
 -22710814.233 9 -17656813.80448  21109802.597    21109806.3564   21109811.3224
      2845.824        2217.525
  11425988.941 8   8901586.72346  23689149.759    23689153.6524   23689160.3264
     -2082.491       -1622.720
  -1205056.144 9   -934072.99248  20741168.866    20741172.1364   20741176.9864
     -1162.371        -905.744
 -13840355.708 9 -10772536.39747  21395837.439    21395841.3754   21395846.7124
      3139.575        2446.422
 96 11  5 18 49 59.9970000  0  7 31  3  1 25 23 21 15               -0.002517741
  -4022976.403 9  -3120108.48747  22982578.805    22982582.3654   22982588.3874
     -1936.637       -1509.068
  12039584.651 9   9384752.76746  23811507.715    23811511.4464   23811519.5464
     -2725.916       -2124.090
  -7433077.297 9  -5775090.40649  20140999.141    20141002.5504   20141006.9424
     -1353.499       -1054.675
 -22796006.489 9 -17723197.35448  21093590.938    21093594.7854   21093599.7214
      2832.856        2207.420
  11488507.678 8   8950302.49846  23701046.933    23701050.4544   23701057.4934
     -2086.396       -1625.763
  -1170053.191 9   -906797.99248  20747829.730    20747833.0064   20747837.8284
     -1172.174        -913.382
 -13934374.371 9 -10845797.65647  21377946.330    21377950.1674   21377955.5664
      3127.457        2436.979
 96 11  5 18 50 29.9970000  0  7 31  3  1 25 23 21 15               -0.002523494
  -3964745.222 9  -3074733.56547  22993659.966    22993663.4204   22993669.4264
     -1945.456       -1515.940
  12121342.676 9   9448460.21646  23827065.704    23827069.5294   23827077.6404
     -2724.346       -2122.867
  -7392325.252 9  -5743335.57749  20148753.950    20148757.4034   20148761.7884
     -1363.195       -1062.230
 -22880795.266 9 -17789266.48848  21077456.259    21077459.9754   21077464.9084
      2820.128        2197.502
  11551170.459 8   8999130.62146  23712971.483    23712975.0734   23712981.6214
     -2090.968       -1629.326
  -1134726.598 9   -879270.79948  20754552.271    20754555.4584   20754560.2534
     -1182.677        -921.566
 -14028005.939 9 -10918757.30547  21360128.974    21360132.6374   21360138.0754
      3114.844        2427.151
 96 11  5 18 50 59.9970000  0  7 31  3  1 25 23 21 15               -0.002529232
  -3906253.106 9  -3029155.33247  23004790.450    23004794.0744   23004800.1094
     -1954.690       -1523.135
  12203035.330 9   9512116.72946  23842611.789    23842615.2254   23842623.3884
     -2722.300       -2121.273
  -7351282.665 9  -5711354.35149  20156564.160    20156567.5344   20156571.9294
     -1373.435       -1070.209
 -22965224.114 9 -17855055.15548  21061389.865    21061393.6834   21061398.5874
      2807.898        2187.972
  11613970.241 8   9048065.36246  23724921.355    23724925.2084   23724932.3394
     -2096.300       -1633.481
  -1099095.049 9   -851505.97548  20761332.657    20761335.9134   20761340.7404
     -1193.320        -929.860
 -14121267.763 9 -10991428.83347  21342381.885    21342385.4664   21342390.8994
      3102.061        2417.190
 96 11  5 18 51 29.9970000  0  8 31 29  3  1 25 23 21 15            -0.002534927
  -3847471.672 9  -2983351.65447  23015976.385    23015979.9034   23015985.9304
     -1964.865       -1531.064
   -223038.09018   -155757.20754  23934339.239           0.0005          0.0005
      3201.732        2494.856
  12284664.311 9   9575723.64346  23858145.485    23858148.7414   23858156.9644
     -2720.315       -2119.726
  -7309930.129 9  -5679131.60749  20164433.284    20164436.6564   20164441.0784
     -1383.950       -1078.403
 -23049279.431 9 -17920552.75348  21045394.485    21045398.4504   21045403.3424
      2795.216        2178.090
  11676941.561 8   9097133.89846  23736905.132    23736908.7144   23736915.2504
     -2102.399       -1638.233
  -1063136.907 9   -823486.66248  20768175.378    20768178.5234   20768183.3734
     -1204.309        -938.423
 -14214133.868 9 -11063792.01147  21324709.996    21324713.5754   21324719.0494
      3088.444        2406.580
 96 11  5 18 51 59.9970000  0  8 31 29  3  1 25 23 21 15            -0.002540580
  -3788385.441 9  -2937310.44247  23027220.307    23027223.6344   23027229.6794
     -1974.668       -1538.702
   -318984.639 8      -686.96552  23916072.862           0.0005          0.0005
      3194.489        2489.212
  12366224.762 9   9639277.15746  23873665.821    23873669.2584   23873677.3974
     -2717.484       -2117.520
  -7268266.419 9  -5646666.38849  20172361.544    20172364.9914   20172369.4394
     -1394.114       -1086.322
 -23132965.209 9 -17985762.40348  21029469.667    21029473.5514   21029478.3964
      2783.351        2168.845
  11740098.144 8   9146346.73046  23748923.300    23748926.8574   23748933.6444
     -2108.400       -1642.909
  -1026872.357 9   -795228.58848  20775076.052    20775079.4404   20775084.3104
     -1213.408        -945.513
 -14306598.136 9 -11135842.07747  21307114.898    21307118.2274   21307123.6374
      3075.471        2396.471
 96 11  5 18 52 29.9970000  0  8 31 29  3  1 25 23 21 15            -0.002546280
  -3728999.248 9  -2891035.50047  23038520.989    23038524.4404   23038530.5154
     -1985.588       -1547.211
   -414713.753 8    -75280.64745  23897854.976           0.0004          0.0004
      3186.640        2483.096
  12447711.453 9   9702773.19146  23889172.380    23889175.7894   23889183.9204
     -2716.165       -2116.492
  -7226286.019 9  -5613954.40149  20180350.240    20180353.6124   20180358.0454
     -1405.633       -1095.298
 -23216284.269 9 -18050686.29348  21013614.635    21013618.4424   21013623.2344
      2770.024        2158.460
  11803441.336 8   9195704.97646  23760977.243    23760980.8494   23760987.7054
     -2115.209       -1648.215
   -990346.608 9   -766766.98848  20782026.596    20782030.0554   20782034.9654
     -1222.736        -952.781
 -14398667.875 9 -11207584.70647  21289594.402    21289597.9094   21289603.2984
      3061.472        2385.562
 96 11  5 18 52 59.9970000  0  8 31 29  3  1 25 23 21 15            -0.002551856
  -3669288.613 9  -2844507.76047  23049883.499    23049886.9584   23049893.0824
     -1995.038       -1554.575
   -510226.073 8   -149705.72255  23879680.964           0.0004          0.0005
      3180.743        2478.501
  12529158.299 9   9766238.16846  23904671.218    23904674.6534   23904682.8434
     -2713.839       -2114.680
  -7183962.338 9  -5580974.92149  20188404.127    20188407.5404   20188411.9884
     -1415.876       -1103.280
 -23299193.082 9 -18115290.51448  20997837.667    20997841.4064   20997846.1754
      2757.049        2148.350
  11866972.226 8   9245209.49746  23773066.629    23773070.4034   23773077.0124
     -2119.948       -1651.908
   -953543.926 9   -738089.59948  20789029.831    20789033.3864   20789038.3134
     -1230.913        -959.153
 -14490321.271 9 -11279002.92847  21272153.524    21272156.8664   21272162.2474
      3048.685        2375.599
 96 11  5 18 53 29.9970000  0  8 31 29  3  1 25 23 21 15            -0.002557433
  -3609300.964 9  -2797764.15547  23061298.540    23061302.2484   23061308.3534
     -2004.101       -1561.637
   -605559.258 8   -223991.36155  23861539.966           0.0005   23861550.1815
      3174.955        2473.991
  12610548.084 8   9829658.69545  23920158.716    23920162.7004   23920170.8984
     -2712.206       -2113.407
  -7141337.561 9  -5547760.82349  20196515.406    20196518.8054   20196523.2284
     -1425.853       -1111.054
 -23381698.379 9 -18179580.30848  20982137.476    20982141.1684   20982145.8754
      2743.355        2137.679
  11930633.202 9   9294815.36046  23785181.728    23785184.8264   23785191.5364
     -2123.965       -1655.038
   -916494.462 9   -709219.91248  20796080.272    20796083.6924   20796088.6134
     -1239.118        -965.546
 -14581589.651 9 -11350121.12347  21254785.331    21254789.0614   21254794.4274
      3035.849        2365.597
 96 11  5 18 53 59.9970000  0  8 31 29  3  1 25 23 21 15            -0.002563023
  -3549037.079 9  -2750805.30747  23072766.613    23072770.1604   23072776.2144
     -2013.159       -1568.695
   -700720.533 8   -298142.88945  23843431.312    23843436.2845   23843441.5254
      3169.419        2469.677
  12691908.486 8   9893056.31645  23935641.209    23935645.1254   23935653.4264
     -2711.424       -2112.798
  -7098394.714 9  -5514298.87749  20204687.090    20204690.5964   20204694.9974
     -1436.724       -1119.525
 -23463779.749 9 -18243539.77148  20966517.813    20966521.5494   20966526.2514
      2729.097        2126.569
  11994418.715 8   9344518.26946  23797319.899    23797322.8524   23797329.5624
     -2128.063       -1658.231
   -879181.324 9   -680144.76748  20803180.705    20803184.1734   20803189.0854
     -1248.324        -972.720
 -14672462.699 9 -11420931.29347  21237492.979    21237496.5364   21237501.8264
      3022.643        2355.306
 96 11  5 18 54 29.9970000  0  8 31 29  3  1 25 23 21 15            -0.002568480
  -3488492.527 9  -2703627.76247  23084287.657    23084291.4374   23084297.5104
     -2022.552       -1576.014
   -795705.610 8   -372157.10155  23825356.765    23825361.7244   23825367.9215
      3163.431        2465.011
  12773263.228 8   9956449.49955  23951122.469    23951125.1144          0.0005
     -2711.470       -2112.834
  -7055116.702 9  -5480575.76049  20212922.705    20212926.1474   20212930.5524
     -1447.672       -1128.056
 -23545423.784 9 -18307158.45348  20950981.410    20950985.1604   20950989.8664
      2714.542        2115.227
  12058335.476 9   9394323.45346  23809482.376    23809485.8814   23809492.5064
     -2132.334       -1661.559
   -841558.255 9   -650828.11448  20810340.234    20810343.6534   20810348.5444
     -1259.433        -981.376
 -14762925.161 9 -11491421.50247  21220278.311    21220282.0964   21220287.3464
      3008.790        2344.512
 96 11  5 18 54 59.9970000  0  8 31 29  3  1 25 23 21 15            -0.002574088
  -3427681.804 9  -2656242.78847  23095859.762    23095863.4204   23095869.4094
     -2031.796       -1583.218
   -890520.903 9   -446038.99345  23807314.096    23807318.7485   23807324.8304
      3157.357        2460.278
  12854592.416 8  10019822.82255  23966599.178    23966602.6144   23966613.4795
     -2710.584       -2112.143
  -7011535.112 9  -5446616.08749  20221216.029    20221219.4664   20221223.8604
     -1457.872       -1136.004
 -23626655.105 9 -18370455.54348  20935523.613    20935527.3314   20935532.0204
      2700.800        2104.519
  12122367.693 8   9444218.63346  23821667.597    23821671.0964   23821677.5174
     -2136.844       -1665.073
   -803614.093 9   -621261.26348  20817560.951    20817564.2264   20817569.1084
     -1270.335        -989.871
 -14852987.412 9 -11561599.87048  21203140.007    21203143.8054   21203149.0604
      2995.130        2333.868
 96 11  5 18 55 29.9970000  0  8 31 29  3  1 25 23 21 15            -0.002579633
  -3366598.154 9  -2608645.14647  23107483.580    23107487.2854   23107493.2924
     -2040.711       -1590.164
   -985145.726 9   -519772.47645  23789307.749    23789312.1664   23789318.3584
      3150.961        2455.294
  12935892.681 7  10083173.53455  23982070.284    23982072.4794          0.0005
     -2709.255       -2111.108
  -6967650.427 9  -5412420.23049  20229566.938    20229570.4634   20229574.8304
     -1467.811       -1143.749
 -23707477.431 9 -18433433.93948  20920143.687    20920147.3184   20920151.9864
      2687.340        2094.031
  12186545.326 8   9494227.06846  23833880.381    23833883.7684   23833890.5094
     -2141.879       -1668.997
   -765342.761 9   -591439.46748  20824843.599    20824847.0624   20824851.9304
     -1281.092        -998.254
 -14942635.959 9 -11631455.86048  21186080.523    21186084.2454   21186089.5064
      2981.342        2323.124
 96 11  5 18 55 59.9970000  0  8 31 29  3  1 25 23 21 15            -0.002585133
  -3305265.604 9  -2560853.57547  23119154.712    23119158.3984   23119164.5554
     -2049.147       -1596.738
  -1079601.035 9   -593373.84045  23771333.416    23771337.7334   23771343.9514
      3144.817        2450.507
  13017124.07617  10146470.57854  23997528.563    23997532.8335          0.0005
     -2707.114       -2109.439
  -6923484.530 9  -5378005.25749  20237971.421    20237974.9674   20237979.3334
     -1477.393       -1151.215
 -23787919.951 9 -18496116.40048  20904835.826    20904839.5664   20904844.2334
      2674.503        2084.028
  12250863.312 8   9544344.94646  23846119.605    23846123.2194   23846129.6554
     -2147.021       -1673.003
   -726775.859 9   -561387.36048  20832182.831    20832186.1264   20832190.9804
     -1290.862       -1005.866
 -15031889.094 9 -11701003.74648  21169096.351    21169099.9444   21169105.1944
      2967.794        2312.567
 96 11  5 18 56 29.9970000  0  8 31 29  3  1 25 23 21 15            -0.002590593
  -3243677.721 9  -2512863.03847  23130874.681    23130878.2424   23130884.3854
     -2057.474       -1603.226
  -1173854.840 8   -666818.18445  23753397.585    23753401.7184   23753408.0414
      3138.086        2445.262
  13098285.86517  10209713.40054  24012972.683           0.0005          0.0005
     -2704.317       -2107.260
  -6879033.923 9  -5343368.42849  20246430.090    20246433.6484   20246438.0124
     -1486.595       -1158.386
 -23867968.806 9 -18558492.10848  20889603.001    20889606.7144   20889611.3894
      2661.252        2073.703
  12315344.663 8   9594590.06946  23858390.039    23858393.6744   23858400.3194
     -2152.442       -1677.228
   -687918.655 9   -531109.04448  20839577.243    20839580.4374   20839585.2864
     -1300.285       -1013.209
 -15120725.386 9 -11770226.81448  21152191.483    21152194.9524   21152200.2194
      2953.921        2301.757
 96 11  5 18 56 59.9970000  0  8 31 29  3  1 25 23 21 15            -0.002596043
  -3181839.221 9  -2464677.22147  23142642.150    23142645.6994   23142651.8514
     -2065.611       -1609.567
  -1267904.883 9   -740103.79746  23735500.254    23735504.4354   23735510.7954
      3131.491        2440.123
  13179359.47517     18474.48352  24028400.396           0.0005          0.0005
     -2701.394       -2104.982
  -6834302.447 9  -5308512.74149  20254942.226    20254945.7774   20254950.1444
     -1496.153       -1165.833
 -23947611.696 9 -18620551.48448  20874447.420    20874451.1714   20874455.8314
      2647.801        2063.222
  12379996.537 9   9644968.03046  23870692.812    23870696.4244   23870703.2724
     -2158.285       -1681.781
   -648789.046 9   -500618.45748  20847023.311    20847026.5484   20847031.4114
     -1308.985       -1019.988
 -15209141.275 9 -11839122.30648  21135366.398    21135369.9274   21135375.2184
      2939.962        2290.879
 96 11  5 18 57 29.9970000  0  8 31 29  3  1 25 23 21 15            -0.002601497
  -3119757.362 9  -2416301.78147  23154455.761    23154459.4544   23154465.5964
     -2072.663       -1615.062
  -1361752.503 9   -813231.67946  23717641.579    23717645.7694   23717652.0744
      3125.534        2435.481
  13260356.39416     81532.59554  24043813.287           0.0005          0.0005
     -2698.286       -2102.561
  -6789268.606 9  -5273421.44249  20263511.931    20263515.4484   20263519.8444
     -1505.457       -1173.083
 -24026841.054 9 -18682288.62848  20859370.509    20859374.3274   20859378.9514
      2634.722        2053.030
  12444832.457 8   9695489.53646  23883031.091    23883034.4804   23883040.8944
     -2163.497       -1685.842
   -609383.401 9   -469912.77648  20854521.780    20854525.2124   20854530.0804
     -1317.554       -1026.665
 -15297130.375 9 -11907685.21848  21118622.651    21118626.1354   21118631.4034
      2926.521        2280.406
 96 11  5 18 57 59.9970000  0  8 31 29  3  1 25 23 21 15            -0.002606948
  -3057453.705 9  -2367753.49247  23166311.727    23166315.4054   23166321.5554
     -2080.578       -1621.230
  -1455410.401 9   -886211.72346  23699819.258    23699823.0734   23699829.4184
      3118.841        2430.266
  13341267.47216    144455.16954  24059210.747           0.0005          0.0005
     -2694.301       -2099.455
  -6743949.243 9  -5238107.66649  20272136.008    20272139.4474   20272143.8754
     -1515.243       -1180.709
 -24105671.236 9 -18743714.73748  20844369.636    20844373.4604   20844378.0284
      2621.136        2042.444
  12509828.727 9   9746135.82246  23895399.329    23895402.7044   23895409.7304
     -2168.937       -1690.081
   -569708.108 9   -438996.98348  20862071.812    20862075.2084   20862080.0584
     -1327.012       -1034.035
 -15384708.523 9 -11975927.92748  21101957.193    21101960.5734   21101965.7934
      2912.533        2269.506
 96 11  5 18 58 29.9970000  0  7 31 29  1 25 23 21 15               -0.002612368
  -2994908.916 9  -2319017.31447  23178213.772    23178217.3234   23178223.4484
     -2089.188       -1627.939
  -1548869.144 9   -959036.59146  23682034.601    23682038.3804   23682044.6824
      3112.064        2424.985
  -6698342.870 9  -5202570.24149  20280814.529    20280818.0504   20280822.4684
     -1525.107       -1188.395
 -24184089.574 9 -18804819.92648  20829447.161    20829450.9454   20829455.5104
      2606.720        2031.210
  12574985.389 8   9796907.24646  23907798.349    23907801.7594   23907808.6964
     -2174.695       -1694.568
   -529738.395 9   -407851.76948  20869677.791    20869681.1964   20869686.0854
     -1337.649       -1042.324
 -15471868.684 9 -12043844.91948  21085371.163    21085374.5384   21085379.7474
      2898.231        2258.362
 96 11  5 18 58 59.9970000  0  7 31 29  1 25 23 21 15               -0.002617740
  -2932106.753 9  -2270080.59247  23190164.895    23190168.2134   23190174.3244
     -2097.290       -1634.252
  -1642129.299 9  -1031706.76246  23664287.635    23664291.5324   23664297.8234
      3105.674        2420.006
  -6652443.232 9  -5166804.29848  20289548.979    20289552.4704   20289556.8814
     -1534.566       -1195.766
 -24262073.194 9 -18865586.37748  20814607.280    20814611.1594   20814615.7114
      2592.598        2020.206
  12640305.008 9   9847805.51646  23920228.577    23920231.5984   23920238.9104
     -2179.706       -1698.472
   -489449.921 9   -376458.18248  20877344.475    20877347.8504   20877352.7604
     -1347.948       -1050.349
 -15558598.632 9 -12111426.67048  21068866.863    21068870.3794   21068875.5664
      2884.047        2247.309
 96 11  5 18 59 29.9970000  0  7 31 29  1 25 23 21 15               -0.002623071
  -2869070.938 9  -2220961.80247  23202160.279    23202163.6104   23202169.6994
     -2104.274       -1639.694
  -1735201.254 9  -1104230.29246  23646576.331    23646580.5074   23646586.7804
      3100.014        2415.595
  -6606275.791 9  -5130829.68348  20298334.278    20298337.8764   20298342.2564
     -1542.236       -1201.742
 -24339636.326 9 -18926025.17748  20799847.627    20799851.3804   20799855.9174
      2579.105        2009.692
  12705770.310 8   9898817.40645  23932686.080    23932689.5474   23932696.4874
     -2183.599       -1701.506
   -448855.448 9   -344826.14848  20885069.259    20885072.7264   20885077.6524
     -1357.245       -1057.593
 -15644907.245 9 -12178680.13248  21052442.857    21052446.4004   21052451.5714
      2870.705        2236.913
 96 11  5 18 59 59.9970000  0  7 31 29  1 25 23 21 15               -0.002628376
  -2805805.381 9  -2171663.98747  23214199.272    23214202.6544   23214208.7644
     -2112.599       -1646.181
  -1828083.007 9  -1176605.62046  23628901.716    23628905.6334   23628911.9974
      3093.103        2410.210
  -6559869.819 9  -5094669.19848  20307165.147    20307168.6574   20307173.0494
     -1550.720       -1208.353
 -24416770.387 9 -18986129.63948  20785169.405    20785173.2144   20785177.7484
      2563.963        1997.893
  12771363.838 9   9949929.13846  23945167.783    23945171.3594   23945178.6374
     -2188.402       -1705.248
   -407975.945 9   -312972.02148  20892848.424    20892851.8274   20892856.7934
     -1367.169       -1065.326
 -15730795.443 9 -12245605.98448  21036098.828    21036102.4024   21036107.5864
      2856.024        2225.473
 96 11  5 19  0 29.9970000  0  7 31 29  1 25 23 21 15               -0.002633690
  -2742325.515 9  -2122199.18947  23226279.012    23226282.5154   23226288.5954
     -2119.274       -1651.382
  -1920792.059 9  -1248846.38846  23611260.111    23611263.6114   23611270.0334
      3087.473        2405.823
  -6513240.518 9  -5058334.68948  20316038.380    20316041.9314   20316046.3304
     -1558.082       -1214.090
 -24493474.099 9 -19045898.75848  20770573.157    20770576.9814   20770581.4994
      2549.590        1986.694
  12837074.847 8  10001132.48945  23957673.048    23957676.0334   23957682.9744
     -2192.365       -1708.336
   -366833.329 9   -280912.86648  20900677.613    20900680.9804   20900685.9814
     -1375.650       -1071.935
 -15816270.119 9 -12312209.61848  21019833.345    21019837.1154   21019842.2854
      2842.251        2214.741
 96 11  5 19  0 59.9970000  0  7 31 29  1 25 23 21 15               -0.002639042
  -2678655.996 9  -2072586.60447  23238394.875    23238398.4234   23238404.5304
     -2126.078       -1656.684
  -2013330.614 9  -1320954.29346  23593650.208    23593653.9754   23593660.4084
      3081.029        2400.802
  -6466382.704 9  -5021822.12348  20324955.185    20324958.6604   20324963.0794
     -1566.533       -1220.675
 -24569747.530 9 -19105332.58448  20756058.878    20756062.6554   20756067.1704
      2534.641        1975.045
  12902905.953 9  10052429.39346  23970200.252    23970202.9964   23970210.2854
     -2197.259       -1712.150
   -325441.482 9   -248659.50948  20908554.247    20908557.6204   20908562.5924
     -1384.504       -1078.834
 -15901327.154 9 -12378487.81048  21003647.555    21003651.3184   21003656.4604
      2827.585        2203.313
 96 11  5 19  1 29.9970000  0  7 31 29  1 25 23 21 15               -0.002644426
  -2614793.450 9  -2022823.63547  23250547.804    23250551.0044   23250557.1964
     -2131.689       -1661.056
  -2105688.829 9  -1392921.68446  23576074.826    23576078.7454   23576085.0614
      3076.112        2396.970
  -6419285.206 9  -4985122.79648  20333917.487    20333921.0414   20333925.4534
     -1573.421       -1226.042
 -24645590.449 9 -19164430.94648  20741626.509    20741630.2374   20741634.7754
      2521.503        1964.808
  12968874.331 8  10103833.23746  23982753.450    23982756.5694   23982763.8624
     -2200.748       -1714.869
   -283798.698 9   -216210.61948  20916478.546    20916482.0024   20916486.9794
     -1391.809       -1084.526
 -15985960.180 9 -12444435.60748  20987542.479    20987546.1624   20987551.3204
      2814.556        2193.160
 96 11  5 19  1 59.9970000  0  7 31 29  1 25 23 21 15               -0.002649836
  -2550734.976 9  -1972907.97847  23262737.619    23262740.9644   23262747.1284
     -2138.819       -1666.612
  -2197884.141 9  -1464762.15746  23558530.388    23558534.5574   23558540.8004
      3070.423        2392.537
  -6371948.409 9  -4948236.99548  20342925.446    20342928.9194   20342933.3564
     -1582.360       -1233.008
 -24721014.398 9 -19223202.82748  20727273.772    20727277.5434   20727282.0834
      2507.017        1953.520
  13034966.968 8  10155333.90045  23995331.063    23995333.7654   23995340.9414
     -2205.407       -1718.499
   -241903.690 9   -183565.18948  20924450.882    20924454.3944   20924459.3864
     -1401.119       -1091.781
 -16070176.855 9 -12510058.98048  20971516.579    20971520.2424   20971525.4234
      2800.048        2181.856
 96 11  5 19  2 29.9970000  0  7 31 29  1 25 23 21 15               -0.002655243
  -2486464.787 9  -1922827.35047  23274968.169    23274971.2164   23274977.3584
     -2146.011       -1672.216
  -2289909.121 9  -1536469.89646  23541018.805    23541022.7124   23541029.0224
      3064.217        2387.702
  -6324335.129 9  -4911135.75348  20351985.988    20351989.4384   20351993.8714
     -1592.127       -1240.618
 -24796013.334 9 -19281643.53048  20713001.825    20713005.7164   20713010.2354
      2492.725        1942.383
  13101198.560 9  10206942.92346  24007934.268    24007937.3704   24007944.2014
     -2210.291       -1722.305
   -199727.714 9   -150700.82948  20932476.840    20932480.2404   20932485.2354
     -1410.918       -1099.417
 -16153959.208 9 -12575343.90848  20955573.402    20955576.9264   20955582.1764
      2785.163        2170.257
 96 11  5 19  2 59.9970000  0  7 31 29  1 25 23 21 15               -0.002660628
  -2421985.473 9  -1872583.76247  23287238.026    23287241.2804   23287247.4304
     -2152.626       -1677.371
  -2381750.020 9  -1608034.19446  23523542.015    23523545.9424   23523552.1904
      3058.554        2383.289
  -6276431.076 9  -4873807.93448  20361101.774    20361105.2804   20361109.7214
     -1601.189       -1247.680
 -24870593.124 9 -19339757.62048  20698809.853    20698813.6574   20698818.1744
      2479.288        1931.913
  13167572.205 9  10258662.52846  24020564.993    24020567.8534   24020574.8854
     -2214.573       -1725.641
   -157255.090 9   -117605.31948  20940559.179    20940562.5424   20940567.5524
     -1420.572       -1106.939
 -16237299.806 9 -12640284.62948  20939714.194    20939717.7254   20939722.9924
      2770.930        2159.166
 96 11  5 19  3 29.9970000  0  7 31 29  1 25 23 21 15               -0.002665965
  -2357294.888 9  -1822175.56247  23299547.964    23299551.5164   23299557.6874
     -2159.824       -1682.980
  -2473422.326 9  -1679467.12346  23506097.078    23506101.2054   23506107.3704
      3053.059        2379.007
  -6228259.117 9  -4836271.35448  20370268.630    20370272.0924   20370276.5514
     -1610.001       -1254.546
 -24944768.800 9 -19397556.81348  20684694.675    20684698.4524   20684702.9914
      2465.968        1921.534
  13234074.057 9  10310482.10446  24033219.854    24033222.8284   24033229.8974
     -2218.569       -1728.755
   -114479.397 9    -84273.64048  20948699.137    20948702.5064   20948707.5304
     -1430.967       -1115.039
 -16320206.413 9 -12704887.16448  20923937.417    20923941.0744   20923946.3974
      2756.328        2147.788
 96 11  5 19  3 59.9970000  0  7 31 29  1 25 23 21 15               -0.002671221
  -2292361.033 9  -1771577.79747  23311904.688    23311908.0374   23311914.2164
     -2168.059       -1689.397
  -2564888.501 9  -1750739.44247  23488691.816    23488695.6984   23488701.9004
      3045.481        2373.102
  -6179781.412 9  -4798496.53348  20379493.679    20379497.1104   20379501.5434
     -1620.850       -1263.000
 -25018500.810 9 -19455010.29748  20670663.926    20670667.6814   20670672.2404
      2450.387        1909.392
  13300731.961 8  10362423.28746  24045904.058    24045907.2544   24045914.5404
     -2224.331       -1733.245
    -71352.718 9    -50668.47448  20956905.862    20956909.2864   20956914.3144
     -1443.024       -1124.434
 -16402634.296 9 -12769116.67348  20908251.935    20908255.5674   20908260.8854
      2739.847        2134.946
 96 11  5 19  4 29.9970000  0  7 31 29  1 25 23 21 15               -0.002676427
  -2227222.412 9  -1720820.47147  23324299.911    23324303.5754   23324309.7164
     -2173.588       -1693.705
  -2656153.001 9  -1821854.59947  23471324.536    23471328.6774   23471334.8184
      3039.588        2368.510
  -6131019.951 9  -4760500.60448  20388772.644    20388776.0964   20388780.5474
     -1628.911       -1269.281
 -25091802.736 9 -19512128.65248  20656715.152    20656718.7774   20656723.3384
      2437.158        1899.084
  13367528.301 9  10414472.25846  24058615.042    24058618.4004   24058625.6914
     -2228.019       -1736.119
    -27907.783 9    -16815.32248  20965173.199    20965176.6164   20965181.6174
     -1452.481       -1131.803
 -16484603.921 9 -12832989.10048  20892653.597    20892657.2724   20892662.5744
      2725.568        2123.819
 96 11  5 19  4 59.9970000  0  7 31 29  1 25 23 21 15               -0.002681612
  -2161931.805 9  -1669944.71047  23336724.422    23336727.9964   23336734.1814
     -2178.554       -1697.575
  -2747254.197 9  -1892842.47147  23453988.600    23453992.7114   23453998.8374
      3034.716        2364.714
  -6082039.581 9  -4722334.09448  20398093.134    20398096.7654   20398101.1984
     -1635.591       -1274.486
 -25164711.380 9 -19568940.55648  20642841.058    20642844.7324   20642849.2694
      2424.097        1888.907
  13434429.591 8  10466603.10245  24071346.116    24071349.2334   24071356.3484
     -2231.181       -1738.582
     15808.467 9     17249.25848  20973492.065    20973495.5624   20973500.5914
     -1460.984       -1138.429
 -16566155.816 9 -12896536.00548  20877134.976    20877138.4424   20877143.7514
      2711.981        2113.232
 96 11  5 19  5 29.9970000  0  7 31 29  1 25 23 21 15               -0.002686803
  -2096482.860 9  -1618945.59246  23349179.097    23349182.5844   23349188.7544
     -2184.474       -1702.188
  -2838203.614 9  -1963712.09647  23436681.384    23436685.5684   23436691.7174
      3028.651        2359.988
  -6032852.969 9  -4684006.87948  20407453.256    20407456.6994   20407461.1104
     -1643.426       -1280.592
 -25237220.587 9 -19625441.21248  20629042.969    20629046.6444   20629051.2034
      2409.910        1877.852
  13501428.829 9  10518810.21246  24084095.761    24084098.8654   24084105.9674
     -2235.270       -1741.769
     59774.629 9     51508.56948  20981858.574    20981862.0634   20981867.1034
     -1469.881       -1145.362
 -16647291.625 9 -12959758.70448  20861695.417    20861698.8004   20861704.1194
      2697.184        2101.702
 96 11  5 19  5 59.9970000  0  7 31 29  1 25 23 21 15               -0.002691997
  -2030849.771 9  -1567802.97146  23361668.545    23361672.1714   23361678.3704
     -2190.832       -1707.142
  -2928942.471 9  -2034417.64147  23419414.321    23419418.4464   23419424.6004
      3020.965        2353.999
  -5983410.071 9  -4645479.96148  20416861.808    20416865.3784   20416869.7884
     -1652.265       -1287.479
 -25309276.039 9 -19681588.29948  20615331.197    20615334.9454   20615339.4714
      2394.165        1865.583
  13568574.295 8  10571131.33046  24096872.847    24096876.3344   24096883.0654
     -2240.779       -1746.062
    104013.977 9     85980.75748  20990277.061    20990280.5434   20990285.5954
     -1479.036       -1152.495
 -16727967.068 9 -13022622.66348  20846343.213    20846346.7644   20846352.0934
      2681.590        2089.551
 96 11  5 19  6 29.9970000  0  7 31 29  1 25 23 21 15               -0.002697210
  -1965047.080 9  -1516528.18346  23374190.566    23374194.0234   23374200.1874
     -2196.758       -1711.759
  -3019484.029 9  -2104969.43047  23402185.007    23402188.9744   23402195.0784
      3014.466        2348.935
  -5933740.043 9  -4606776.05148  20426313.694    20426317.2814   20426321.6954
     -1659.672       -1293.251
 -25380891.727 9 -19737392.71648  20601703.191    20601706.9254   20601711.4374
      2379.466        1854.129
  13635855.097 8  10623557.82546  24109676.063    24109679.3934   24109686.4964
     -2245.279       -1749.568
    148499.248 9    120644.57048  20998742.484    20998745.8294   20998750.9014
     -1487.411       -1159.022
 -16808202.076 9 -13085143.43148  20831074.935    20831078.5324   20831083.8754
      2666.741        2077.980
 96 11  5 19  6 59.9970000  0  7 31 29  1 25 23 21 15               -0.002702435
  -1899051.607 9  -1465103.19046  23386749.018    23386752.5964   23386758.7434
     -2203.095       -1716.697
  -3109822.455 9  -2175362.93346  23384994.287    23384998.0844   23385004.2074
      3008.031        2343.920
  -5883836.911 9  -4567890.50348  20435810.059    20435813.5674   20435817.9554
     -1667.306       -1299.199
 -25452043.236 9 -19792835.43348  20588163.496    20588167.2184   20588171.7574
      2363.875        1841.981
  13703284.455 9  10676100.10546  24122507.367    24122510.9654   24122518.0424
     -2250.009       -1753.254
    193249.555 9    155514.90848  21007258.183    21007261.5364   21007266.6624
     -1496.059       -1165.760
 -16887977.847 9 -13147306.36748  20815894.027    20815897.7004   20815903.0394
      2651.546        2066.140
